Wetterdaten: Donnerstag, 09.03.2017
Datum Zeit Temp. A. Feuchte A. Luftdruck Regen Wind Richtung Richtung Sonnenschein ET UV Solar Taupunkt Windchill Windben Empfang
09.03.2017 00:00 4,9 C 90 % 1019,0 hPa 0,0 l/m 2,5 km/h (1 Bft) S 178 0 min 0,000 mm 0,0 UV-I 0 W/m 3,4 C 4,9 C 6,4 km/h (2 Bft) 95,45 %
09.03.2017 00:02 4,9 C 90 % 1018,9 hPa 0,2 l/m 3,4 km/h (1 Bft) S-SO 163 0 min 0,000 mm 0,0 UV-I 0 W/m 3,4 C 4,9 C 6,4 km/h (2 Bft) 100,00 %
09.03.2017 00:04 5,0 C 90 % 1018,6 hPa 0,0 l/m 5,9 km/h (2 Bft) S-SO 150 0 min 0,000 mm 0,0 UV-I 0 W/m 3,5 C 5,0 C 11,3 km/h (2 Bft) 96,61 %
09.03.2017 00:06 5,0 C 90 % 1018,6 hPa 0,0 l/m 8,6 km/h (2 Bft) S-SO 162 0 min 0,000 mm 0,0 UV-I 0 W/m 3,5 C 3,1 C 12,9 km/h (3 Bft) 100,00 %
09.03.2017 00:08 5,0 C 90 % 1018,7 hPa 0,0 l/m 5,5 km/h (1 Bft) S-SO 157 0 min 0,000 mm 0,0 UV-I 0 W/m 3,5 C 5,0 C 9,7 km/h (2 Bft) 93,75 %
09.03.2017 00:10 5,0 C 90 % 1018,5 hPa 0,0 l/m 6,4 km/h (2 Bft) SO 138 0 min 0,000 mm 0,0 UV-I 0 W/m 3,5 C 5,0 C 9,7 km/h (2 Bft) 94,87 %
09.03.2017 00:12 5,1 C 90 % 1018,6 hPa 0,0 l/m 4,7 km/h (1 Bft) S 184 0 min 0,000 mm 0,0 UV-I 0 W/m 3,6 C 5,1 C 8,0 km/h (2 Bft) 98,28 %
09.03.2017 00:14 5,1 C 90 % 1018,7 hPa 0,0 l/m 4,9 km/h (1 Bft) S-SW 213 0 min 0,000 mm 0,0 UV-I 0 W/m 3,6 C 5,1 C 9,7 km/h (2 Bft) 95,24 %
09.03.2017 00:16 5,1 C 90 % 1018,7 hPa 0,2 l/m 2,8 km/h (1 Bft) S-SO 149 0 min 0,000 mm 0,0 UV-I 0 W/m 3,6 C 5,1 C 4,8 km/h (1 Bft) 96,00 %
09.03.2017 00:18 5,1 C 90 % 1018,5 hPa 0,0 l/m 2,9 km/h (1 Bft) O-SO 120 0 min 0,000 mm 0,0 UV-I 0 W/m 3,6 C 5,1 C 8,0 km/h (2 Bft) 97,73 %
09.03.2017 00:20 5,0 C 90 % 1018,5 hPa 0,0 l/m 7,7 km/h (2 Bft) SO 127 0 min 0,000 mm 0,0 UV-I 0 W/m 3,5 C 3,9 C 16,1 km/h (3 Bft) 92,00 %
09.03.2017 00:22 4,9 C 91 % 1018,5 hPa 0,0 l/m 4,4 km/h (1 Bft) S-SO 150 0 min 0,000 mm 0,0 UV-I 0 W/m 3,6 C 4,9 C 8,0 km/h (2 Bft) 96,00 %
09.03.2017 00:24 4,9 C 91 % 1018,4 hPa 0,0 l/m 5,2 km/h (1 Bft) S-SO 158 0 min 0,000 mm 0,0 UV-I 0 W/m 3,6 C 4,9 C 11,3 km/h (2 Bft) 94,74 %
09.03.2017 00:26 4,8 C 91 % 1018,4 hPa 0,2 l/m 5,7 km/h (1 Bft) S-SO 158 0 min 0,000 mm 0,0 UV-I 0 W/m 3,5 C 4,8 C 9,7 km/h (2 Bft) 96,00 %
09.03.2017 00:28 4,8 C 92 % 1018,4 hPa 0,0 l/m 2,7 km/h (1 Bft) S-SO 157 0 min 0,000 mm 0,0 UV-I 0 W/m 3,6 C 4,8 C 6,4 km/h (2 Bft) 98,11 %
09.03.2017 00:30 4,8 C 92 % 1018,4 hPa 0,0 l/m 3,4 km/h (1 Bft) S-SO 150 0 min 0,000 mm 0,0 UV-I 0 W/m 3,6 C 4,8 C 6,4 km/h (2 Bft) 97,37 %
09.03.2017 00:32 4,7 C 92 % 1018,4 hPa 0,0 l/m 3,9 km/h (1 Bft) S-SO 149 0 min 0,000 mm 0,0 UV-I 0 W/m 3,5 C 4,7 C 6,4 km/h (2 Bft) 100,00 %
09.03.2017 00:34 4,7 C 92 % 1018,4 hPa 0,0 l/m 5,0 km/h (1 Bft) SO 140 0 min 0,000 mm 0,0 UV-I 0 W/m 3,5 C 4,7 C 9,7 km/h (2 Bft) 97,37 %
09.03.2017 00:36 4,7 C 92 % 1018,4 hPa 0,0 l/m 4,1 km/h (1 Bft) SO 130 0 min 0,000 mm 0,0 UV-I 0 W/m 3,5 C 4,7 C 8,0 km/h (2 Bft) 98,21 %
09.03.2017 00:38 4,7 C 93 % 1018,3 hPa 0,2 l/m 4,6 km/h (1 Bft) SO 128 0 min 0,000 mm 0,0 UV-I 0 W/m 3,7 C 4,7 C 8,0 km/h (2 Bft) 97,14 %
09.03.2017 00:40 4,7 C 93 % 1018,3 hPa 0,0 l/m 5,3 km/h (1 Bft) O-SO 119 0 min 0,000 mm 0,0 UV-I 0 W/m 3,7 C 4,7 C 11,3 km/h (2 Bft) 98,11 %
09.03.2017 00:42 4,7 C 93 % 1018,2 hPa 0,0 l/m 8,4 km/h (2 Bft) SO 135 0 min 0,000 mm 0,0 UV-I 0 W/m 3,7 C 3,0 C 12,9 km/h (3 Bft) 98,00 %
09.03.2017 00:44 4,7 C 93 % 1018,2 hPa 0,2 l/m 7,0 km/h (2 Bft) SO 136 0 min 0,000 mm 0,0 UV-I 0 W/m 3,7 C 4,2 C 12,9 km/h (3 Bft) 100,00 %
09.03.2017 00:46 4,7 C 93 % 1018,2 hPa 0,0 l/m 6,1 km/h (2 Bft) SO 130 0 min 0,000 mm 0,0 UV-I 0 W/m 3,7 C 4,7 C 12,9 km/h (3 Bft) 100,00 %
09.03.2017 00:48 4,7 C 93 % 1018,3 hPa 0,0 l/m 5,4 km/h (1 Bft) SO 131 0 min 0,000 mm 0,0 UV-I 0 W/m 3,7 C 4,7 C 9,7 km/h (2 Bft) 100,00 %
09.03.2017 00:50 4,7 C 93 % 1018,3 hPa 0,0 l/m 5,5 km/h (1 Bft) SO 136 0 min 0,000 mm 0,0 UV-I 0 W/m 3,7 C 4,7 C 11,3 km/h (2 Bft) 95,12 %
09.03.2017 00:52 4,7 C 93 % 1018,3 hPa 0,0 l/m 4,7 km/h (1 Bft) SO 137 0 min 0,000 mm 0,0 UV-I 0 W/m 3,7 C 4,7 C 6,4 km/h (2 Bft) 98,21 %
09.03.2017 00:54 4,7 C 93 % 1018,4 hPa 0,2 l/m 1,9 km/h (1 Bft) SO 144 0 min 0,000 mm 0,0 UV-I 0 W/m 3,7 C 4,7 C 3,2 km/h (1 Bft) 97,22 %
09.03.2017 00:56 4,7 C 93 % 1018,5 hPa 0,0 l/m 2,4 km/h (1 Bft) S-SO 157 0 min 0,000 mm 0,0 UV-I 0 W/m 3,7 C 4,7 C 4,8 km/h (1 Bft) 98,21 %
09.03.2017 00:58 4,7 C 93 % 1018,3 hPa 0,2 l/m 4,1 km/h (1 Bft) O-SO 121 0 min 0,000 mm 0,0 UV-I 0 W/m 3,7 C 4,7 C 6,4 km/h (2 Bft) 95,74 %
09.03.2017 01:00 4,7 C 93 % 1018,3 hPa 0,0 l/m 3,6 km/h (1 Bft) S-SO 157 0 min 0,000 mm 0,0 UV-I 0 W/m 3,7 C 4,7 C 8,0 km/h (2 Bft) 100,00 %
09.03.2017 01:02 4,7 C 93 % 1018,4 hPa 0,2 l/m 2,0 km/h (1 Bft) O-SO 120 0 min 0,000 mm 0,0 UV-I 0 W/m 3,7 C 4,7 C 4,8 km/h (1 Bft) 97,56 %
09.03.2017 01:04 4,7 C 93 % 1018,3 hPa 0,2 l/m 1,3 km/h (1 Bft) O-SO 120 0 min 0,000 mm 0,0 UV-I 0 W/m 3,7 C 4,7 C 4,8 km/h (1 Bft) 98,21 %
09.03.2017 01:06 4,7 C 93 % 1018,2 hPa 0,0 l/m 3,2 km/h (1 Bft) O-SO 110 0 min 0,000 mm 0,0 UV-I 0 W/m 3,7 C 4,7 C 4,8 km/h (1 Bft) 100,00 %
09.03.2017 01:08 4,7 C 93 % 1018,2 hPa 0,2 l/m 5,5 km/h (1 Bft) O 90 0 min 0,000 mm 0,0 UV-I 0 W/m 3,7 C 4,7 C 11,3 km/h (2 Bft) 98,21 %
09.03.2017 01:10 4,7 C 93 % 1018,2 hPa 0,0 l/m 7,0 km/h (2 Bft) O 86 0 min 0,000 mm 0,0 UV-I 0 W/m 3,7 C 4,2 C 11,3 km/h (2 Bft) 94,74 %
09.03.2017 01:12 4,7 C 93 % 1018,2 hPa 0,2 l/m 4,2 km/h (1 Bft) NO 51 0 min 0,000 mm 0,0 UV-I 0 W/m 3,7 C 4,7 C 6,4 km/h (2 Bft) 95,74 %
09.03.2017 01:14 4,7 C 93 % 1018,2 hPa 0,0 l/m 3,7 km/h (1 Bft) NO 45 0 min 0,000 mm 0,0 UV-I 0 W/m 3,7 C 4,7 C 6,4 km/h (2 Bft) 100,00 %
09.03.2017 01:16 4,7 C 93 % 1018,2 hPa 0,0 l/m 2,3 km/h (1 Bft) NO 45 0 min 0,000 mm 0,0 UV-I 0 W/m 3,7 C 4,7 C 3,2 km/h (1 Bft) 98,11 %
09.03.2017 01:18 4,7 C 93 % 1018,2 hPa 0,0 l/m 4,4 km/h (1 Bft) NO 53 0 min 0,000 mm 0,0 UV-I 0 W/m 3,7 C 4,7 C 6,4 km/h (2 Bft) 97,37 %
09.03.2017 01:20 4,7 C 94 % 1018,2 hPa 0,2 l/m 3,1 km/h (1 Bft) NO 53 0 min 0,000 mm 0,0 UV-I 0 W/m 3,8 C 4,7 C 4,8 km/h (1 Bft) 98,00 %
09.03.2017 01:22 4,7 C 94 % 1018,2 hPa 0,0 l/m 5,4 km/h (1 Bft) O-NO 71 0 min 0,000 mm 0,0 UV-I 0 W/m 3,8 C 4,7 C 6,4 km/h (2 Bft) 95,74 %
09.03.2017 01:24 4,7 C 94 % 1018,2 hPa 0,2 l/m 6,1 km/h (2 Bft) O 94 0 min 0,000 mm 0,0 UV-I 0 W/m 3,8 C 4,7 C 8,0 km/h (2 Bft) 97,56 %
09.03.2017 01:26 4,7 C 94 % 1018,0 hPa 0,2 l/m 6,8 km/h (2 Bft) O-SO 109 0 min 0,000 mm 0,0 UV-I 0 W/m 3,8 C 4,4 C 11,3 km/h (2 Bft) 94,12 %
09.03.2017 01:28 4,7 C 94 % 1018,0 hPa 0,2 l/m 4,2 km/h (1 Bft) O 83 0 min 0,000 mm 0,0 UV-I 0 W/m 3,8 C 4,7 C 8,0 km/h (2 Bft) 96,23 %
09.03.2017 01:30 4,6 C 94 % 1018,1 hPa 0,0 l/m 3,6 km/h (1 Bft) NO 49 0 min 0,000 mm 0,0 UV-I 0 W/m 3,7 C 4,6 C 6,4 km/h (2 Bft) 95,74 %
09.03.2017 01:32 4,6 C 94 % 1018,0 hPa 0,0 l/m 5,5 km/h (1 Bft) NO 53 0 min 0,000 mm 0,0 UV-I 0 W/m 3,7 C 4,6 C 8,0 km/h (2 Bft) 95,24 %
09.03.2017 01:34 4,6 C 94 % 1017,9 hPa 0,0 l/m 4,9 km/h (1 Bft) O-NO 60 0 min 0,000 mm 0,0 UV-I 0 W/m 3,7 C 4,6 C 9,7 km/h (2 Bft) 96,00 %
09.03.2017 01:36 4,6 C 94 % 1017,9 hPa 0,0 l/m 5,4 km/h (1 Bft) O-NO 67 0 min 0,000 mm 0,0 UV-I 0 W/m 3,7 C 4,6 C 9,7 km/h (2 Bft) 97,96 %
09.03.2017 01:38 4,6 C 94 % 1017,9 hPa 0,0 l/m 5,5 km/h (1 Bft) O-SO 103 0 min 0,000 mm 0,0 UV-I 0 W/m 3,7 C 4,6 C 11,3 km/h (2 Bft) 97,78 %
09.03.2017 01:40 4,5 C 94 % 1017,9 hPa 0,0 l/m 5,3 km/h (1 Bft) O-SO 113 0 min 0,000 mm 0,0 UV-I 0 W/m 3,6 C 4,5 C 9,7 km/h (2 Bft) 95,12 %
09.03.2017 01:42 4,5 C 94 % 1017,9 hPa 0,0 l/m 3,3 km/h (1 Bft) O-SO 113 0 min 0,000 mm 0,0 UV-I 0 W/m 3,6 C 4,5 C 4,8 km/h (1 Bft) 98,11 %
09.03.2017 01:44 4,4 C 94 % 1018,0 hPa 0,0 l/m 2,9 km/h (1 Bft) O-SO 104 0 min 0,000 mm 0,0 UV-I 0 W/m 3,5 C 4,4 C 4,8 km/h (1 Bft) 94,74 %
09.03.2017 01:46 4,4 C 94 % 1018,1 hPa 0,0 l/m 2,0 km/h (1 Bft) NO 47 0 min 0,000 mm 0,0 UV-I 0 W/m 3,5 C 4,4 C 4,8 km/h (1 Bft) 97,87 %
09.03.2017 01:48 4,4 C 94 % 1018,1 hPa 0,2 l/m 0,4 km/h (0 Bft) NO 47 0 min 0,000 mm 0,0 UV-I 0 W/m 3,5 C 4,4 C 3,2 km/h (1 Bft) 96,00 %
09.03.2017 01:50 4,5 C 94 % 1018,1 hPa 0,0 l/m 0,4 km/h (0 Bft) NO 47 0 min 0,000 mm 0,0 UV-I 0 W/m 3,6 C 4,5 C 1,6 km/h (1 Bft) 94,00 %
09.03.2017 01:52 4,5 C 94 % 1018,0 hPa 0,0 l/m 0,2 km/h (0 Bft) NO 47 0 min 0,000 mm 0,0 UV-I 0 W/m 3,6 C 4,5 C 3,2 km/h (1 Bft) 93,62 %
09.03.2017 01:54 4,5 C 95 % 1018,0 hPa 0,0 l/m 2,5 km/h (1 Bft) O-NO 57 0 min 0,000 mm 0,0 UV-I 0 W/m 3,8 C 4,5 C 4,8 km/h (1 Bft) 96,00 %
09.03.2017 01:56 4,5 C 95 % 1018,0 hPa 0,0 l/m 2,4 km/h (1 Bft) O-NO 57 0 min 0,000 mm 0,0 UV-I 0 W/m 3,8 C 4,5 C 4,8 km/h (1 Bft) 97,87 %
09.03.2017 01:58 4,4 C 95 % 1018,0 hPa 0,0 l/m 0,9 km/h (0 Bft) O-NO 57 0 min 0,000 mm 0,0 UV-I 0 W/m 3,7 C 4,4 C 3,2 km/h (1 Bft) 97,87 %
09.03.2017 02:00 4,4 C 95 % 1018,0 hPa 0,0 l/m 0,2 km/h (0 Bft) O-NO 57 0 min 0,000 mm 0,0 UV-I 0 W/m 3,7 C 4,4 C 1,6 km/h (1 Bft) 100,00 %
09.03.2017 02:02 4,4 C 95 % 1017,9 hPa 0,0 l/m 0,1 km/h (0 Bft) O-NO 57 0 min 0,000 mm 0,0 UV-I 0 W/m 3,7 C 4,4 C 1,6 km/h (1 Bft) 100,00 %
09.03.2017 02:04 4,4 C 95 % 1017,9 hPa 0,2 l/m 0,3 km/h (0 Bft) O-NO 57 0 min 0,000 mm 0,0 UV-I 0 W/m 3,7 C 4,4 C 1,6 km/h (1 Bft) 98,00 %
09.03.2017 02:06 4,4 C 95 % 1017,9 hPa 0,0 l/m 1,9 km/h (1 Bft) O-NO 57 0 min 0,000 mm 0,0 UV-I 0 W/m 3,7 C 4,4 C 3,2 km/h (1 Bft) 100,00 %
09.03.2017 02:08 4,4 C 95 % 1017,9 hPa 0,0 l/m 3,0 km/h (1 Bft) O-NO 57 0 min 0,000 mm 0,0 UV-I 0 W/m 3,7 C 4,4 C 4,8 km/h (1 Bft) 98,00 %
09.03.2017 02:10 4,4 C 95 % 1017,9 hPa 0,0 l/m 0,2 km/h (0 Bft) O-NO 57 0 min 0,000 mm 0,0 UV-I 0 W/m 3,7 C 4,4 C 1,6 km/h (1 Bft) 100,00 %
09.03.2017 02:12 4,4 C 95 % 1017,8 hPa 0,0 l/m 0,8 km/h (0 Bft) O 82 0 min 0,000 mm 0,0 UV-I 0 W/m 3,7 C 4,4 C 1,6 km/h (1 Bft) 97,62 %
09.03.2017 02:14 4,4 C 95 % 1017,8 hPa 0,0 l/m 2,0 km/h (1 Bft) O-SO 121 0 min 0,000 mm 0,0 UV-I 0 W/m 3,7 C 4,4 C 3,2 km/h (1 Bft) 98,11 %
09.03.2017 02:16 4,4 C 95 % 1017,8 hPa 0,2 l/m 0,3 km/h (0 Bft) O-SO 121 0 min 0,000 mm 0,0 UV-I 0 W/m 3,7 C 4,4 C 1,6 km/h (1 Bft) 95,45 %
09.03.2017 02:18 4,4 C 95 % 1017,8 hPa 0,0 l/m 0,0 km/h (0 Bft) O-SO 121 0 min 0,000 mm 0,0 UV-I 0 W/m 3,7 C 4,4 C 1,6 km/h (1 Bft) 100,00 %
09.03.2017 02:20 4,4 C 95 % 1017,7 hPa 0,2 l/m 0,0 km/h (0 Bft) O-SO 121 0 min 0,000 mm 0,0 UV-I 0 W/m 3,7 C 4,4 C 0,0 km/h (0 Bft) 97,56 %
09.03.2017 02:22 4,4 C 95 % 1017,8 hPa 0,0 l/m 0,0 km/h (0 Bft) O-SO 121 0 min 0,000 mm 0,0 UV-I 0 W/m 3,7 C 4,4 C 0,0 km/h (0 Bft) 97,87 %
09.03.2017 02:24 4,4 C 95 % 1017,7 hPa 0,0 l/m 0,0 km/h (0 Bft) O-SO 121 0 min 0,000 mm 0,0 UV-I 0 W/m 3,7 C 4,4 C 0,0 km/h (0 Bft) 100,00 %
09.03.2017 02:26 4,4 C 95 % 1017,7 hPa 0,2 l/m 0,0 km/h (0 Bft) O-SO 121 0 min 0,000 mm 0,0 UV-I 0 W/m 3,7 C 4,4 C 0,0 km/h (0 Bft) 98,00 %
09.03.2017 02:28 4,4 C 95 % 1017,7 hPa 0,0 l/m 0,3 km/h (0 Bft) O-SO 121 0 min 0,000 mm 0,0 UV-I 0 W/m 3,7 C 4,4 C 1,6 km/h (1 Bft) 97,37 %
09.03.2017 02:30 4,4 C 95 % 1017,7 hPa 0,2 l/m 1,8 km/h (1 Bft) O-SO 121 0 min 0,000 mm 0,0 UV-I 0 W/m 3,7 C 4,4 C 3,2 km/h (1 Bft) 98,00 %
09.03.2017 02:32 4,4 C 96 % 1017,6 hPa 0,0 l/m 0,4 km/h (0 Bft) O-SO 121 0 min 0,000 mm 0,0 UV-I 0 W/m 3,8 C 4,4 C 3,2 km/h (1 Bft) 98,00 %
09.03.2017 02:34 4,4 C 96 % 1017,5 hPa 0,0 l/m 1,6 km/h (1 Bft) O-SO 121 0 min 0,000 mm 0,0 UV-I 0 W/m 3,8 C 4,4 C 3,2 km/h (1 Bft) 97,87 %
09.03.2017 02:36 4,4 C 95 % 1017,5 hPa 0,2 l/m 3,9 km/h (1 Bft) O-SO 121 0 min 0,000 mm 0,0 UV-I 0 W/m 3,7 C 4,4 C 6,4 km/h (2 Bft) 96,00 %
09.03.2017 02:38 4,4 C 95 % 1017,4 hPa 0,0 l/m 4,6 km/h (1 Bft) O-SO 121 0 min 0,000 mm 0,0 UV-I 0 W/m 3,7 C 4,4 C 6,4 km/h (2 Bft) 100,00 %
09.03.2017 02:40 4,4 C 95 % 1017,4 hPa 0,2 l/m 5,3 km/h (1 Bft) SO 126 0 min 0,000 mm 0,0 UV-I 0 W/m 3,7 C 4,4 C 6,4 km/h (2 Bft) 95,74 %
09.03.2017 02:42 4,4 C 96 % 1017,4 hPa 0,0 l/m 4,9 km/h (1 Bft) O-SO 117 0 min 0,000 mm 0,0 UV-I 0 W/m 3,8 C 4,4 C 6,4 km/h (2 Bft) 98,00 %
09.03.2017 02:44 4,4 C 96 % 1017,4 hPa 0,0 l/m 3,2 km/h (1 Bft) O-SO 123 0 min 0,000 mm 0,0 UV-I 0 W/m 3,8 C 4,4 C 6,4 km/h (2 Bft) 95,74 %
09.03.2017 02:46 4,4 C 96 % 1017,4 hPa 0,0 l/m 0,8 km/h (0 Bft) O-SO 123 0 min 0,000 mm 0,0 UV-I 0 W/m 3,8 C 4,4 C 3,2 km/h (1 Bft) 98,11 %
09.03.2017 02:48 4,4 C 96 % 1017,4 hPa 0,0 l/m 0,2 km/h (0 Bft) O-SO 123 0 min 0,000 mm 0,0 UV-I 0 W/m 3,8 C 4,4 C 1,6 km/h (1 Bft) 100,00 %
09.03.2017 02:50 4,4 C 96 % 1017,4 hPa 0,0 l/m 0,2 km/h (0 Bft) O-SO 123 0 min 0,000 mm 0,0 UV-I 0 W/m 3,8 C 4,4 C 1,6 km/h (1 Bft) 100,00 %
09.03.2017 02:52 4,4 C 96 % 1017,3 hPa 0,0 l/m 0,0 km/h (0 Bft) O-SO 123 0 min 0,000 mm 0,0 UV-I 0 W/m 3,8 C 4,4 C 0,0 km/h (0 Bft) 100,00 %
09.03.2017 02:54 4,5 C 96 % 1017,4 hPa 0,0 l/m 0,0 km/h (0 Bft) O-SO 123 0 min 0,000 mm 0,0 UV-I 0 W/m 3,9 C 4,5 C 0,0 km/h (0 Bft) 100,00 %
09.03.2017 02:56 4,5 C 96 % 1017,3 hPa 0,0 l/m 0,2 km/h (0 Bft) O-SO 123 0 min 0,000 mm 0,0 UV-I 0 W/m 3,9 C 4,5 C 1,6 km/h (1 Bft) 100,00 %
09.03.2017 02:58 4,5 C 96 % 1017,3 hPa 0,0 l/m 0,3 km/h (0 Bft) O-SO 123 0 min 0,000 mm 0,0 UV-I 0 W/m 3,9 C 4,5 C 1,6 km/h (1 Bft) 100,00 %
09.03.2017 03:00 4,5 C 96 % 1017,3 hPa 0,0 l/m 0,2 km/h (0 Bft) O-SO 123 0 min 0,000 mm 0,0 UV-I 0 W/m 3,9 C 4,5 C 1,6 km/h (1 Bft) 96,15 %
09.03.2017 03:02 4,5 C 96 % 1017,3 hPa 0,2 l/m 0,8 km/h (0 Bft) O-SO 123 0 min 0,000 mm 0,0 UV-I 0 W/m 3,9 C 4,5 C 1,6 km/h (1 Bft) 97,06 %
09.03.2017 03:04 4,5 C 96 % 1017,3 hPa 0,0 l/m 0,8 km/h (0 Bft) O-SO 123 0 min 0,000 mm 0,0 UV-I 0 W/m 3,9 C 4,5 C 1,6 km/h (1 Bft) 98,11 %
09.03.2017 03:06 4,6 C 96 % 1017,2 hPa 0,0 l/m 0,0 km/h (0 Bft) O-SO 123 0 min 0,000 mm 0,0 UV-I 0 W/m 4,0 C 4,6 C 0,0 km/h (0 Bft) 97,56 %
09.03.2017 03:08 4,6 C 96 % 1017,2 hPa 0,0 l/m 0,8 km/h (0 Bft) O-SO 123 0 min 0,000 mm 0,0 UV-I 0 W/m 4,0 C 4,6 C 3,2 km/h (1 Bft) 100,00 %
09.03.2017 03:10 4,6 C 96 % 1017,2 hPa 0,0 l/m 1,6 km/h (1 Bft) O-SO 123 0 min 0,000 mm 0,0 UV-I 0 W/m 4,0 C 4,6 C 3,2 km/h (1 Bft) 98,00 %
09.03.2017 03:12 4,6 C 96 % 1017,2 hPa 0,0 l/m 1,1 km/h (1 Bft) O-SO 123 0 min 0,000 mm 0,0 UV-I 0 W/m 4,0 C 4,6 C 3,2 km/h (1 Bft) 97,78 %
09.03.2017 03:14 4,7 C 96 % 1017,2 hPa 0,0 l/m 1,3 km/h (1 Bft) O-SO 123 0 min 0,000 mm 0,0 UV-I 0 W/m 4,1 C 4,7 C 3,2 km/h (1 Bft) 100,00 %
09.03.2017 03:16 4,7 C 96 % 1017,1 hPa 0,2 l/m 1,6 km/h (1 Bft) O-SO 123 0 min 0,000 mm 0,0 UV-I 0 W/m 4,1 C 4,7 C 3,2 km/h (1 Bft) 97,56 %
09.03.2017 03:18 4,7 C 96 % 1017,1 hPa 0,0 l/m 1,5 km/h (1 Bft) O-SO 123 0 min 0,000 mm 0,0 UV-I 0 W/m 4,1 C 4,7 C 3,2 km/h (1 Bft) 98,11 %
09.03.2017 03:20 4,8 C 96 % 1017,1 hPa 0,0 l/m 2,1 km/h (1 Bft) SO 141 0 min 0,000 mm 0,0 UV-I 0 W/m 4,2 C 4,8 C 4,8 km/h (1 Bft) 97,37 %
09.03.2017 03:22 4,8 C 96 % 1017,1 hPa 0,0 l/m 2,9 km/h (1 Bft) SO 142 0 min 0,000 mm 0,0 UV-I 0 W/m 4,2 C 4,8 C 4,8 km/h (1 Bft) 100,00 %
09.03.2017 03:24 4,9 C 96 % 1017,1 hPa 0,0 l/m 1,6 km/h (1 Bft) SO 141 0 min 0,000 mm 0,0 UV-I 0 W/m 4,3 C 4,9 C 3,2 km/h (1 Bft) 97,37 %
09.03.2017 03:26 4,9 C 96 % 1017,1 hPa 0,0 l/m 2,1 km/h (1 Bft) SO 142 0 min 0,000 mm 0,0 UV-I 0 W/m 4,3 C 4,9 C 4,8 km/h (1 Bft) 95,12 %
09.03.2017 03:28 4,9 C 96 % 1017,1 hPa 0,0 l/m 0,8 km/h (0 Bft) SO 142 0 min 0,000 mm 0,0 UV-I 0 W/m 4,3 C 4,9 C 3,2 km/h (1 Bft) 96,00 %
09.03.2017 03:30 4,9 C 96 % 1017,1 hPa 0,0 l/m 2,8 km/h (1 Bft) SO 143 0 min 0,000 mm 0,0 UV-I 0 W/m 4,3 C 4,9 C 4,8 km/h (1 Bft) 95,24 %
09.03.2017 03:32 5,0 C 96 % 1017,1 hPa 0,2 l/m 2,2 km/h (1 Bft) SO 143 0 min 0,000 mm 0,0 UV-I 0 W/m 4,4 C 5,0 C 4,8 km/h (1 Bft) 96,23 %
09.03.2017 03:34 5,0 C 97 % 1017,2 hPa 0,0 l/m 1,7 km/h (1 Bft) SO 143 0 min 0,000 mm 0,0 UV-I 0 W/m 4,6 C 5,0 C 3,2 km/h (1 Bft) 93,18 %
09.03.2017 03:36 5,1 C 97 % 1017,2 hPa 0,2 l/m 2,6 km/h (1 Bft) S-SO 161 0 min 0,000 mm 0,0 UV-I 0 W/m 4,7 C 5,1 C 6,4 km/h (2 Bft) 91,07 %
09.03.2017 03:38 5,1 C 97 % 1017,2 hPa 0,0 l/m 3,0 km/h (1 Bft) S-SO 168 0 min 0,000 mm 0,0 UV-I 0 W/m 4,7 C 5,1 C 6,4 km/h (2 Bft) 94,29 %
09.03.2017 03:40 5,1 C 97 % 1017,2 hPa 0,0 l/m 1,2 km/h (1 Bft) S-SO 168 0 min 0,000 mm 0,0 UV-I 0 W/m 4,7 C 5,1 C 3,2 km/h (1 Bft) 94,00 %
09.03.2017 03:42 5,1 C 97 % 1017,2 hPa 0,0 l/m 0,1 km/h (0 Bft) S-SO 168 0 min 0,000 mm 0,0 UV-I 0 W/m 4,7 C 5,1 C 1,6 km/h (1 Bft) 94,00 %
09.03.2017 03:44 5,1 C 97 % 1017,3 hPa 0,0 l/m 0,5 km/h (0 Bft) S-SO 168 0 min 0,000 mm 0,0 UV-I 0 W/m 4,7 C 5,1 C 1,6 km/h (1 Bft) 95,74 %
09.03.2017 03:46 5,1 C 97 % 1017,3 hPa 0,2 l/m 2,7 km/h (1 Bft) SW 220 0 min 0,000 mm 0,0 UV-I 0 W/m 4,7 C 5,1 C 6,4 km/h (2 Bft) 95,45 %
09.03.2017 03:48 5,2 C 97 % 1017,3 hPa 0,0 l/m 1,8 km/h (1 Bft) SW 220 0 min 0,000 mm 0,0 UV-I 0 W/m 4,8 C 5,2 C 3,2 km/h (1 Bft) 95,45 %
09.03.2017 03:50 5,2 C 97 % 1017,3 hPa 0,0 l/m 2,5 km/h (1 Bft) SW 223 0 min 0,000 mm 0,0 UV-I 0 W/m 4,8 C 5,2 C 4,8 km/h (1 Bft) 96,00 %
09.03.2017 03:52 5,3 C 97 % 1017,4 hPa 0,0 l/m 3,3 km/h (1 Bft) W-SW 248 0 min 0,000 mm 0,0 UV-I 0 W/m 4,9 C 5,3 C 6,4 km/h (2 Bft) 94,34 %
09.03.2017 03:54 5,3 C 97 % 1017,4 hPa 0,0 l/m 3,5 km/h (1 Bft) W-SW 248 0 min 0,000 mm 0,0 UV-I 0 W/m 4,9 C 5,3 C 4,8 km/h (1 Bft) 93,62 %
09.03.2017 03:56 5,4 C 97 % 1017,4 hPa 0,0 l/m 5,1 km/h (1 Bft) W 266 0 min 0,000 mm 0,0 UV-I 0 W/m 5,0 C 5,4 C 8,0 km/h (2 Bft) 93,18 %
09.03.2017 03:58 5,5 C 97 % 1017,4 hPa 0,0 l/m 3,8 km/h (1 Bft) W 267 0 min 0,000 mm 0,0 UV-I 0 W/m 5,1 C 5,5 C 6,4 km/h (2 Bft) 92,00 %
09.03.2017 04:00 5,6 C 97 % 1017,5 hPa 0,2 l/m 4,3 km/h (1 Bft) W-SW 249 0 min 0,000 mm 0,0 UV-I 0 W/m 5,2 C 5,6 C 6,4 km/h (2 Bft) 95,45 %
09.03.2017 04:02 5,6 C 97 % 1017,5 hPa 0,0 l/m 4,4 km/h (1 Bft) W-SW 258 0 min 0,000 mm 0,0 UV-I 0 W/m 5,2 C 5,6 C 6,4 km/h (2 Bft) 92,00 %
09.03.2017 04:04 5,6 C 97 % 1017,4 hPa 0,0 l/m 4,5 km/h (1 Bft) W-SW 248 0 min 0,000 mm 0,0 UV-I 0 W/m 5,2 C 5,6 C 6,4 km/h (2 Bft) 97,73 %
09.03.2017 04:06 5,6 C 97 % 1017,5 hPa 0,0 l/m 4,3 km/h (1 Bft) W-SW 240 0 min 0,000 mm 0,0 UV-I 0 W/m 5,2 C 5,6 C 6,4 km/h (2 Bft) 96,00 %
09.03.2017 04:08 5,6 C 97 % 1017,4 hPa 0,0 l/m 5,1 km/h (1 Bft) W-SW 237 0 min 0,000 mm 0,0 UV-I 0 W/m 5,2 C 5,6 C 6,4 km/h (2 Bft) 96,00 %
09.03.2017 04:10 5,6 C 97 % 1017,5 hPa 0,0 l/m 4,9 km/h (1 Bft) W-SW 238 0 min 0,000 mm 0,0 UV-I 0 W/m 5,2 C 5,6 C 8,0 km/h (2 Bft) 97,44 %
09.03.2017 04:12 5,7 C 97 % 1017,5 hPa 0,0 l/m 3,9 km/h (1 Bft) W-SW 238 0 min 0,000 mm 0,0 UV-I 0 W/m 5,3 C 5,7 C 6,4 km/h (2 Bft) 94,55 %
09.03.2017 04:14 5,7 C 97 % 1017,5 hPa 0,0 l/m 3,3 km/h (1 Bft) W-SW 250 0 min 0,000 mm 0,0 UV-I 0 W/m 5,3 C 5,7 C 4,8 km/h (1 Bft) 97,62 %
09.03.2017 04:16 5,7 C 97 % 1017,5 hPa 0,0 l/m 3,7 km/h (1 Bft) W-SW 254 0 min 0,000 mm 0,0 UV-I 0 W/m 5,3 C 5,7 C 4,8 km/h (1 Bft) 94,00 %
09.03.2017 04:18 5,7 C 97 % 1017,5 hPa 0,0 l/m 3,8 km/h (1 Bft) W-SW 254 0 min 0,000 mm 0,0 UV-I 0 W/m 5,3 C 5,7 C 4,8 km/h (1 Bft) 97,56 %
09.03.2017 04:20 5,7 C 97 % 1017,6 hPa 0,0 l/m 3,6 km/h (1 Bft) W-SW 254 0 min 0,000 mm 0,0 UV-I 0 W/m 5,3 C 5,7 C 4,8 km/h (1 Bft) 96,00 %
09.03.2017 04:22 5,7 C 97 % 1017,7 hPa 0,0 l/m 4,1 km/h (1 Bft) W-SW 248 0 min 0,000 mm 0,0 UV-I 0 W/m 5,3 C 5,7 C 6,4 km/h (2 Bft) 93,62 %
09.03.2017 04:24 5,7 C 97 % 1017,6 hPa 0,2 l/m 2,7 km/h (1 Bft) W-SW 254 0 min 0,000 mm 0,0 UV-I 0 W/m 5,3 C 5,7 C 4,8 km/h (1 Bft) 97,87 %
09.03.2017 04:26 5,8 C 97 % 1017,7 hPa 0,0 l/m 4,6 km/h (1 Bft) W 265 0 min 0,000 mm 0,0 UV-I 0 W/m 5,4 C 5,8 C 6,4 km/h (2 Bft) 96,00 %
09.03.2017 04:28 5,8 C 97 % 1017,7 hPa 0,0 l/m 5,0 km/h (1 Bft) W-SW 256 0 min 0,000 mm 0,0 UV-I 0 W/m 5,4 C 5,8 C 8,0 km/h (2 Bft) 97,56 %
09.03.2017 04:30 5,8 C 97 % 1017,7 hPa 0,0 l/m 3,9 km/h (1 Bft) W 266 0 min 0,000 mm 0,0 UV-I 0 W/m 5,4 C 5,8 C 4,8 km/h (1 Bft) 94,34 %
09.03.2017 04:32 5,8 C 97 % 1017,6 hPa 0,0 l/m 4,7 km/h (1 Bft) W-SW 248 0 min 0,000 mm 0,0 UV-I 0 W/m 5,4 C 5,8 C 6,4 km/h (2 Bft) 95,45 %
09.03.2017 04:34 5,8 C 97 % 1017,7 hPa 0,0 l/m 4,8 km/h (1 Bft) W-SW 254 0 min 0,000 mm 0,0 UV-I 0 W/m 5,4 C 5,8 C 8,0 km/h (2 Bft) 95,74 %
09.03.2017 04:36 5,9 C 97 % 1017,7 hPa 0,2 l/m 4,8 km/h (1 Bft) W 266 0 min 0,000 mm 0,0 UV-I 0 W/m 5,5 C 5,9 C 9,7 km/h (2 Bft) 97,73 %
09.03.2017 04:38 5,9 C 97 % 1017,7 hPa 0,0 l/m 2,6 km/h (1 Bft) W 266 0 min 0,000 mm 0,0 UV-I 0 W/m 5,5 C 5,9 C 4,8 km/h (1 Bft) 98,00 %
09.03.2017 04:40 5,9 C 97 % 1017,7 hPa 0,0 l/m 3,7 km/h (1 Bft) W-SW 248 0 min 0,000 mm 0,0 UV-I 0 W/m 5,5 C 5,9 C 6,4 km/h (2 Bft) 95,74 %
09.03.2017 04:42 5,9 C 97 % 1017,7 hPa 0,0 l/m 3,3 km/h (1 Bft) W-SW 256 0 min 0,000 mm 0,0 UV-I 0 W/m 5,5 C 5,9 C 4,8 km/h (1 Bft) 100,00 %
09.03.2017 04:44 5,9 C 97 % 1017,7 hPa 0,0 l/m 3,5 km/h (1 Bft) W-SW 256 0 min 0,000 mm 0,0 UV-I 0 W/m 5,5 C 5,9 C 6,4 km/h (2 Bft) 100,00 %
09.03.2017 04:46 5,9 C 97 % 1017,7 hPa 0,0 l/m 3,5 km/h (1 Bft) W-SW 256 0 min 0,000 mm 0,0 UV-I 0 W/m 5,5 C 5,9 C 4,8 km/h (1 Bft) 96,43 %
09.03.2017 04:48 6,0 C 97 % 1017,8 hPa 0,0 l/m 2,2 km/h (1 Bft) W-SW 249 0 min 0,000 mm 0,0 UV-I 0 W/m 5,6 C 6,0 C 3,2 km/h (1 Bft) 97,87 %
09.03.2017 04:50 6,0 C 97 % 1017,7 hPa 0,0 l/m 1,6 km/h (1 Bft) SW 227 0 min 0,000 mm 0,0 UV-I 0 W/m 5,6 C 6,0 C 3,2 km/h (1 Bft) 97,87 %
09.03.2017 04:52 6,0 C 97 % 1017,8 hPa 0,0 l/m 1,1 km/h (1 Bft) SW 227 0 min 0,000 mm 0,0 UV-I 0 W/m 5,6 C 6,0 C 3,2 km/h (1 Bft) 94,87 %
09.03.2017 04:54 5,9 C 97 % 1017,8 hPa 0,0 l/m 0,8 km/h (0 Bft) SW 227 0 min 0,000 mm 0,0 UV-I 0 W/m 5,5 C 5,9 C 3,2 km/h (1 Bft) 93,62 %
09.03.2017 04:56 5,9 C 97 % 1017,8 hPa 0,0 l/m 3,3 km/h (1 Bft) W 263 0 min 0,000 mm 0,0 UV-I 0 W/m 5,5 C 5,9 C 4,8 km/h (1 Bft) 96,23 %
09.03.2017 04:58 6,0 C 97 % 1017,8 hPa 0,0 l/m 3,7 km/h (1 Bft) W-SW 247 0 min 0,000 mm 0,0 UV-I 0 W/m 5,6 C 6,0 C 6,4 km/h (2 Bft) 95,74 %
09.03.2017 05:00 6,0 C 97 % 1017,8 hPa 0,0 l/m 3,8 km/h (1 Bft) W-SW 238 0 min 0,000 mm 0,0 UV-I 0 W/m 5,6 C 6,0 C 6,4 km/h (2 Bft) 95,56 %
09.03.2017 05:02 6,1 C 97 % 1017,8 hPa 0,0 l/m 3,9 km/h (1 Bft) W-SW 238 0 min 0,000 mm 0,0 UV-I 0 W/m 5,7 C 6,1 C 4,8 km/h (1 Bft) 97,37 %
09.03.2017 05:04 6,0 C 97 % 1017,8 hPa 0,2 l/m 3,3 km/h (1 Bft) SW 229 0 min 0,000 mm 0,0 UV-I 0 W/m 5,6 C 6,0 C 6,4 km/h (2 Bft) 98,11 %
09.03.2017 05:06 6,1 C 97 % 1017,7 hPa 0,0 l/m 4,7 km/h (1 Bft) S-SW 212 0 min 0,000 mm 0,0 UV-I 0 W/m 5,7 C 6,1 C 6,4 km/h (2 Bft) 98,11 %
09.03.2017 05:08 6,1 C 97 % 1017,7 hPa 0,0 l/m 5,2 km/h (1 Bft) SW 225 0 min 0,000 mm 0,0 UV-I 0 W/m 5,7 C 6,1 C 8,0 km/h (2 Bft) 97,56 %
09.03.2017 05:10 6,2 C 97 % 1017,7 hPa 0,0 l/m 5,9 km/h (2 Bft) SW 225 0 min 0,000 mm 0,0 UV-I 0 W/m 5,8 C 6,2 C 8,0 km/h (2 Bft) 100,00 %
09.03.2017 05:12 6,2 C 97 % 1017,8 hPa 0,0 l/m 4,9 km/h (1 Bft) W 263 0 min 0,000 mm 0,0 UV-I 0 W/m 5,8 C 6,2 C 8,0 km/h (2 Bft) 97,73 %
09.03.2017 05:14 6,3 C 97 % 1017,7 hPa 0,0 l/m 5,6 km/h (1 Bft) SW 223 0 min 0,000 mm 0,0 UV-I 0 W/m 5,9 C 6,3 C 9,7 km/h (2 Bft) 98,00 %
09.03.2017 05:16 6,3 C 97 % 1017,7 hPa 0,0 l/m 4,7 km/h (1 Bft) SW 219 0 min 0,000 mm 0,0 UV-I 0 W/m 5,9 C 6,3 C 8,0 km/h (2 Bft) 100,00 %
09.03.2017 05:19 6,3 C 97 % 1017,7 hPa 0,0 l/m 5,5 km/h (1 Bft) W-SW 243 0 min 0,000 mm 0,0 UV-I 0 W/m 5,9 C 6,3 C 8,0 km/h (2 Bft) 100,00 %
09.03.2017 05:20 6,3 C 97 % 1017,7 hPa 0,0 l/m 6,0 km/h (2 Bft) SW 226 0 min 0,000 mm 0,0 UV-I 0 W/m 5,9 C 6,3 C 8,0 km/h (2 Bft) 95,65 %
09.03.2017 05:22 6,4 C 97 % 1017,8 hPa 0,0 l/m 6,1 km/h (2 Bft) SW 227 0 min 0,000 mm 0,0 UV-I 0 W/m 6,0 C 6,4 C 9,7 km/h (2 Bft) 100,00 %
09.03.2017 05:24 6,4 C 97 % 1017,7 hPa 0,0 l/m 6,7 km/h (2 Bft) W-SW 238 0 min 0,000 mm 0,0 UV-I 0 W/m 6,0 C 6,2 C 11,3 km/h (2 Bft) 92,68 %
09.03.2017 05:26 6,5 C 97 % 1017,7 hPa 0,0 l/m 5,8 km/h (2 Bft) SW 221 0 min 0,000 mm 0,0 UV-I 0 W/m 6,1 C 6,5 C 9,7 km/h (2 Bft) 98,11 %
09.03.2017 05:28 6,5 C 97 % 1017,7 hPa 0,0 l/m 7,4 km/h (2 Bft) SW 217 0 min 0,000 mm 0,0 UV-I 0 W/m 6,1 C 5,7 C 11,3 km/h (2 Bft) 97,78 %
09.03.2017 05:30 6,6 C 97 % 1017,7 hPa 0,0 l/m 5,9 km/h (2 Bft) W-SW 246 0 min 0,000 mm 0,0 UV-I 0 W/m 6,2 C 6,6 C 14,5 km/h (3 Bft) 95,12 %
09.03.2017 05:33 6,7 C 97 % 1017,7 hPa 0,0 l/m 8,3 km/h (2 Bft) W-SW 244 0 min 0,000 mm 0,0 UV-I 0 W/m 6,3 C 5,2 C 14,5 km/h (3 Bft) 97,37 %
09.03.2017 05:34 6,7 C 97 % 1017,7 hPa 0,0 l/m 11,4 km/h (2 Bft) SW 227 0 min 0,000 mm 0,0 UV-I 0 W/m 6,3 C 3,1 C 14,5 km/h (3 Bft) 100,00 %
09.03.2017 05:36 6,7 C 97 % 1017,8 hPa 0,0 l/m 6,9 km/h (2 Bft) SW 236 0 min 0,000 mm 0,0 UV-I 0 W/m 6,3 C 6,3 C 11,3 km/h (2 Bft) 95,74 %
09.03.2017 05:38 6,8 C 97 % 1017,7 hPa 0,0 l/m 7,8 km/h (2 Bft) SW 229 0 min 0,000 mm 0,0 UV-I 0 W/m 6,4 C 5,6 C 12,9 km/h (3 Bft) 98,00 %
09.03.2017 05:40 6,8 C 97 % 1017,7 hPa 0,0 l/m 7,1 km/h (2 Bft) W-SW 252 0 min 0,000 mm 0,0 UV-I 0 W/m 6,4 C 6,2 C 11,3 km/h (2 Bft) 95,74 %
09.03.2017 05:42 6,8 C 97 % 1017,8 hPa 0,0 l/m 8,3 km/h (2 Bft) SW 233 0 min 0,000 mm 0,0 UV-I 0 W/m 6,4 C 5,3 C 12,9 km/h (3 Bft) 97,37 %
09.03.2017 05:44 6,8 C 97 % 1017,8 hPa 0,0 l/m 9,1 km/h (2 Bft) W-SW 253 0 min 0,000 mm 0,0 UV-I 0 W/m 6,4 C 4,7 C 14,5 km/h (3 Bft) 92,86 %
09.03.2017 05:46 6,8 C 97 % 1017,8 hPa 0,0 l/m 8,1 km/h (2 Bft) SW 224 0 min 0,000 mm 0,0 UV-I 0 W/m 6,4 C 5,4 C 11,3 km/h (2 Bft) 95,12 %
09.03.2017 05:48 6,9 C 97 % 1017,8 hPa 0,0 l/m 7,9 km/h (2 Bft) S-SW 206 0 min 0,000 mm 0,0 UV-I 0 W/m 6,5 C 5,7 C 11,3 km/h (2 Bft) 96,23 %
09.03.2017 05:50 6,9 C 97 % 1017,8 hPa 0,0 l/m 6,7 km/h (2 Bft) SW 223 0 min 0,000 mm 0,0 UV-I 0 W/m 6,5 C 6,7 C 11,3 km/h (2 Bft) 97,87 %
09.03.2017 05:52 6,9 C 97 % 1017,8 hPa 0,0 l/m 10,2 km/h (2 Bft) SW 234 0 min 0,000 mm 0,0 UV-I 0 W/m 6,5 C 4,0 C 16,1 km/h (3 Bft) 95,45 %
09.03.2017 05:54 7,0 C 97 % 1017,9 hPa 0,0 l/m 6,3 km/h (2 Bft) W 259 0 min 0,000 mm 0,0 UV-I 0 W/m 6,6 C 7,0 C 12,9 km/h (3 Bft) 96,00 %
09.03.2017 05:56 7,0 C 97 % 1017,9 hPa 0,0 l/m 9,8 km/h (2 Bft) W-SW 255 0 min 0,000 mm 0,0 UV-I 0 W/m 6,6 C 4,4 C 16,1 km/h (3 Bft) 97,56 %
09.03.2017 05:58 7,0 C 97 % 1018,0 hPa 0,0 l/m 8,5 km/h (2 Bft) W-SW 257 0 min 0,000 mm 0,0 UV-I 0 W/m 6,6 C 5,3 C 12,9 km/h (3 Bft) 96,23 %
09.03.2017 06:00 7,0 C 97 % 1018,0 hPa 0,0 l/m 12,7 km/h (3 Bft) W-SW 252 0 min 0,000 mm 0,0 UV-I 0 W/m 6,6 C 2,7 C 19,3 km/h (3 Bft) 95,45 %
09.03.2017 06:02 7,1 C 97 % 1018,0 hPa 0,0 l/m 10,0 km/h (2 Bft) W-SW 252 0 min 0,000 mm 0,0 UV-I 0 W/m 6,7 C 4,4 C 14,5 km/h (3 Bft) 95,74 %
09.03.2017 06:04 7,1 C 97 % 1018,0 hPa 0,0 l/m 6,9 km/h (2 Bft) W-SW 257 0 min 0,000 mm 0,0 UV-I 0 W/m 6,7 C 6,7 C 12,9 km/h (3 Bft) 97,56 %
09.03.2017 06:06 7,1 C 97 % 1018,0 hPa 0,0 l/m 7,4 km/h (2 Bft) SW 234 0 min 0,000 mm 0,0 UV-I 0 W/m 6,7 C 6,3 C 12,9 km/h (3 Bft) 96,00 %
09.03.2017 06:08 7,1 C 97 % 1018,0 hPa 0,0 l/m 11,7 km/h (2 Bft) W-SW 239 0 min 0,000 mm 0,0 UV-I 0 W/m 6,7 C 3,3 C 17,7 km/h (3 Bft) 100,00 %
09.03.2017 06:10 7,1 C 97 % 1018,1 hPa 0,0 l/m 8,8 km/h (2 Bft) W 263 0 min 0,000 mm 0,0 UV-I 0 W/m 6,7 C 5,2 C 12,9 km/h (3 Bft) 94,00 %
09.03.2017 06:12 7,1 C 97 % 1018,1 hPa 0,0 l/m 10,7 km/h (2 Bft) W-SW 252 0 min 0,000 mm 0,0 UV-I 0 W/m 6,7 C 3,9 C 16,1 km/h (3 Bft) 97,37 %
09.03.2017 06:14 7,1 C 97 % 1018,1 hPa 0,0 l/m 8,1 km/h (2 Bft) W 259 0 min 0,000 mm 0,0 UV-I 0 W/m 6,7 C 5,7 C 12,9 km/h (3 Bft) 94,92 %
09.03.2017 06:16 7,1 C 97 % 1018,2 hPa 0,0 l/m 7,5 km/h (2 Bft) W 265 0 min 0,000 mm 0,0 UV-I 0 W/m 6,7 C 6,2 C 14,5 km/h (3 Bft) 89,47 %
09.03.2017 06:18 7,1 C 97 % 1018,2 hPa 0,0 l/m 11,4 km/h (2 Bft) W-SW 252 0 min 0,000 mm 0,0 UV-I 0 W/m 6,7 C 3,5 C 14,5 km/h (3 Bft) 98,21 %
09.03.2017 06:20 7,1 C 97 % 1018,2 hPa 0,0 l/m 11,8 km/h (2 Bft) W-SW 239 0 min 0,000 mm 0,0 UV-I 0 W/m 6,7 C 3,3 C 16,1 km/h (3 Bft) 97,37 %
09.03.2017 06:22 7,1 C 97 % 1018,2 hPa 0,0 l/m 8,8 km/h (2 Bft) SW 225 0 min 0,000 mm 0,0 UV-I 0 W/m 6,7 C 5,2 C 14,5 km/h (3 Bft) 94,29 %
09.03.2017 06:24 7,2 C 97 % 1018,2 hPa 0,0 l/m 9,8 km/h (2 Bft) W-SW 257 0 min 0,000 mm 0,0 UV-I 0 W/m 6,8 C 4,6 C 14,5 km/h (3 Bft) 95,38 %
09.03.2017 06:26 7,2 C 97 % 1018,2 hPa 0,0 l/m 7,7 km/h (2 Bft) W 279 0 min 0,000 mm 0,0 UV-I 0 W/m 6,8 C 6,1 C 12,9 km/h (3 Bft) 96,00 %
09.03.2017 06:28 7,2 C 97 % 1018,3 hPa 0,0 l/m 4,5 km/h (1 Bft) W 277 0 min 0,000 mm 0,0 UV-I 2 W/m 6,8 C 7,2 C 9,7 km/h (2 Bft) 100,00 %
09.03.2017 06:30 7,2 C 97 % 1018,2 hPa 0,0 l/m 6,7 km/h (2 Bft) W-SW 239 0 min 0,000 mm 0,0 UV-I 5 W/m 6,8 C 7,0 C 11,3 km/h (2 Bft) 94,74 %
09.03.2017 06:32 7,1 C 97 % 1018,3 hPa 0,0 l/m 6,4 km/h (2 Bft) SW 230 0 min 0,000 mm 0,0 UV-I 5 W/m 6,7 C 7,1 C 12,9 km/h (3 Bft) 95,38 %
09.03.2017 06:34 7,2 C 97 % 1018,3 hPa 0,0 l/m 9,3 km/h (2 Bft) W-SW 248 0 min 0,000 mm 0,0 UV-I 5 W/m 6,8 C 5,0 C 14,5 km/h (3 Bft) 97,87 %
09.03.2017 06:36 7,2 C 97 % 1018,3 hPa 0,0 l/m 8,0 km/h (2 Bft) W-SW 246 0 min 0,000 mm 0,0 UV-I 5 W/m 6,8 C 5,9 C 12,9 km/h (3 Bft) 97,37 %
09.03.2017 06:38 7,2 C 97 % 1018,3 hPa 0,0 l/m 8,0 km/h (2 Bft) W-SW 247 0 min 0,000 mm 0,0 UV-I 6 W/m 6,8 C 5,9 C 14,5 km/h (3 Bft) 97,87 %
09.03.2017 06:40 7,1 C 97 % 1018,3 hPa 0,0 l/m 9,4 km/h (2 Bft) SW 231 0 min 0,000 mm 0,0 UV-I 7 W/m 6,7 C 4,8 C 12,9 km/h (3 Bft) 95,12 %
09.03.2017 06:42 7,1 C 97 % 1018,3 hPa 0,0 l/m 9,8 km/h (2 Bft) SW 236 0 min 0,000 mm 0,0 UV-I 10 W/m 6,7 C 4,5 C 14,5 km/h (3 Bft) 94,34 %
09.03.2017 06:44 7,1 C 97 % 1018,4 hPa 0,0 l/m 8,6 km/h (2 Bft) W-SW 254 0 min 0,000 mm 0,0 UV-I 11 W/m 6,7 C 5,4 C 12,9 km/h (3 Bft) 100,00 %
09.03.2017 06:46 7,1 C 97 % 1018,4 hPa 0,0 l/m 7,8 km/h (2 Bft) W-SW 245 0 min 0,000 mm 0,0 UV-I 11 W/m 6,7 C 6,0 C 14,5 km/h (3 Bft) 94,00 %
09.03.2017 06:48 7,1 C 97 % 1018,4 hPa 0,0 l/m 7,7 km/h (2 Bft) W-SW 240 0 min 0,000 mm 0,0 UV-I 15 W/m 6,7 C 6,0 C 11,3 km/h (2 Bft) 100,00 %
09.03.2017 06:50 7,2 C 97 % 1018,4 hPa 0,0 l/m 9,2 km/h (2 Bft) SW 229 0 min 0,000 mm 0,0 UV-I 17 W/m 6,8 C 5,0 C 12,9 km/h (3 Bft) 96,00 %
09.03.2017 06:52 7,2 C 97 % 1018,4 hPa 0,0 l/m 9,9 km/h (2 Bft) SW 235 0 min 0,000 mm 0,0 UV-I 20 W/m 6,8 C 4,6 C 16,1 km/h (3 Bft) 100,00 %
09.03.2017 06:54 7,2 C 97 % 1018,4 hPa 0,0 l/m 9,7 km/h (2 Bft) SW 220 0 min 0,000 mm 0,0 UV-I 27 W/m 6,8 C 4,7 C 12,9 km/h (3 Bft) 100,00 %
09.03.2017 06:56 7,2 C 97 % 1018,5 hPa 0,0 l/m 13,2 km/h (3 Bft) W-SW 250 0 min 0,000 mm 0,0 UV-I 19 W/m 6,8 C 2,6 C 17,7 km/h (3 Bft) 95,12 %
09.03.2017 06:58 7,2 C 97 % 1018,5 hPa 0,0 l/m 8,6 km/h (2 Bft) W-SW 240 0 min 0,000 mm 0,0 UV-I 12 W/m 6,8 C 5,5 C 12,9 km/h (3 Bft) 95,74 %
09.03.2017 07:00 7,2 C 97 % 1018,5 hPa 0,2 l/m 11,7 km/h (2 Bft) SW 232 0 min 0,000 mm 0,0 UV-I 11 W/m 6,8 C 3,5 C 17,7 km/h (3 Bft) 98,00 %
09.03.2017 07:02 7,2 C 97 % 1018,6 hPa 0,0 l/m 11,8 km/h (2 Bft) SW 223 0 min 0,000 mm 0,0 UV-I 12 W/m 6,8 C 3,4 C 17,7 km/h (3 Bft) 94,00 %
09.03.2017 07:04 7,2 C 97 % 1018,5 hPa 0,0 l/m 9,8 km/h (2 Bft) W-SW 238 0 min 0,000 mm 0,0 UV-I 15 W/m 6,8 C 4,6 C 16,1 km/h (3 Bft) 97,87 %
09.03.2017 07:06 7,3 C 97 % 1018,6 hPa 0,0 l/m 10,5 km/h (2 Bft) W-SW 242 0 min 0,000 mm 0,0 UV-I 12 W/m 6,9 C 4,3 C 14,5 km/h (3 Bft) 100,00 %
09.03.2017 07:08 7,3 C 97 % 1018,6 hPa 0,0 l/m 10,0 km/h (2 Bft) SW 219 0 min 0,000 mm 0,0 UV-I 12 W/m 6,9 C 4,6 C 17,7 km/h (3 Bft) 94,34 %
09.03.2017 07:10 7,3 C 97 % 1018,6 hPa 0,0 l/m 8,4 km/h (2 Bft) SW 216 0 min 0,000 mm 0,0 UV-I 11 W/m 6,9 C 5,7 C 11,3 km/h (2 Bft) 92,11 %
09.03.2017 07:12 7,3 C 97 % 1018,6 hPa 0,0 l/m 9,4 km/h (2 Bft) W-SW 254 0 min 0,000 mm 0,0 UV-I 10 W/m 6,9 C 5,0 C 12,9 km/h (3 Bft) 94,34 %
09.03.2017 07:14 7,3 C 97 % 1018,7 hPa 0,0 l/m 9,7 km/h (2 Bft) SW 215 0 min 0,000 mm 0,0 UV-I 16 W/m 6,9 C 4,8 C 14,5 km/h (3 Bft) 95,45 %
09.03.2017 07:16 7,3 C 97 % 1018,7 hPa 0,0 l/m 10,1 km/h (2 Bft) S-SW 202 0 min 0,000 mm 0,0 UV-I 23 W/m 6,9 C 4,5 C 14,5 km/h (3 Bft) 100,00 %
09.03.2017 07:18 7,3 C 97 % 1018,7 hPa 0,0 l/m 11,9 km/h (2 Bft) W-SW 238 0 min 0,000 mm 0,0 UV-I 31 W/m 6,9 C 3,5 C 17,7 km/h (3 Bft) 94,00 %
09.03.2017 07:20 7,3 C 97 % 1018,7 hPa 0,0 l/m 11,2 km/h (2 Bft) SW 225 0 min 0,000 mm 0,0 UV-I 40 W/m 6,9 C 3,9 C 17,7 km/h (3 Bft) 97,37 %
09.03.2017 07:22 7,3 C 97 % 1018,7 hPa 0,0 l/m 11,2 km/h (2 Bft) SW 219 0 min 0,000 mm 0,0 UV-I 40 W/m 6,9 C 3,9 C 17,7 km/h (3 Bft) 96,43 %
09.03.2017 07:24 7,4 C 97 % 1018,8 hPa 0,0 l/m 9,7 km/h (2 Bft) SW 228 0 min 0,000 mm 0,0 UV-I 45 W/m 7,0 C 4,9 C 19,3 km/h (3 Bft) 93,18 %
09.03.2017 07:26 7,4 C 97 % 1018,9 hPa 0,0 l/m 9,3 km/h (2 Bft) SW 234 0 min 0,000 mm 0,0 UV-I 27 W/m 7,0 C 5,2 C 17,7 km/h (3 Bft) 96,23 %
09.03.2017 07:28 7,4 C 97 % 1018,8 hPa 0,0 l/m 12,7 km/h (3 Bft) SW 228 0 min 0,000 mm 0,0 UV-I 20 W/m 7,0 C 3,1 C 19,3 km/h (3 Bft) 97,73 %
09.03.2017 07:30 7,4 C 97 % 1018,9 hPa 0,0 l/m 12,4 km/h (3 Bft) SW 221 0 min 0,000 mm 0,0 UV-I 26 W/m 7,0 C 3,3 C 22,5 km/h (4 Bft) 95,56 %
09.03.2017 07:32 7,4 C 97 % 1018,9 hPa 0,0 l/m 11,2 km/h (2 Bft) W-SW 248 0 min 0,000 mm 0,0 UV-I 29 W/m 7,0 C 4,0 C 16,1 km/h (3 Bft) 100,00 %
09.03.2017 07:34 7,4 C 97 % 1019,0 hPa 0,0 l/m 13,9 km/h (3 Bft) SW 225 0 min 0,000 mm 0,0 UV-I 30 W/m 7,0 C 2,5 C 22,5 km/h (4 Bft) 97,22 %
09.03.2017 07:36 7,4 C 97 % 1018,9 hPa 0,0 l/m 11,1 km/h (2 Bft) SW 231 0 min 0,000 mm 0,0 UV-I 28 W/m 7,0 C 4,0 C 20,9 km/h (4 Bft) 94,34 %
09.03.2017 07:38 7,5 C 97 % 1019,0 hPa 0,0 l/m 9,5 km/h (2 Bft) W-SW 242 0 min 0,000 mm 0,0 UV-I 32 W/m 7,1 C 5,2 C 16,1 km/h (3 Bft) 86,84 %
09.03.2017 07:40 7,5 C 97 % 1019,0 hPa 0,0 l/m 10,2 km/h (2 Bft) S-SW 209 0 min 0,000 mm 0,0 UV-I 35 W/m 7,1 C 4,7 C 16,1 km/h (3 Bft) 89,29 %
09.03.2017 07:42 7,5 C 97 % 1019,0 hPa 0,0 l/m 11,3 km/h (2 Bft) W-SW 237 0 min 0,000 mm 0,0 UV-I 34 W/m 7,1 C 4,0 C 17,7 km/h (3 Bft) 90,24 %
09.03.2017 07:44 7,5 C 97 % 1019,1 hPa 0,0 l/m 10,2 km/h (2 Bft) W-SW 243 0 min 0,000 mm 0,0 UV-I 29 W/m 7,1 C 4,7 C 17,7 km/h (3 Bft) 95,45 %
09.03.2017 07:46 7,6 C 97 % 1019,1 hPa 0,0 l/m 13,8 km/h (3 Bft) W-SW 238 0 min 0,000 mm 0,0 UV-I 37 W/m 7,2 C 2,8 C 16,1 km/h (3 Bft) 96,23 %
09.03.2017 07:48 7,6 C 97 % 1019,1 hPa 0,0 l/m 10,2 km/h (2 Bft) SW 225 0 min 0,000 mm 0,0 UV-I 41 W/m 7,2 C 4,8 C 16,1 km/h (3 Bft) 95,12 %
09.03.2017 07:50 7,6 C 97 % 1019,1 hPa 0,0 l/m 7,3 km/h (2 Bft) S-SW 207 0 min 0,000 mm 0,0 UV-I 44 W/m 7,2 C 6,9 C 14,5 km/h (3 Bft) 88,14 %
09.03.2017 07:52 7,7 C 97 % 1019,1 hPa 0,0 l/m 10,5 km/h (2 Bft) S-SW 207 0 min 0,000 mm 0,0 UV-I 66 W/m 7,3 C 4,7 C 17,7 km/h (3 Bft) 89,36 %
09.03.2017 07:54 7,7 C 97 % 1019,1 hPa 0,0 l/m 8,9 km/h (2 Bft) S-SW 209 0 min 0,000 mm 0,0 UV-I 111 W/m 7,3 C 5,8 C 16,1 km/h (3 Bft) 97,56 %
09.03.2017 07:56 7,8 C 97 % 1019,1 hPa 0,0 l/m 10,0 km/h (2 Bft) W-SW 237 0 min 0,000 mm 0,0 UV-I 102 W/m 7,4 C 5,2 C 17,7 km/h (3 Bft) 92,45 %
09.03.2017 07:58 7,8 C 97 % 1019,1 hPa 0,0 l/m 13,2 km/h (3 Bft) SW 228 0 min 0,000 mm 0,0 UV-I 75 W/m 7,4 C 3,3 C 20,9 km/h (4 Bft) 92,68 %
09.03.2017 08:00 7,9 C 97 % 1019,1 hPa 0,0 l/m 12,6 km/h (3 Bft) SW 232 0 min 0,025 mm 0,0 UV-I 76 W/m 7,5 C 3,8 C 17,7 km/h (3 Bft) 85,37 %
09.03.2017 08:02 7,9 C 97 % 1019,0 hPa 0,0 l/m 13,5 km/h (3 Bft) SW 230 0 min 0,000 mm 0,0 UV-I 80 W/m 7,5 C 3,3 C 22,5 km/h (4 Bft) 92,45 %
09.03.2017 08:04 8,0 C 97 % 1019,0 hPa 0,0 l/m 12,1 km/h (2 Bft) SW 234 0 min 0,000 mm 0,0 UV-I 72 W/m 7,6 C 4,2 C 17,7 km/h (3 Bft) 95,24 %
09.03.2017 08:06 8,0 C 97 % 1019,0 hPa 0,0 l/m 10,5 km/h (2 Bft) W-SW 254 0 min 0,000 mm 0,0 UV-I 83 W/m 7,6 C 5,1 C 17,7 km/h (3 Bft) 92,00 %
09.03.2017 08:08 8,0 C 97 % 1019,0 hPa 0,0 l/m 9,7 km/h (2 Bft) S-SW 209 0 min 0,000 mm 0,0 UV-I 97 W/m 7,6 C 5,6 C 20,9 km/h (4 Bft) 93,88 %
09.03.2017 08:10 8,1 C 97 % 1019,0 hPa 0,0 l/m 11,7 km/h (2 Bft) W-SW 238 0 min 0,000 mm 0,0 UV-I 115 W/m 7,7 C 4,5 C 17,7 km/h (3 Bft) 90,00 %
09.03.2017 08:12 8,1 C 97 % 1019,0 hPa 0,0 l/m 12,3 km/h (3 Bft) S-SW 212 0 min 0,000 mm 0,0 UV-I 120 W/m 7,7 C 4,2 C 19,3 km/h (3 Bft) 95,24 %
09.03.2017 08:14 8,2 C 96 % 1019,1 hPa 0,0 l/m 12,1 km/h (2 Bft) SW 230 0 min 0,000 mm 0,0 UV-I 144 W/m 7,6 C 4,4 C 19,3 km/h (3 Bft) 94,34 %
09.03.2017 08:16 8,2 C 96 % 1019,1 hPa 0,0 l/m 10,2 km/h (2 Bft) W-SW 256 0 min 0,000 mm 0,0 UV-I 154 W/m 7,6 C 5,5 C 17,7 km/h (3 Bft) 95,12 %
09.03.2017 08:18 8,2 C 96 % 1019,1 hPa 0,0 l/m 11,0 km/h (2 Bft) W-SW 238 0 min 0,000 mm 0,0 UV-I 108 W/m 7,6 C 5,0 C 17,7 km/h (3 Bft) 92,45 %
09.03.2017 08:20 8,2 C 96 % 1019,2 hPa 0,0 l/m 12,3 km/h (3 Bft) W-SW 241 0 min 0,000 mm 0,0 UV-I 87 W/m 7,6 C 4,3 C 17,7 km/h (3 Bft) 93,62 %
09.03.2017 08:22 8,3 C 96 % 1019,2 hPa 0,0 l/m 11,2 km/h (2 Bft) W-SW 246 0 min 0,000 mm 0,0 UV-I 84 W/m 7,7 C 5,0 C 16,1 km/h (3 Bft) 95,12 %
09.03.2017 08:24 8,2 C 96 % 1019,1 hPa 0,0 l/m 14,2 km/h (3 Bft) W-SW 241 0 min 0,000 mm 0,0 UV-I 73 W/m 7,6 C 3,3 C 22,5 km/h (4 Bft) 96,23 %
09.03.2017 08:26 8,2 C 96 % 1019,1 hPa 0,0 l/m 15,2 km/h (3 Bft) SW 236 0 min 0,000 mm 0,0 UV-I 86 W/m 7,6 C 2,9 C 19,3 km/h (3 Bft) 95,45 %
09.03.2017 08:28 8,2 C 96 % 1019,2 hPa 0,0 l/m 10,8 km/h (2 Bft) SW 219 0 min 0,000 mm 0,0 UV-I 112 W/m 7,6 C 5,1 C 19,3 km/h (3 Bft) 92,68 %
09.03.2017 08:30 8,2 C 96 % 1019,1 hPa 0,0 l/m 9,2 km/h (2 Bft) SW 227 0 min 0,000 mm 0,0 UV-I 140 W/m 7,6 C 6,1 C 16,1 km/h (3 Bft) 94,34 %
09.03.2017 08:32 8,3 C 96 % 1019,1 hPa 0,0 l/m 10,1 km/h (2 Bft) SW 233 0 min 0,000 mm 0,0 UV-I 128 W/m 7,7 C 5,7 C 14,5 km/h (3 Bft) 95,74 %
09.03.2017 08:34 8,3 C 96 % 1019,2 hPa 0,0 l/m 8,4 km/h (2 Bft) W-SW 246 0 min 0,000 mm 0,0 UV-I 62 W/m 7,7 C 6,8 C 12,9 km/h (3 Bft) 95,74 %
09.03.2017 08:36 8,2 C 96 % 1019,2 hPa 0,0 l/m 7,5 km/h (2 Bft) W-SW 255 0 min 0,000 mm 0,0 UV-I 39 W/m 7,6 C 7,3 C 11,3 km/h (2 Bft) 97,56 %
09.03.2017 08:38 8,2 C 96 % 1019,2 hPa 0,0 l/m 6,2 km/h (2 Bft) S-SW 211 0 min 0,000 mm 0,0 UV-I 42 W/m 7,6 C 8,2 C 11,3 km/h (2 Bft) 94,00 %
09.03.2017 08:40 8,2 C 96 % 1019,2 hPa 0,2 l/m 7,4 km/h (2 Bft) W-SW 238 0 min 0,000 mm 0,0 UV-I 35 W/m 7,6 C 7,4 C 14,5 km/h (3 Bft) 97,56 %
09.03.2017 08:42 8,2 C 96 % 1019,2 hPa 0,0 l/m 9,9 km/h (2 Bft) W-SW 252 0 min 0,000 mm 0,0 UV-I 36 W/m 7,6 C 5,7 C 19,3 km/h (3 Bft) 94,00 %
09.03.2017 08:44 8,1 C 96 % 1019,2 hPa 0,0 l/m 5,8 km/h (2 Bft) W 262 0 min 0,000 mm 0,0 UV-I 56 W/m 7,5 C 8,1 C 11,3 km/h (2 Bft) 95,56 %
09.03.2017 08:46 8,1 C 96 % 1019,2 hPa 0,0 l/m 1,9 km/h (1 Bft) SW 227 0 min 0,000 mm 0,0 UV-I 74 W/m 7,5 C 8,1 C 6,4 km/h (2 Bft) 98,00 %
09.03.2017 08:48 8,1 C 96 % 1019,2 hPa 0,0 l/m 3,2 km/h (1 Bft) W 271 0 min 0,000 mm 0,0 UV-I 58 W/m 7,5 C 8,1 C 6,4 km/h (2 Bft) 95,74 %
09.03.2017 08:50 8,2 C 96 % 1019,2 hPa 0,0 l/m 2,2 km/h (1 Bft) W 273 0 min 0,000 mm 0,0 UV-I 40 W/m 7,6 C 8,2 C 4,8 km/h (1 Bft) 94,74 %
09.03.2017 08:52 7,9 C 96 % 1019,2 hPa 0,0 l/m 2,3 km/h (1 Bft) O-NO 57 0 min 0,000 mm 0,0 UV-I 36 W/m 7,3 C 7,9 C 4,8 km/h (1 Bft) 96,43 %
09.03.2017 08:54 7,4 C 94 % 1019,1 hPa 0,2 l/m 5,9 km/h (2 Bft) NO 35 0 min 0,000 mm 0,0 UV-I 33 W/m 6,5 C 7,4 C 9,7 km/h (2 Bft) 98,11 %
09.03.2017 08:56 7,1 C 95 % 1019,1 hPa 0,0 l/m 4,3 km/h (1 Bft) NO 48 0 min 0,000 mm 0,0 UV-I 33 W/m 6,4 C 7,1 C 4,8 km/h (1 Bft) 97,73 %
09.03.2017 08:58 6,8 C 95 % 1019,1 hPa 0,0 l/m 4,0 km/h (1 Bft) NO 46 0 min 0,000 mm 0,0 UV-I 36 W/m 6,1 C 6,8 C 4,8 km/h (1 Bft) 100,00 %
09.03.2017 09:00 6,7 C 95 % 1019,1 hPa 0,2 l/m 1,1 km/h (1 Bft) NO 46 0 min 0,026 mm 0,0 UV-I 46 W/m 6,0 C 6,7 C 3,2 km/h (1 Bft) 95,74 %
09.03.2017 09:02 6,7 C 96 % 1019,1 hPa 0,0 l/m 2,7 km/h (1 Bft) NO 46 0 min 0,000 mm 0,0 UV-I 72 W/m 6,1 C 6,7 C 4,8 km/h (1 Bft) 96,23 %
09.03.2017 09:04 6,7 C 96 % 1019,1 hPa 0,0 l/m 2,3 km/h (1 Bft) NO 46 0 min 0,000 mm 0,0 UV-I 89 W/m 6,1 C 6,7 C 3,2 km/h (1 Bft) 100,00 %
09.03.2017 09:06 6,7 C 96 % 1019,0 hPa 0,2 l/m 2,3 km/h (1 Bft) NO 46 0 min 0,000 mm 0,0 UV-I 101 W/m 6,1 C 6,7 C 4,8 km/h (1 Bft) 98,00 %
09.03.2017 09:08 6,9 C 97 % 1019,0 hPa 0,0 l/m 0,8 km/h (0 Bft) NO 46 0 min 0,000 mm 0,0 UV-I 124 W/m 6,5 C 6,9 C 1,6 km/h (1 Bft) 100,00 %
09.03.2017 09:10 7,1 C 97 % 1019,0 hPa 0,0 l/m 0,4 km/h (0 Bft) NO 46 0 min 0,000 mm 0,0 UV-I 161 W/m 6,7 C 7,1 C 1,6 km/h (1 Bft) 98,11 %
09.03.2017 09:12 7,2 C 97 % 1019,1 hPa 0,0 l/m 0,0 km/h (0 Bft) NO 46 0 min 0,000 mm 0,0 UV-I 160 W/m 6,8 C 7,2 C 0,0 km/h (0 Bft) 100,00 %
09.03.2017 09:14 7,3 C 97 % 1019,0 hPa 0,0 l/m 0,0 km/h (0 Bft) NO 46 0 min 0,000 mm 0,0 UV-I 147 W/m 6,9 C 7,3 C 0,0 km/h (0 Bft) 97,87 %
09.03.2017 09:16 7,4 C 97 % 1019,0 hPa 0,2 l/m 0,0 km/h (0 Bft) NO 46 0 min 0,000 mm 0,0 UV-I 113 W/m 7,0 C 7,4 C 0,0 km/h (0 Bft) 98,00 %
09.03.2017 09:18 7,6 C 97 % 1019,1 hPa 0,0 l/m 0,6 km/h (0 Bft) NO 46 0 min 0,000 mm 0,0 UV-I 84 W/m 7,2 C 7,6 C 1,6 km/h (1 Bft) 97,37 %
09.03.2017 09:20 7,7 C 97 % 1019,1 hPa 0,0 l/m 2,1 km/h (1 Bft) S-SW 210 0 min 0,000 mm 0,0 UV-I 65 W/m 7,3 C 7,7 C 4,8 km/h (1 Bft) 97,44 %
09.03.2017 09:22 7,8 C 97 % 1019,1 hPa 0,0 l/m 0,8 km/h (0 Bft) S-SW 210 0 min 0,000 mm 0,0 UV-I 48 W/m 7,4 C 7,8 C 3,2 km/h (1 Bft) 98,21 %
09.03.2017 09:24 7,8 C 97 % 1019,1 hPa 0,0 l/m 1,6 km/h (1 Bft) W 265 0 min 0,000 mm 0,0 UV-I 47 W/m 7,4 C 7,8 C 4,8 km/h (1 Bft) 96,15 %
09.03.2017 09:26 7,8 C 97 % 1019,1 hPa 0,0 l/m 2,2 km/h (1 Bft) W-SW 240 0 min 0,000 mm 0,0 UV-I 50 W/m 7,4 C 7,8 C 4,8 km/h (1 Bft) 95,24 %
09.03.2017 09:28 7,8 C 97 % 1019,1 hPa 0,0 l/m 1,8 km/h (1 Bft) S-SW 210 0 min 0,000 mm 0,0 UV-I 58 W/m 7,4 C 7,8 C 6,4 km/h (2 Bft) 94,00 %
09.03.2017 09:30 7,8 C 97 % 1019,1 hPa 0,0 l/m 2,6 km/h (1 Bft) W-SW 250 0 min 0,000 mm 0,0 UV-I 94 W/m 7,4 C 7,8 C 4,8 km/h (1 Bft) 97,87 %
09.03.2017 09:32 7,8 C 97 % 1019,1 hPa 0,0 l/m 1,4 km/h (1 Bft) W-NW 286 0 min 0,000 mm 0,0 UV-I 112 W/m 7,4 C 7,8 C 4,8 km/h (1 Bft) 98,00 %
09.03.2017 09:34 7,7 C 97 % 1019,1 hPa 0,0 l/m 0,9 km/h (0 Bft) S-SW 197 0 min 0,000 mm 0,0 UV-I 111 W/m 7,3 C 7,7 C 4,8 km/h (1 Bft) 97,56 %
09.03.2017 09:36 7,6 C 97 % 1019,2 hPa 0,0 l/m 1,6 km/h (1 Bft) N-NW 331 0 min 0,000 mm 0,0 UV-I 75 W/m 7,2 C 7,6 C 3,2 km/h (1 Bft) 94,34 %
09.03.2017 09:38 7,5 C 97 % 1019,2 hPa 0,0 l/m 0,5 km/h (0 Bft) N-NW 341 0 min 0,000 mm 0,0 UV-I 38 W/m 7,1 C 7,5 C 1,6 km/h (1 Bft) 95,12 %
09.03.2017 09:40 7,3 C 97 % 1019,2 hPa 0,0 l/m 0,7 km/h (0 Bft) W-NW 294 0 min 0,000 mm 0,0 UV-I 47 W/m 6,9 C 7,3 C 3,2 km/h (1 Bft) 96,00 %
09.03.2017 09:42 7,3 C 97 % 1019,3 hPa 0,2 l/m 2,3 km/h (1 Bft) NW 314 0 min 0,000 mm 0,0 UV-I 35 W/m 6,9 C 7,3 C 6,4 km/h (2 Bft) 98,00 %
09.03.2017 09:44 7,3 C 97 % 1019,2 hPa 0,0 l/m 3,9 km/h (1 Bft) NW 313 0 min 0,000 mm 0,0 UV-I 30 W/m 6,9 C 7,3 C 12,9 km/h (3 Bft) 97,56 %
09.03.2017 09:46 7,3 C 97 % 1019,2 hPa 0,2 l/m 3,4 km/h (1 Bft) W-NW 295 0 min 0,000 mm 0,0 UV-I 51 W/m 6,9 C 7,3 C 8,0 km/h (2 Bft) 97,87 %
09.03.2017 09:48 7,4 C 97 % 1019,2 hPa 0,0 l/m 2,5 km/h (1 Bft) W-NW 300 0 min 0,000 mm 0,0 UV-I 66 W/m 7,0 C 7,4 C 4,8 km/h (1 Bft) 97,87 %
09.03.2017 09:50 7,4 C 97 % 1019,3 hPa 0,0 l/m 2,8 km/h (1 Bft) W-NW 294 0 min 0,000 mm 0,3 UV-I 88 W/m 7,0 C 7,4 C 4,8 km/h (1 Bft) 93,18 %
09.03.2017 09:52 7,5 C 97 % 1019,3 hPa 0,0 l/m 1,3 km/h (1 Bft) N-NW 330 0 min 0,000 mm 0,6 UV-I 160 W/m 7,1 C 7,5 C 3,2 km/h (1 Bft) 90,24 %
09.03.2017 09:54 7,7 C 97 % 1019,3 hPa 0,0 l/m 0,8 km/h (0 Bft) N-NW 330 0 min 0,000 mm 0,9 UV-I 263 W/m 7,3 C 7,7 C 3,2 km/h (1 Bft) 98,31 %
09.03.2017 09:56 7,9 C 98 % 1019,2 hPa 0,0 l/m 1,5 km/h (1 Bft) NW 307 2 min 0,000 mm 0,8 UV-I 369 W/m 7,6 C 7,9 C 3,2 km/h (1 Bft) 95,74 %
09.03.2017 09:58 8,1 C 98 % 1019,2 hPa 0,0 l/m 1,6 km/h (1 Bft) NW 305 0 min 0,000 mm 0,5 UV-I 223 W/m 7,8 C 8,1 C 4,8 km/h (1 Bft) 92,68 %
09.03.2017 10:00 8,2 C 98 % 1019,2 hPa 0,0 l/m 0,7 km/h (0 Bft) NW 306 0 min 0,051 mm 0,6 UV-I 183 W/m 7,9 C 8,2 C 3,2 km/h (1 Bft) 95,74 %
09.03.2017 10:02 8,2 C 98 % 1019,1 hPa 0,0 l/m 0,8 km/h (0 Bft) NW 318 0 min 0,000 mm 0,7 UV-I 223 W/m 7,9 C 8,2 C 3,2 km/h (1 Bft) 96,00 %
09.03.2017 10:04 8,1 C 97 % 1019,1 hPa 0,0 l/m 0,8 km/h (0 Bft) NW 320 0 min 0,000 mm 0,8 UV-I 240 W/m 7,7 C 8,1 C 1,6 km/h (1 Bft) 96,23 %
09.03.2017 10:06 8,1 C 97 % 1019,0 hPa 0,0 l/m 1,2 km/h (1 Bft) NW 310 0 min 0,000 mm 0,9 UV-I 242 W/m 7,7 C 8,1 C 3,2 km/h (1 Bft) 94,44 %
09.03.2017 10:08 8,1 C 97 % 1019,0 hPa 0,0 l/m 1,1 km/h (1 Bft) NW 310 0 min 0,000 mm 0,8 UV-I 237 W/m 7,7 C 8,1 C 3,2 km/h (1 Bft) 97,87 %
09.03.2017 10:10 8,2 C 97 % 1019,0 hPa 0,0 l/m 1,2 km/h (1 Bft) NW 308 0 min 0,000 mm 0,8 UV-I 226 W/m 7,8 C 8,2 C 4,8 km/h (1 Bft) 96,00 %
09.03.2017 10:12 8,2 C 97 % 1019,0 hPa 0,0 l/m 0,1 km/h (0 Bft) NW 308 0 min 0,000 mm 0,9 UV-I 257 W/m 7,8 C 8,2 C 1,6 km/h (1 Bft) 98,00 %
09.03.2017 10:14 8,4 C 97 % 1019,0 hPa 0,0 l/m 0,0 km/h (0 Bft) NW 308 2 min 0,000 mm 1,0 UV-I 316 W/m 8,0 C 8,4 C 1,6 km/h (1 Bft) 100,00 %
09.03.2017 10:16 8,4 C 97 % 1019,0 hPa 0,0 l/m 0,0 km/h (0 Bft) NW 308 2 min 0,000 mm 1,1 UV-I 337 W/m 8,0 C 8,4 C 0,0 km/h (0 Bft) 93,62 %
09.03.2017 10:18 8,5 C 97 % 1019,0 hPa 0,0 l/m 2,1 km/h (1 Bft) NW 306 2 min 0,000 mm 1,1 UV-I 360 W/m 8,1 C 8,5 C 4,8 km/h (1 Bft) 89,47 %
09.03.2017 10:20 8,5 C 97 % 1019,0 hPa 0,0 l/m 0,9 km/h (0 Bft) NW 306 2 min 0,000 mm 1,0 UV-I 343 W/m 8,1 C 8,5 C 1,6 km/h (1 Bft) 100,00 %
09.03.2017 10:22 8,6 C 97 % 1019,0 hPa 0,0 l/m 0,2 km/h (0 Bft) NW 306 0 min 0,000 mm 0,9 UV-I 289 W/m 8,2 C 8,6 C 1,6 km/h (1 Bft) 100,00 %
09.03.2017 10:24 8,7 C 97 % 1019,0 hPa 0,0 l/m 0,0 km/h (0 Bft) NW 306 0 min 0,000 mm 0,8 UV-I 234 W/m 8,3 C 8,7 C 0,0 km/h (0 Bft) 98,11 %
09.03.2017 10:26 8,7 C 97 % 1019,0 hPa 0,0 l/m 0,0 km/h (0 Bft) NW 306 0 min 0,000 mm 0,8 UV-I 216 W/m 8,3 C 8,7 C 0,0 km/h (0 Bft) 97,56 %
09.03.2017 10:28 8,8 C 97 % 1019,0 hPa 0,0 l/m 2,6 km/h (1 Bft) NW 306 0 min 0,000 mm 0,8 UV-I 216 W/m 8,4 C 8,8 C 4,8 km/h (1 Bft) 96,00 %
09.03.2017 10:30 8,8 C 97 % 1019,1 hPa 0,0 l/m 1,8 km/h (1 Bft) NW 306 0 min 0,000 mm 0,8 UV-I 206 W/m 8,4 C 8,8 C 3,2 km/h (1 Bft) 96,23 %
09.03.2017 10:32 8,9 C 96 % 1019,1 hPa 0,0 l/m 1,1 km/h (1 Bft) NW 306 0 min 0,000 mm 0,7 UV-I 196 W/m 8,3 C 8,9 C 3,2 km/h (1 Bft) 92,68 %
09.03.2017 10:34 9,1 C 97 % 1019,0 hPa 0,0 l/m 3,4 km/h (1 Bft) W 265 0 min 0,000 mm 0,8 UV-I 208 W/m 8,6 C 9,1 C 4,8 km/h (1 Bft) 93,62 %
09.03.2017 10:36 9,1 C 96 % 1019,1 hPa 0,0 l/m 4,8 km/h (1 Bft) NW 307 0 min 0,000 mm 0,7 UV-I 196 W/m 8,5 C 9,1 C 8,0 km/h (2 Bft) 100,00 %
09.03.2017 10:38 9,1 C 96 % 1019,1 hPa 0,0 l/m 6,8 km/h (2 Bft) W-SW 246 0 min 0,000 mm 0,7 UV-I 194 W/m 8,5 C 8,8 C 11,3 km/h (2 Bft) 100,00 %
09.03.2017 10:40 9,1 C 96 % 1019,2 hPa 0,0 l/m 5,6 km/h (1 Bft) W-NW 282 0 min 0,000 mm 0,8 UV-I 218 W/m 8,5 C 9,1 C 8,0 km/h (2 Bft) 95,12 %
09.03.2017 10:42 9,1 C 96 % 1019,2 hPa 0,0 l/m 5,1 km/h (1 Bft) W-NW 282 0 min 0,000 mm 0,9 UV-I 221 W/m 8,5 C 9,1 C 11,3 km/h (2 Bft) 96,23 %
09.03.2017 10:44 9,1 C 96 % 1019,1 hPa 0,0 l/m 7,0 km/h (2 Bft) W-SW 256 0 min 0,000 mm 0,9 UV-I 230 W/m 8,5 C 8,7 C 11,3 km/h (2 Bft) 93,62 %
09.03.2017 10:46 9,1 C 95 % 1019,1 hPa 0,0 l/m 5,7 km/h (1 Bft) W 265 0 min 0,000 mm 0,9 UV-I 227 W/m 8,3 C 9,1 C 9,7 km/h (2 Bft) 93,75 %
09.03.2017 10:48 9,1 C 95 % 1019,2 hPa 0,0 l/m 5,0 km/h (1 Bft) W 277 0 min 0,000 mm 0,8 UV-I 213 W/m 8,3 C 9,1 C 9,7 km/h (2 Bft) 100,00 %
09.03.2017 10:50 9,2 C 95 % 1019,3 hPa 0,0 l/m 3,1 km/h (1 Bft) W 269 0 min 0,000 mm 0,6 UV-I 162 W/m 8,4 C 9,2 C 4,8 km/h (1 Bft) 98,11 %
09.03.2017 10:52 9,1 C 95 % 1019,3 hPa 0,0 l/m 2,3 km/h (1 Bft) W 269 0 min 0,000 mm 0,4 UV-I 114 W/m 8,3 C 9,1 C 4,8 km/h (1 Bft) 98,11 %
09.03.2017 10:54 9,2 C 95 % 1019,3 hPa 0,0 l/m 2,5 km/h (1 Bft) W-SW 254 0 min 0,000 mm 0,0 UV-I 103 W/m 8,4 C 9,2 C 8,0 km/h (2 Bft) 100,00 %
09.03.2017 10:56 9,1 C 95 % 1019,3 hPa 0,0 l/m 3,9 km/h (1 Bft) W-NW 294 0 min 0,000 mm 0,3 UV-I 128 W/m 8,3 C 9,1 C 8,0 km/h (2 Bft) 98,21 %
09.03.2017 10:58 9,0 C 95 % 1019,3 hPa 0,0 l/m 5,3 km/h (1 Bft) W 269 0 min 0,000 mm 0,5 UV-I 146 W/m 8,2 C 9,0 C 9,7 km/h (2 Bft) 97,87 %
09.03.2017 11:00 8,9 C 95 % 1019,3 hPa 0,0 l/m 4,9 km/h (1 Bft) W-SW 245 0 min 0,000 mm 0,3 UV-I 113 W/m 8,1 C 8,9 C 9,7 km/h (2 Bft) 97,87 %
09.03.2017 11:02 8,9 C 95 % 1019,3 hPa 0,0 l/m 5,2 km/h (1 Bft) W-NW 284 0 min 0,101 mm 0,5 UV-I 121 W/m 8,1 C 8,9 C 9,7 km/h (2 Bft) 100,00 %
09.03.2017 11:04 8,9 C 95 % 1019,2 hPa 0,0 l/m 1,5 km/h (1 Bft) W-NW 284 0 min 0,000 mm 0,6 UV-I 136 W/m 8,1 C 8,9 C 6,4 km/h (2 Bft) 97,87 %
09.03.2017 11:06 8,9 C 95 % 1019,2 hPa 0,0 l/m 0,7 km/h (0 Bft) W-NW 284 0 min 0,000 mm 0,6 UV-I 152 W/m 8,1 C 8,9 C 3,2 km/h (1 Bft) 100,00 %
09.03.2017 11:08 8,9 C 95 % 1019,3 hPa 0,2 l/m 2,2 km/h (1 Bft) W-NW 284 0 min 0,000 mm 0,6 UV-I 145 W/m 8,1 C 8,9 C 4,8 km/h (1 Bft) 95,74 %
09.03.2017 11:10 8,9 C 95 % 1019,3 hPa 0,0 l/m 1,4 km/h (1 Bft) W-NW 284 0 min 0,000 mm 0,5 UV-I 125 W/m 8,1 C 8,9 C 3,2 km/h (1 Bft) 97,37 %
09.03.2017 11:12 9,0 C 96 % 1019,3 hPa 0,0 l/m 0,0 km/h (0 Bft) W-NW 284 0 min 0,000 mm 0,1 UV-I 114 W/m 8,4 C 9,0 C 0,0 km/h (0 Bft) 98,11 %
09.03.2017 11:14 9,0 C 96 % 1019,3 hPa 0,0 l/m 1,4 km/h (1 Bft) W-NW 284 0 min 0,000 mm 0,5 UV-I 124 W/m 8,4 C 9,0 C 3,2 km/h (1 Bft) 93,62 %
09.03.2017 11:16 8,9 C 95 % 1019,2 hPa 0,0 l/m 1,9 km/h (1 Bft) W-NW 284 0 min 0,000 mm 0,5 UV-I 120 W/m 8,1 C 8,9 C 4,8 km/h (1 Bft) 96,00 %
09.03.2017 11:19 8,9 C 96 % 1019,2 hPa 0,0 l/m 0,4 km/h (0 Bft) W-NW 284 0 min 0,000 mm 0,2 UV-I 109 W/m 8,3 C 8,9 C 1,6 km/h (1 Bft) 97,40 %
09.03.2017 11:20 8,9 C 96 % 1019,2 hPa 0,0 l/m 1,6 km/h (1 Bft) W-NW 284 0 min 0,000 mm 0,0 UV-I 96 W/m 8,3 C 8,9 C 3,2 km/h (1 Bft) 91,67 %
09.03.2017 11:22 8,9 C 96 % 1019,2 hPa 0,0 l/m 2,6 km/h (1 Bft) W 266 0 min 0,000 mm 0,0 UV-I 101 W/m 8,3 C 8,9 C 6,4 km/h (2 Bft) 96,15 %
09.03.2017 11:24 8,8 C 95 % 1019,2 hPa 0,0 l/m 3,0 km/h (1 Bft) W-NW 282 0 min 0,000 mm 0,4 UV-I 111 W/m 8,0 C 8,8 C 4,8 km/h (1 Bft) 100,00 %
09.03.2017 11:26 8,8 C 96 % 1019,2 hPa 0,0 l/m 3,1 km/h (1 Bft) W 276 0 min 0,000 mm 0,2 UV-I 107 W/m 8,2 C 8,8 C 4,8 km/h (1 Bft) 100,00 %
09.03.2017 11:28 8,9 C 96 % 1019,3 hPa 0,2 l/m 2,5 km/h (1 Bft) W 276 0 min 0,000 mm 0,0 UV-I 97 W/m 8,3 C 8,9 C 3,2 km/h (1 Bft) 97,92 %
09.03.2017 11:30 8,8 C 96 % 1019,2 hPa 0,0 l/m 1,5 km/h (1 Bft) W-NW 289 0 min 0,000 mm 0,0 UV-I 95 W/m 8,2 C 8,8 C 3,2 km/h (1 Bft) 94,74 %
09.03.2017 11:32 8,8 C 96 % 1019,1 hPa 0,0 l/m 1,6 km/h (1 Bft) W-NW 290 0 min 0,000 mm 0,3 UV-I 108 W/m 8,2 C 8,8 C 3,2 km/h (1 Bft) 95,74 %
09.03.2017 11:34 8,8 C 96 % 1019,2 hPa 0,2 l/m 0,9 km/h (0 Bft) W-NW 293 0 min 0,000 mm 0,5 UV-I 120 W/m 8,2 C 8,8 C 3,2 km/h (1 Bft) 96,43 %
09.03.2017 11:36 8,9 C 96 % 1019,1 hPa 0,0 l/m 0,9 km/h (0 Bft) W-NW 293 0 min 0,000 mm 0,6 UV-I 158 W/m 8,3 C 8,9 C 3,2 km/h (1 Bft) 91,49 %
09.03.2017 11:38 8,9 C 96 % 1019,1 hPa 0,0 l/m 1,6 km/h (1 Bft) W-NW 300 0 min 0,000 mm 0,8 UV-I 189 W/m 8,3 C 8,9 C 4,8 km/h (1 Bft) 97,37 %
09.03.2017 11:40 8,8 C 96 % 1019,1 hPa 0,0 l/m 3,3 km/h (1 Bft) W 276 0 min 0,000 mm 0,9 UV-I 207 W/m 8,2 C 8,8 C 4,8 km/h (1 Bft) 96,00 %
09.03.2017 11:42 8,8 C 96 % 1019,1 hPa 0,0 l/m 2,8 km/h (1 Bft) W 274 0 min 0,000 mm 0,9 UV-I 222 W/m 8,2 C 8,8 C 4,8 km/h (1 Bft) 92,00 %
09.03.2017 11:44 8,9 C 96 % 1019,1 hPa 0,0 l/m 4,7 km/h (1 Bft) W 261 0 min 0,000 mm 1,0 UV-I 254 W/m 8,3 C 8,9 C 9,7 km/h (2 Bft) 96,00 %
09.03.2017 11:46 8,9 C 96 % 1019,0 hPa 0,0 l/m 1,7 km/h (1 Bft) W 274 0 min 0,000 mm 1,1 UV-I 287 W/m 8,3 C 8,9 C 4,8 km/h (1 Bft) 95,12 %
09.03.2017 11:48 9,1 C 96 % 1019,1 hPa 0,0 l/m 2,9 km/h (1 Bft) W 274 0 min 0,000 mm 1,1 UV-I 285 W/m 8,5 C 9,1 C 4,8 km/h (1 Bft) 95,12 %
09.03.2017 11:50 9,0 C 96 % 1019,2 hPa 0,0 l/m 2,4 km/h (1 Bft) W 274 0 min 0,000 mm 1,1 UV-I 270 W/m 8,4 C 9,0 C 4,8 km/h (1 Bft) 98,21 %
09.03.2017 11:52 9,1 C 96 % 1019,1 hPa 0,0 l/m 3,1 km/h (1 Bft) W 281 0 min 0,000 mm 1,0 UV-I 234 W/m 8,5 C 9,1 C 4,8 km/h (1 Bft) 94,29 %
09.03.2017 11:54 9,1 C 96 % 1019,1 hPa 0,0 l/m 2,4 km/h (1 Bft) W 281 0 min 0,000 mm 1,1 UV-I 268 W/m 8,5 C 9,1 C 6,4 km/h (2 Bft) 96,00 %
09.03.2017 11:56 9,2 C 96 % 1019,0 hPa 0,0 l/m 0,3 km/h (0 Bft) W 281 0 min 0,000 mm 1,1 UV-I 293 W/m 8,6 C 9,2 C 1,6 km/h (1 Bft) 98,00 %
09.03.2017 11:58 9,3 C 96 % 1019,0 hPa 0,0 l/m 4,5 km/h (1 Bft) W 263 0 min 0,000 mm 1,2 UV-I 309 W/m 8,7 C 9,3 C 6,4 km/h (2 Bft) 86,00 %
09.03.2017 12:00 9,3 C 95 % 1019,0 hPa 0,0 l/m 4,6 km/h (1 Bft) S-SW 205 0 min 0,076 mm 1,3 UV-I 332 W/m 8,5 C 9,3 C 8,0 km/h (2 Bft) 92,00 %
09.03.2017 12:02 9,4 C 95 % 1019,0 hPa 0,0 l/m 5,5 km/h (1 Bft) SW 231 2 min 0,000 mm 1,3 UV-I 355 W/m 8,6 C 9,4 C 8,0 km/h (2 Bft) 97,44 %
09.03.2017 12:04 9,4 C 95 % 1019,0 hPa 0,0 l/m 4,4 km/h (1 Bft) S-SW 209 2 min 0,000 mm 1,3 UV-I 344 W/m 8,6 C 9,4 C 6,4 km/h (2 Bft) 94,00 %
09.03.2017 12:06 9,6 C 95 % 1018,9 hPa 0,0 l/m 4,7 km/h (1 Bft) SW 220 2 min 0,000 mm 1,4 UV-I 365 W/m 8,8 C 9,6 C 9,7 km/h (2 Bft) 94,23 %
09.03.2017 12:08 9,7 C 95 % 1018,9 hPa 0,0 l/m 4,3 km/h (1 Bft) W-NW 284 2 min 0,000 mm 1,5 UV-I 421 W/m 8,9 C 9,7 C 9,7 km/h (2 Bft) 97,62 %
09.03.2017 12:10 9,7 C 95 % 1018,9 hPa 0,0 l/m 6,4 km/h (2 Bft) SW 234 2 min 0,000 mm 1,5 UV-I 418 W/m 8,9 C 9,7 C 11,3 km/h (2 Bft) 94,34 %
09.03.2017 12:12 9,8 C 94 % 1018,9 hPa 0,0 l/m 4,5 km/h (1 Bft) W-SW 252 2 min 0,000 mm 1,5 UV-I 399 W/m 8,9 C 9,8 C 8,0 km/h (2 Bft) 94,74 %
09.03.2017 12:14 9,7 C 92 % 1018,9 hPa 0,0 l/m 2,5 km/h (1 Bft) W-SW 252 2 min 0,000 mm 1,4 UV-I 399 W/m 8,5 C 9,7 C 4,8 km/h (1 Bft) 91,49 %
09.03.2017 12:16 9,7 C 92 % 1018,9 hPa 0,0 l/m 2,9 km/h (1 Bft) W 259 2 min 0,000 mm 1,3 UV-I 351 W/m 8,5 C 9,7 C 4,8 km/h (1 Bft) 95,45 %
09.03.2017 12:18 9,8 C 93 % 1018,8 hPa 0,0 l/m 3,6 km/h (1 Bft) SW 231 0 min 0,000 mm 1,2 UV-I 325 W/m 8,7 C 9,8 C 6,4 km/h (2 Bft) 96,00 %
09.03.2017 12:20 9,8 C 93 % 1018,8 hPa 0,0 l/m 3,0 km/h (1 Bft) W-SW 255 0 min 0,000 mm 1,2 UV-I 317 W/m 8,7 C 9,8 C 6,4 km/h (2 Bft) 97,56 %
09.03.2017 12:22 9,9 C 93 % 1018,8 hPa 0,0 l/m 4,3 km/h (1 Bft) W-SW 250 0 min 0,000 mm 1,2 UV-I 286 W/m 8,8 C 9,9 C 6,4 km/h (2 Bft) 89,83 %
09.03.2017 12:24 9,9 C 93 % 1018,9 hPa 0,0 l/m 4,1 km/h (1 Bft) W 281 0 min 0,000 mm 1,1 UV-I 276 W/m 8,8 C 9,9 C 6,4 km/h (2 Bft) 91,49 %
09.03.2017 12:26 9,9 C 92 % 1018,8 hPa 0,0 l/m 5,3 km/h (1 Bft) W-SW 238 0 min 0,000 mm 1,1 UV-I 278 W/m 8,7 C 9,9 C 11,3 km/h (2 Bft) 93,18 %
09.03.2017 12:28 9,9 C 92 % 1018,8 hPa 0,0 l/m 5,7 km/h (1 Bft) SW 229 0 min 0,000 mm 1,1 UV-I 301 W/m 8,7 C 9,9 C 11,3 km/h (2 Bft) 97,56 %
09.03.2017 12:30 10,0 C 93 % 1018,8 hPa 0,0 l/m 3,8 km/h (1 Bft) W 265 0 min 0,000 mm 1,0 UV-I 272 W/m 8,9 C 10,0 C 9,7 km/h (2 Bft) 94,00 %
09.03.2017 12:32 10,0 C 91 % 1018,7 hPa 0,0 l/m 5,7 km/h (1 Bft) W-SW 239 0 min 0,000 mm 0,8 UV-I 211 W/m 8,6 C 10,0 C 9,7 km/h (2 Bft) 96,00 %
09.03.2017 12:34 10,0 C 92 % 1018,6 hPa 0,0 l/m 5,6 km/h (1 Bft) W-SW 250 0 min 0,000 mm 0,7 UV-I 188 W/m 8,8 C 10,0 C 9,7 km/h (2 Bft) 97,56 %
09.03.2017 12:36 10,0 C 91 % 1018,6 hPa 0,0 l/m 5,4 km/h (1 Bft) W 260 0 min 0,000 mm 0,8 UV-I 222 W/m 8,6 C 10,0 C 12,9 km/h (3 Bft) 94,64 %
09.03.2017 12:38 10,0 C 91 % 1018,6 hPa 0,0 l/m 7,0 km/h (2 Bft) SW 232 0 min 0,000 mm 0,9 UV-I 244 W/m 8,6 C 9,6 C 11,3 km/h (2 Bft) 95,45 %
09.03.2017 12:40 10,1 C 91 % 1018,5 hPa 0,0 l/m 6,6 km/h (2 Bft) W-SW 247 0 min 0,000 mm 1,0 UV-I 275 W/m 8,7 C 10,0 C 11,3 km/h (2 Bft) 97,44 %
09.03.2017 12:42 10,1 C 92 % 1018,5 hPa 0,0 l/m 8,4 km/h (2 Bft) W-SW 251 0 min 0,000 mm 1,1 UV-I 278 W/m 8,9 C 8,7 C 12,9 km/h (3 Bft) 96,23 %
09.03.2017 12:44 10,2 C 91 % 1018,4 hPa 0,0 l/m 5,2 km/h (1 Bft) W-SW 252 0 min 0,000 mm 1,1 UV-I 276 W/m 8,8 C 10,2 C 8,0 km/h (2 Bft) 95,74 %
09.03.2017 12:46 10,2 C 92 % 1018,5 hPa 0,0 l/m 6,3 km/h (2 Bft) SW 231 0 min 0,000 mm 1,0 UV-I 265 W/m 9,0 C 10,2 C 11,3 km/h (2 Bft) 98,00 %
09.03.2017 12:48 10,3 C 91 % 1018,5 hPa 0,0 l/m 6,8 km/h (2 Bft) SW 221 0 min 0,000 mm 0,9 UV-I 248 W/m 8,9 C 10,0 C 9,7 km/h (2 Bft) 97,37 %
09.03.2017 12:50 10,2 C 90 % 1018,3 hPa 0,0 l/m 5,6 km/h (1 Bft) W-SW 246 0 min 0,000 mm 0,9 UV-I 233 W/m 8,6 C 10,2 C 8,0 km/h (2 Bft) 96,00 %
09.03.2017 12:52 10,2 C 91 % 1018,3 hPa 0,0 l/m 6,6 km/h (2 Bft) SW 227 0 min 0,000 mm 0,9 UV-I 222 W/m 8,8 C 10,1 C 12,9 km/h (3 Bft) 96,23 %
09.03.2017 12:54 10,2 C 91 % 1018,4 hPa 0,0 l/m 5,8 km/h (2 Bft) SW 219 0 min 0,000 mm 0,8 UV-I 215 W/m 8,8 C 10,2 C 9,7 km/h (2 Bft) 95,74 %
09.03.2017 12:56 10,3 C 91 % 1018,3 hPa 0,0 l/m 6,3 km/h (2 Bft) W-SW 246 0 min 0,000 mm 0,8 UV-I 217 W/m 8,9 C 10,3 C 12,9 km/h (3 Bft) 91,49 %
09.03.2017 12:58 10,3 C 90 % 1018,4 hPa 0,0 l/m 8,9 km/h (2 Bft) W-SW 253 0 min 0,000 mm 0,8 UV-I 211 W/m 8,7 C 8,6 C 16,1 km/h (3 Bft) 95,92 %
09.03.2017 13:00 10,3 C 89 % 1018,4 hPa 0,0 l/m 6,7 km/h (2 Bft) W-SW 252 0 min 0,000 mm 0,8 UV-I 204 W/m 8,6 C 10,1 C 9,7 km/h (2 Bft) 100,00 %
09.03.2017 13:02 10,3 C 90 % 1018,4 hPa 0,0 l/m 5,5 km/h (1 Bft) W-SW 240 0 min 0,127 mm 0,8 UV-I 196 W/m 8,7 C 10,3 C 9,7 km/h (2 Bft) 95,59 %
09.03.2017 13:04 10,2 C 90 % 1018,3 hPa 0,0 l/m 3,2 km/h (1 Bft) W-SW 245 0 min 0,000 mm 0,7 UV-I 192 W/m 8,6 C 10,2 C 6,4 km/h (2 Bft) 97,37 %
09.03.2017 13:06 10,3 C 90 % 1018,2 hPa 0,0 l/m 4,8 km/h (1 Bft) S-SW 209 0 min 0,000 mm 0,7 UV-I 192 W/m 8,7 C 10,3 C 8,0 km/h (2 Bft) 94,12 %
09.03.2017 13:08 10,3 C 90 % 1018,2 hPa 0,0 l/m 4,4 km/h (1 Bft) W-SW 244 0 min 0,000 mm 0,7 UV-I 193 W/m 8,7 C 10,3 C 6,4 km/h (2 Bft) 96,00 %
09.03.2017 13:10 10,4 C 90 % 1018,3 hPa 0,0 l/m 5,3 km/h (1 Bft) W 272 0 min 0,000 mm 0,8 UV-I 198 W/m 8,8 C 10,4 C 9,7 km/h (2 Bft) 98,00 %
09.03.2017 13:12 10,4 C 90 % 1018,3 hPa 0,0 l/m 5,2 km/h (1 Bft) SW 216 0 min 0,000 mm 0,8 UV-I 201 W/m 8,8 C 10,4 C 11,3 km/h (2 Bft) 95,74 %
09.03.2017 13:14 10,4 C 90 % 1018,4 hPa 0,0 l/m 7,6 km/h (2 Bft) SW 215 0 min 0,000 mm 0,8 UV-I 199 W/m 8,8 C 9,5 C 11,3 km/h (2 Bft) 94,74 %
09.03.2017 13:16 10,4 C 90 % 1018,4 hPa 0,0 l/m 9,7 km/h (2 Bft) SW 222 0 min 0,000 mm 0,7 UV-I 197 W/m 8,8 C 8,2 C 16,1 km/h (3 Bft) 98,04 %
09.03.2017 13:18 10,4 C 89 % 1018,3 hPa 0,0 l/m 6,8 km/h (2 Bft) SW 230 0 min 0,000 mm 0,7 UV-I 195 W/m 8,7 C 10,1 C 14,5 km/h (3 Bft) 95,24 %
09.03.2017 13:20 10,5 C 89 % 1018,3 hPa 0,0 l/m 9,5 km/h (2 Bft) S-SW 205 0 min 0,000 mm 0,7 UV-I 190 W/m 8,8 C 8,4 C 14,5 km/h (3 Bft) 95,12 %
09.03.2017 13:22 10,5 C 89 % 1018,3 hPa 0,0 l/m 8,2 km/h (2 Bft) W-SW 242 0 min 0,000 mm 0,6 UV-I 165 W/m 8,8 C 9,2 C 14,5 km/h (3 Bft) 95,08 %
09.03.2017 13:24 10,5 C 89 % 1018,3 hPa 0,0 l/m 7,7 km/h (2 Bft) S-SW 198 0 min 0,000 mm 0,6 UV-I 155 W/m 8,8 C 9,6 C 11,3 km/h (2 Bft) 91,67 %
09.03.2017 13:26 10,5 C 89 % 1018,2 hPa 0,0 l/m 7,7 km/h (2 Bft) S-SW 212 0 min 0,000 mm 0,6 UV-I 165 W/m 8,8 C 9,6 C 12,9 km/h (3 Bft) 92,00 %
09.03.2017 13:28 10,5 C 89 % 1018,1 hPa 0,0 l/m 9,0 km/h (2 Bft) SW 217 0 min 0,000 mm 0,5 UV-I 153 W/m 8,8 C 8,7 C 14,5 km/h (3 Bft) 95,45 %
09.03.2017 13:30 10,5 C 89 % 1018,1 hPa 0,0 l/m 9,8 km/h (2 Bft) S-SW 208 0 min 0,000 mm 0,4 UV-I 135 W/m 8,8 C 8,3 C 14,5 km/h (3 Bft) 98,31 %
09.03.2017 13:32 10,4 C 89 % 1018,1 hPa 0,0 l/m 12,7 km/h (3 Bft) W-SW 254 0 min 0,000 mm 0,0 UV-I 108 W/m 8,7 C 6,6 C 17,7 km/h (3 Bft) 95,45 %
09.03.2017 13:34 10,4 C 89 % 1018,0 hPa 0,0 l/m 13,1 km/h (3 Bft) W-SW 253 0 min 0,000 mm 0,1 UV-I 120 W/m 8,7 C 6,4 C 22,5 km/h (4 Bft) 95,45 %
09.03.2017 13:36 10,4 C 89 % 1018,0 hPa 0,0 l/m 13,1 km/h (3 Bft) W-SW 241 0 min 0,000 mm 0,5 UV-I 127 W/m 8,7 C 6,4 C 19,3 km/h (3 Bft) 100,00 %
09.03.2017 13:38 10,4 C 90 % 1018,0 hPa 0,0 l/m 12,3 km/h (3 Bft) S 181 0 min 0,000 mm 0,6 UV-I 165 W/m 8,8 C 6,8 C 17,7 km/h (3 Bft) 97,87 %
09.03.2017 13:40 10,5 C 90 % 1017,9 hPa 0,0 l/m 13,7 km/h (3 Bft) W-SW 238 0 min 0,000 mm 0,8 UV-I 205 W/m 8,9 C 6,3 C 24,1 km/h (4 Bft) 97,73 %
09.03.2017 13:42 10,5 C 88 % 1017,9 hPa 0,0 l/m 13,7 km/h (3 Bft) SW 224 0 min 0,000 mm 0,7 UV-I 200 W/m 8,6 C 6,3 C 22,5 km/h (4 Bft) 96,67 %
09.03.2017 13:44 10,5 C 88 % 1017,9 hPa 0,0 l/m 16,1 km/h (3 Bft) W 259 0 min 0,000 mm 0,8 UV-I 199 W/m 8,6 C 5,3 C 25,7 km/h (4 Bft) 95,89 %
09.03.2017 13:46 10,5 C 89 % 1017,9 hPa 0,0 l/m 15,4 km/h (3 Bft) SW 220 0 min 0,000 mm 0,6 UV-I 173 W/m 8,8 C 5,6 C 20,9 km/h (4 Bft) 97,37 %
09.03.2017 13:48 10,4 C 88 % 1018,0 hPa 0,0 l/m 14,7 km/h (3 Bft) SW 221 0 min 0,000 mm 0,2 UV-I 110 W/m 8,5 C 5,7 C 20,9 km/h (4 Bft) 95,12 %
09.03.2017 13:50 10,4 C 88 % 1018,1 hPa 0,0 l/m 15,6 km/h (3 Bft) W-SW 248 0 min 0,000 mm 0,0 UV-I 80 W/m 8,5 C 5,4 C 24,1 km/h (4 Bft) 96,43 %
09.03.2017 13:52 10,3 C 88 % 1018,2 hPa 0,0 l/m 15,6 km/h (3 Bft) SW 229 0 min 0,000 mm 0,0 UV-I 86 W/m 8,4 C 5,3 C 20,9 km/h (4 Bft) 97,73 %
09.03.2017 13:54 10,3 C 89 % 1018,1 hPa 0,0 l/m 12,8 km/h (3 Bft) W-NW 292 0 min 0,000 mm 0,0 UV-I 89 W/m 8,6 C 6,5 C 17,7 km/h (3 Bft) 96,30 %
09.03.2017 13:56 10,2 C 89 % 1018,0 hPa 0,0 l/m 13,8 km/h (3 Bft) W-SW 238 0 min 0,000 mm 0,0 UV-I 98 W/m 8,5 C 5,9 C 20,9 km/h (4 Bft) 96,05 %
09.03.2017 13:58 10,2 C 89 % 1017,9 hPa 0,0 l/m 15,2 km/h (3 Bft) W-SW 252 0 min 0,000 mm 0,0 UV-I 116 W/m 8,5 C 5,3 C 24,1 km/h (4 Bft) 96,67 %
09.03.2017 14:00 10,1 C 89 % 1017,9 hPa 0,0 l/m 15,4 km/h (3 Bft) SW 215 0 min 0,000 mm 0,3 UV-I 137 W/m 8,4 C 5,1 C 22,5 km/h (4 Bft) 96,55 %
09.03.2017 14:02 10,1 C 89 % 1017,9 hPa 0,0 l/m 16,7 km/h (3 Bft) SW 227 0 min 0,077 mm 0,5 UV-I 164 W/m 8,4 C 4,6 C 25,7 km/h (4 Bft) 94,87 %
09.03.2017 14:04 10,1 C 89 % 1017,8 hPa 0,0 l/m 15,9 km/h (3 Bft) W-SW 240 0 min 0,000 mm 0,5 UV-I 156 W/m 8,4 C 4,9 C 20,9 km/h (4 Bft) 94,64 %
09.03.2017 14:06 10,1 C 89 % 1017,8 hPa 0,0 l/m 17,6 km/h (3 Bft) SW 234 0 min 0,000 mm 0,5 UV-I 154 W/m 8,4 C 4,2 C 25,7 km/h (4 Bft) 97,87 %
09.03.2017 14:08 10,1 C 89 % 1017,9 hPa 0,0 l/m 20,2 km/h (4 Bft) W-SW 248 0 min 0,000 mm 0,5 UV-I 155 W/m 8,4 C 3,4 C 29,0 km/h (5 Bft) 100,00 %
09.03.2017 14:10 10,1 C 89 % 1017,8 hPa 0,0 l/m 22,1 km/h (4 Bft) SW 221 0 min 0,000 mm 0,5 UV-I 166 W/m 8,4 C 2,8 C 30,6 km/h (5 Bft) 95,65 %
09.03.2017 14:12 9,9 C 89 % 1017,8 hPa 0,0 l/m 20,3 km/h (4 Bft) SW 234 0 min 0,000 mm 0,5 UV-I 172 W/m 8,2 C 3,1 C 30,6 km/h (5 Bft) 98,46 %
09.03.2017 14:14 9,9 C 88 % 1017,9 hPa 0,0 l/m 21,5 km/h (4 Bft) SW 215 0 min 0,000 mm 0,5 UV-I 174 W/m 8,0 C 2,7 C 32,2 km/h (5 Bft) 96,23 %
09.03.2017 14:16 9,9 C 89 % 1017,9 hPa 0,0 l/m 20,8 km/h (4 Bft) SW 235 0 min 0,000 mm 0,6 UV-I 200 W/m 8,2 C 2,9 C 33,8 km/h (5 Bft) 97,87 %
09.03.2017 14:18 9,9 C 89 % 1017,9 hPa 0,0 l/m 19,7 km/h (3 Bft) SW 234 0 min 0,000 mm 0,6 UV-I 205 W/m 8,2 C 3,3 C 27,4 km/h (4 Bft) 97,37 %
09.03.2017 14:20 9,9 C 89 % 1017,9 hPa 0,0 l/m 18,7 km/h (3 Bft) W 259 0 min 0,000 mm 0,6 UV-I 178 W/m 8,2 C 3,6 C 32,2 km/h (5 Bft) 95,45 %
09.03.2017 14:22 9,9 C 89 % 1017,9 hPa 0,0 l/m 21,0 km/h (4 Bft) SW 236 0 min 0,000 mm 0,5 UV-I 169 W/m 8,2 C 2,8 C 29,0 km/h (5 Bft) 92,45 %
09.03.2017 14:24 9,8 C 89 % 1017,9 hPa 0,0 l/m 19,4 km/h (3 Bft) W-SW 237 0 min 0,000 mm 0,6 UV-I 177 W/m 8,1 C 3,2 C 29,0 km/h (5 Bft) 96,00 %
09.03.2017 14:26 9,8 C 89 % 1017,9 hPa 0,0 l/m 16,9 km/h (3 Bft) SW 227 0 min 0,000 mm 0,6 UV-I 184 W/m 8,1 C 4,1 C 25,7 km/h (4 Bft) 97,56 %
09.03.2017 14:28 9,8 C 89 % 1017,9 hPa 0,0 l/m 13,5 km/h (3 Bft) S 190 0 min 0,000 mm 0,6 UV-I 184 W/m 8,1 C 5,6 C 20,9 km/h (4 Bft) 96,23 %
09.03.2017 14:30 9,9 C 89 % 1017,9 hPa 0,0 l/m 11,7 km/h (2 Bft) SW 223 0 min 0,000 mm 0,6 UV-I 188 W/m 8,2 C 6,6 C 19,3 km/h (3 Bft) 97,37 %
09.03.2017 14:32 9,9 C 89 % 1017,8 hPa 0,0 l/m 17,7 km/h (3 Bft) W-SW 241 0 min 0,000 mm 0,6 UV-I 196 W/m 8,2 C 4,0 C 29,0 km/h (5 Bft) 100,00 %
09.03.2017 14:34 9,9 C 89 % 1017,8 hPa 0,0 l/m 13,9 km/h (3 Bft) SW 220 0 min 0,000 mm 0,6 UV-I 201 W/m 8,2 C 5,5 C 22,5 km/h (4 Bft) 100,00 %
09.03.2017 14:36 9,8 C 89 % 1017,9 hPa 0,0 l/m 20,7 km/h (4 Bft) W-SW 240 0 min 0,000 mm 0,6 UV-I 199 W/m 8,1 C 2,8 C 32,2 km/h (5 Bft) 95,74 %
09.03.2017 14:38 9,8 C 89 % 1017,8 hPa 0,0 l/m 16,6 km/h (3 Bft) SW 225 0 min 0,000 mm 0,6 UV-I 193 W/m 8,1 C 4,2 C 22,5 km/h (4 Bft) 96,00 %
09.03.2017 14:40 9,8 C 89 % 1017,8 hPa 0,0 l/m 18,7 km/h (3 Bft) SW 234 0 min 0,000 mm 0,6 UV-I 187 W/m 8,1 C 3,5 C 25,7 km/h (4 Bft) 98,00 %
09.03.2017 14:42 9,8 C 89 % 1017,9 hPa 0,0 l/m 17,4 km/h (3 Bft) SW 224 0 min 0,000 mm 0,5 UV-I 172 W/m 8,1 C 3,9 C 20,9 km/h (4 Bft) 97,44 %
09.03.2017 14:44 9,8 C 89 % 1017,9 hPa 0,0 l/m 13,2 km/h (3 Bft) S-SW 207 0 min 0,000 mm 0,4 UV-I 154 W/m 8,1 C 5,7 C 22,5 km/h (4 Bft) 92,00 %
09.03.2017 14:46 9,8 C 89 % 1017,8 hPa 0,0 l/m 13,3 km/h (3 Bft) W-SW 246 0 min 0,000 mm 0,0 UV-I 135 W/m 8,1 C 5,6 C 25,7 km/h (4 Bft) 98,00 %
09.03.2017 14:48 9,8 C 89 % 1017,9 hPa 0,0 l/m 16,7 km/h (3 Bft) W-SW 258 0 min 0,000 mm 0,0 UV-I 111 W/m 8,1 C 4,2 C 25,7 km/h (4 Bft) 100,00 %
09.03.2017 14:50 9,8 C 88 % 1017,8 hPa 0,0 l/m 19,7 km/h (3 Bft) W-SW 238 0 min 0,000 mm 0,0 UV-I 96 W/m 7,9 C 3,1 C 25,7 km/h (4 Bft) 94,00 %
09.03.2017 14:52 9,7 C 88 % 1017,8 hPa 0,0 l/m 11,7 km/h (2 Bft) W-SW 243 0 min 0,000 mm 0,0 UV-I 97 W/m 7,8 C 6,3 C 17,7 km/h (3 Bft) 98,11 %
09.03.2017 14:54 9,7 C 88 % 1017,9 hPa 0,0 l/m 17,0 km/h (3 Bft) SW 225 0 min 0,000 mm 0,0 UV-I 92 W/m 7,8 C 4,0 C 25,7 km/h (4 Bft) 100,00 %
09.03.2017 14:56 9,7 C 88 % 1017,8 hPa 0,0 l/m 13,3 km/h (3 Bft) W-SW 242 0 min 0,000 mm 0,0 UV-I 92 W/m 7,8 C 5,5 C 25,7 km/h (4 Bft) 97,73 %
09.03.2017 14:58 9,7 C 89 % 1017,8 hPa 0,0 l/m 12,4 km/h (3 Bft) SW 234 0 min 0,000 mm 0,0 UV-I 113 W/m 8,0 C 6,0 C 17,7 km/h (3 Bft) 90,57 %
09.03.2017 15:00 9,7 C 89 % 1017,8 hPa 0,0 l/m 14,0 km/h (3 Bft) S-SW 208 0 min 0,101 mm 0,0 UV-I 121 W/m 8,0 C 5,2 C 24,1 km/h (4 Bft) 100,00 %
09.03.2017 15:02 9,7 C 88 % 1017,7 hPa 0,0 l/m 13,3 km/h (3 Bft) S-SW 213 0 min 0,000 mm 0,0 UV-I 114 W/m 7,8 C 5,5 C 19,3 km/h (3 Bft) 100,00 %
09.03.2017 15:04 9,7 C 88 % 1017,7 hPa 0,0 l/m 13,4 km/h (3 Bft) SW 215 0 min 0,000 mm 0,0 UV-I 112 W/m 7,8 C 5,5 C 20,9 km/h (4 Bft) 94,64 %
09.03.2017 15:06 9,7 C 88 % 1017,7 hPa 0,0 l/m 19,5 km/h (3 Bft) W-SW 244 0 min 0,000 mm 0,0 UV-I 112 W/m 7,8 C 3,1 C 29,0 km/h (5 Bft) 97,37 %
09.03.2017 15:08 9,6 C 88 % 1017,7 hPa 0,0 l/m 18,0 km/h (3 Bft) W-SW 242 0 min 0,000 mm 0,0 UV-I 106 W/m 7,7 C 3,5 C 25,7 km/h (4 Bft) 100,00 %
09.03.2017 15:10 9,6 C 88 % 1017,7 hPa 0,0 l/m 16,8 km/h (3 Bft) SW 218 0 min 0,000 mm 0,0 UV-I 104 W/m 7,7 C 3,9 C 22,5 km/h (4 Bft) 94,34 %
09.03.2017 15:12 9,6 C 88 % 1017,7 hPa 0,0 l/m 13,1 km/h (3 Bft) W-SW 257 0 min 0,000 mm 0,0 UV-I 105 W/m 7,7 C 5,5 C 22,5 km/h (4 Bft) 95,12 %
09.03.2017 15:14 9,6 C 87 % 1017,6 hPa 0,0 l/m 17,4 km/h (3 Bft) W-SW 240 0 min 0,000 mm 0,0 UV-I 104 W/m 7,5 C 3,7 C 24,1 km/h (4 Bft) 97,73 %
09.03.2017 15:16 9,6 C 87 % 1017,7 hPa 0,0 l/m 16,1 km/h (3 Bft) S-SW 207 0 min 0,000 mm 0,0 UV-I 91 W/m 7,5 C 4,2 C 27,4 km/h (4 Bft) 100,00 %
09.03.2017 15:18 9,6 C 87 % 1017,7 hPa 0,0 l/m 13,8 km/h (3 Bft) SW 229 0 min 0,000 mm 0,0 UV-I 77 W/m 7,5 C 5,2 C 22,5 km/h (4 Bft) 95,24 %
09.03.2017 15:20 9,6 C 88 % 1017,7 hPa 0,0 l/m 14,7 km/h (3 Bft) SW 217 0 min 0,000 mm 0,0 UV-I 71 W/m 7,7 C 4,8 C 22,5 km/h (4 Bft) 96,15 %
09.03.2017 15:22 9,6 C 87 % 1017,7 hPa 0,0 l/m 14,1 km/h (3 Bft) SW 216 0 min 0,000 mm 0,0 UV-I 70 W/m 7,5 C 5,0 C 20,9 km/h (4 Bft) 97,44 %
09.03.2017 15:24 9,6 C 87 % 1017,8 hPa 0,0 l/m 13,6 km/h (3 Bft) W-SW 240 0 min 0,000 mm 0,0 UV-I 69 W/m 7,5 C 5,3 C 17,7 km/h (3 Bft) 100,00 %
09.03.2017 15:26 9,5 C 87 % 1017,8 hPa 0,0 l/m 15,7 km/h (3 Bft) SW 226 0 min 0,000 mm 0,0 UV-I 63 W/m 7,4 C 4,2 C 25,7 km/h (4 Bft) 92,68 %
09.03.2017 15:28 9,5 C 87 % 1017,7 hPa 0,0 l/m 16,7 km/h (3 Bft) W-SW 238 0 min 0,000 mm 0,0 UV-I 61 W/m 7,4 C 3,8 C 25,7 km/h (4 Bft) 97,73 %
09.03.2017 15:30 9,5 C 87 % 1017,7 hPa 0,0 l/m 16,2 km/h (3 Bft) W-SW 248 0 min 0,000 mm 0,0 UV-I 68 W/m 7,4 C 4,0 C 27,4 km/h (4 Bft) 95,12 %
09.03.2017 15:32 9,5 C 87 % 1017,7 hPa 0,0 l/m 17,3 km/h (3 Bft) SW 227 0 min 0,000 mm 0,0 UV-I 73 W/m 7,4 C 3,6 C 25,7 km/h (4 Bft) 97,56 %
09.03.2017 15:34 9,5 C 87 % 1017,6 hPa 0,0 l/m 17,8 km/h (3 Bft) SW 227 0 min 0,000 mm 0,0 UV-I 69 W/m 7,4 C 3,4 C 27,4 km/h (4 Bft) 93,85 %
09.03.2017 15:36 9,5 C 87 % 1017,5 hPa 0,0 l/m 13,1 km/h (3 Bft) S-SW 209 0 min 0,000 mm 0,0 UV-I 60 W/m 7,4 C 5,4 C 19,3 km/h (3 Bft) 97,14 %
09.03.2017 15:38 9,4 C 87 % 1017,5 hPa 0,0 l/m 13,0 km/h (3 Bft) SW 222 0 min 0,000 mm 0,0 UV-I 57 W/m 7,3 C 5,3 C 24,1 km/h (4 Bft) 95,74 %
09.03.2017 15:40 9,4 C 87 % 1017,5 hPa 0,0 l/m 13,9 km/h (3 Bft) W-SW 240 0 min 0,000 mm 0,0 UV-I 63 W/m 7,3 C 4,9 C 20,9 km/h (4 Bft) 92,31 %
09.03.2017 15:42 9,4 C 87 % 1017,5 hPa 0,0 l/m 16,4 km/h (3 Bft) SW 219 0 min 0,000 mm 0,0 UV-I 69 W/m 7,3 C 3,8 C 27,4 km/h (4 Bft) 97,37 %
09.03.2017 15:44 9,4 C 87 % 1017,6 hPa 0,0 l/m 20,3 km/h (4 Bft) SW 234 0 min 0,000 mm 0,0 UV-I 75 W/m 7,3 C 2,4 C 29,0 km/h (5 Bft) 96,23 %
09.03.2017 15:46 9,4 C 87 % 1017,6 hPa 0,0 l/m 20,6 km/h (4 Bft) SW 215 0 min 0,000 mm 0,0 UV-I 79 W/m 7,3 C 2,3 C 33,8 km/h (5 Bft) 92,68 %
09.03.2017 15:48 9,4 C 87 % 1017,6 hPa 0,0 l/m 20,9 km/h (4 Bft) W 265 0 min 0,000 mm 0,0 UV-I 76 W/m 7,3 C 2,2 C 30,6 km/h (5 Bft) 94,00 %
09.03.2017 15:50 9,4 C 86 % 1017,5 hPa 0,0 l/m 18,5 km/h (3 Bft) S-SW 202 0 min 0,000 mm 0,0 UV-I 65 W/m 7,2 C 3,0 C 27,4 km/h (4 Bft) 95,74 %
09.03.2017 15:52 9,4 C 86 % 1017,5 hPa 0,0 l/m 19,1 km/h (3 Bft) SW 221 0 min 0,000 mm 0,0 UV-I 60 W/m 7,2 C 2,8 C 29,0 km/h (5 Bft) 91,49 %
09.03.2017 15:54 9,4 C 86 % 1017,4 hPa 0,0 l/m 17,3 km/h (3 Bft) SW 220 0 min 0,000 mm 0,0 UV-I 60 W/m 7,2 C 3,5 C 24,1 km/h (4 Bft) 87,23 %
09.03.2017 15:56 9,4 C 86 % 1017,4 hPa 0,0 l/m 21,4 km/h (4 Bft) SW 227 0 min 0,000 mm 0,0 UV-I 61 W/m 7,2 C 2,1 C 32,2 km/h (5 Bft) 97,87 %
09.03.2017 15:58 9,3 C 86 % 1017,4 hPa 0,0 l/m 23,5 km/h (4 Bft) SW 225 0 min 0,000 mm 0,0 UV-I 56 W/m 7,1 C 1,3 C 33,8 km/h (5 Bft) 95,24 %
09.03.2017 16:00 9,3 C 86 % 1017,4 hPa 0,0 l/m 18,6 km/h (3 Bft) W-SW 250 0 min 0,000 mm 0,0 UV-I 48 W/m 7,1 C 2,9 C 25,7 km/h (4 Bft) 90,91 %
09.03.2017 16:02 9,3 C 86 % 1017,4 hPa 0,0 l/m 20,0 km/h (4 Bft) SW 231 0 min 0,051 mm 0,0 UV-I 51 W/m 7,1 C 2,4 C 27,4 km/h (4 Bft) 92,86 %
09.03.2017 16:04 9,3 C 86 % 1017,5 hPa 0,0 l/m 16,7 km/h (3 Bft) SW 234 0 min 0,000 mm 0,0 UV-I 61 W/m 7,1 C 3,6 C 27,4 km/h (4 Bft) 95,12 %
09.03.2017 16:06 9,2 C 86 % 1017,5 hPa 0,0 l/m 19,4 km/h (3 Bft) SW 225 0 min 0,000 mm 0,0 UV-I 67 W/m 7,0 C 2,5 C 33,8 km/h (5 Bft) 92,00 %
09.03.2017 16:08 9,2 C 87 % 1017,5 hPa 0,0 l/m 17,3 km/h (3 Bft) SW 236 0 min 0,000 mm 0,0 UV-I 67 W/m 7,2 C 3,2 C 25,7 km/h (4 Bft) 100,00 %
09.03.2017 16:10 9,2 C 86 % 1017,5 hPa 0,0 l/m 18,6 km/h (3 Bft) S-SW 211 0 min 0,000 mm 0,0 UV-I 59 W/m 7,0 C 2,7 C 30,6 km/h (5 Bft) 97,73 %
09.03.2017 16:12 9,2 C 86 % 1017,5 hPa 0,0 l/m 23,7 km/h (4 Bft) W-SW 252 0 min 0,000 mm 0,0 UV-I 48 W/m 7,0 C 1,1 C 32,2 km/h (5 Bft) 92,45 %
09.03.2017 16:14 9,1 C 86 % 1017,5 hPa 0,0 l/m 22,2 km/h (4 Bft) SW 232 0 min 0,000 mm 0,0 UV-I 37 W/m 6,9 C 1,4 C 33,8 km/h (5 Bft) 95,12 %
09.03.2017 16:16 9,1 C 86 % 1017,5 hPa 0,0 l/m 18,2 km/h (3 Bft) W-SW 254 0 min 0,000 mm 0,0 UV-I 32 W/m 6,9 C 2,8 C 32,2 km/h (5 Bft) 100,00 %
09.03.2017 16:18 9,1 C 86 % 1017,5 hPa 0,0 l/m 25,4 km/h (4 Bft) SW 228 0 min 0,000 mm 0,0 UV-I 37 W/m 6,9 C 0,5 C 32,2 km/h (5 Bft) 97,37 %
09.03.2017 16:20 9,0 C 85 % 1017,5 hPa 0,0 l/m 21,9 km/h (4 Bft) W-SW 251 0 min 0,000 mm 0,0 UV-I 39 W/m 6,6 C 1,4 C 30,6 km/h (5 Bft) 95,74 %
09.03.2017 16:22 9,0 C 86 % 1017,6 hPa 0,0 l/m 18,8 km/h (3 Bft) SW 236 0 min 0,000 mm 0,0 UV-I 39 W/m 6,8 C 2,4 C 29,0 km/h (5 Bft) 96,00 %
09.03.2017 16:24 8,9 C 86 % 1017,5 hPa 0,0 l/m 23,6 km/h (4 Bft) S-SW 207 0 min 0,000 mm 0,0 UV-I 37 W/m 6,7 C 0,7 C 35,4 km/h (5 Bft) 100,00 %
09.03.2017 16:26 8,9 C 86 % 1017,6 hPa 0,0 l/m 19,0 km/h (3 Bft) SW 223 0 min 0,000 mm 0,0 UV-I 31 W/m 6,7 C 2,2 C 35,4 km/h (5 Bft) 97,56 %
09.03.2017 16:28 8,8 C 86 % 1017,6 hPa 0,0 l/m 14,4 km/h (3 Bft) W-SW 246 0 min 0,000 mm 0,0 UV-I 25 W/m 6,6 C 4,0 C 22,5 km/h (4 Bft) 94,34 %
09.03.2017 16:30 8,8 C 87 % 1017,6 hPa 0,0 l/m 19,3 km/h (3 Bft) W-SW 243 0 min 0,000 mm 0,0 UV-I 23 W/m 6,8 C 2,0 C 24,1 km/h (4 Bft) 97,62 %
09.03.2017 16:32 8,8 C 87 % 1017,5 hPa 0,0 l/m 20,5 km/h (4 Bft) SW 228 0 min 0,000 mm 0,0 UV-I 23 W/m 6,8 C 1,6 C 29,0 km/h (5 Bft) 100,00 %
09.03.2017 16:34 8,7 C 87 % 1017,6 hPa 0,0 l/m 21,1 km/h (4 Bft) SW 227 0 min 0,000 mm 0,0 UV-I 21 W/m 6,7 C 1,2 C 29,0 km/h (5 Bft) 93,62 %
09.03.2017 16:36 8,7 C 87 % 1017,6 hPa 0,0 l/m 17,1 km/h (3 Bft) SW 234 0 min 0,000 mm 0,0 UV-I 22 W/m 6,7 C 2,7 C 29,0 km/h (5 Bft) 95,00 %
09.03.2017 16:38 8,7 C 87 % 1017,6 hPa 0,0 l/m 25,4 km/h (4 Bft) W-SW 250 0 min 0,000 mm 0,0 UV-I 23 W/m 6,7 C -0,0 C 33,8 km/h (5 Bft) 97,62 %
09.03.2017 16:40 8,6 C 87 % 1017,7 hPa 0,0 l/m 20,3 km/h (4 Bft) S-SW 208 0 min 0,000 mm 0,0 UV-I 23 W/m 6,6 C 1,4 C 32,2 km/h (5 Bft) 95,12 %
09.03.2017 16:42 8,6 C 88 % 1017,6 hPa 0,0 l/m 18,8 km/h (3 Bft) W-SW 244 0 min 0,000 mm 0,0 UV-I 24 W/m 6,7 C 1,9 C 29,0 km/h (5 Bft) 96,61 %
09.03.2017 16:44 8,6 C 88 % 1017,6 hPa 0,0 l/m 19,1 km/h (3 Bft) W-SW 258 0 min 0,000 mm 0,0 UV-I 25 W/m 6,7 C 1,8 C 25,7 km/h (4 Bft) 94,34 %
09.03.2017 16:46 8,6 C 88 % 1017,6 hPa 0,0 l/m 18,6 km/h (3 Bft) SW 225 0 min 0,000 mm 0,0 UV-I 26 W/m 6,7 C 2,0 C 29,0 km/h (5 Bft) 97,73 %
09.03.2017 16:48 8,5 C 88 % 1017,6 hPa 0,0 l/m 20,2 km/h (4 Bft) W-SW 239 0 min 0,000 mm 0,0 UV-I 30 W/m 6,6 C 1,3 C 27,4 km/h (4 Bft) 98,00 %
09.03.2017 16:50 8,4 C 88 % 1017,7 hPa 0,0 l/m 15,5 km/h (3 Bft) W-SW 240 0 min 0,000 mm 0,0 UV-I 30 W/m 6,5 C 3,0 C 24,1 km/h (4 Bft) 92,68 %
09.03.2017 16:52 8,4 C 88 % 1017,7 hPa 0,0 l/m 16,8 km/h (3 Bft) W-SW 238 0 min 0,000 mm 0,0 UV-I 28 W/m 6,5 C 2,4 C 24,1 km/h (4 Bft) 92,68 %
09.03.2017 16:54 8,4 C 88 % 1017,7 hPa 0,0 l/m 20,0 km/h (4 Bft) S-SW 205 0 min 0,000 mm 0,0 UV-I 26 W/m 6,5 C 1,2 C 30,6 km/h (5 Bft) 94,64 %
09.03.2017 16:56 8,4 C 88 % 1017,7 hPa 0,0 l/m 17,1 km/h (3 Bft) W-SW 251 0 min 0,000 mm 0,0 UV-I 27 W/m 6,5 C 2,3 C 29,0 km/h (5 Bft) 89,47 %
09.03.2017 16:58 8,3 C 88 % 1017,7 hPa 0,0 l/m 17,0 km/h (3 Bft) W-SW 237 0 min 0,000 mm 0,0 UV-I 31 W/m 6,4 C 2,2 C 25,7 km/h (4 Bft) 93,62 %
09.03.2017 17:00 8,3 C 88 % 1017,6 hPa 0,0 l/m 16,5 km/h (3 Bft) W-SW 250 0 min 0,000 mm 0,0 UV-I 33 W/m 6,4 C 2,4 C 22,5 km/h (4 Bft) 91,07 %
09.03.2017 17:02 8,3 C 89 % 1017,6 hPa 0,0 l/m 17,5 km/h (3 Bft) S-SW 213 0 min 0,051 mm 0,0 UV-I 29 W/m 6,6 C 2,0 C 25,7 km/h (4 Bft) 92,11 %
09.03.2017 17:04 8,2 C 89 % 1017,6 hPa 0,0 l/m 15,3 km/h (3 Bft) SW 221 0 min 0,000 mm 0,0 UV-I 25 W/m 6,5 C 2,8 C 25,7 km/h (4 Bft) 95,45 %
09.03.2017 17:06 8,2 C 89 % 1017,6 hPa 0,0 l/m 18,0 km/h (3 Bft) SW 232 0 min 0,000 mm 0,0 UV-I 20 W/m 6,5 C 1,7 C 25,7 km/h (4 Bft) 93,22 %
09.03.2017 17:08 8,2 C 89 % 1017,7 hPa 0,0 l/m 20,4 km/h (4 Bft) SW 227 0 min 0,000 mm 0,0 UV-I 19 W/m 6,5 C 0,8 C 30,6 km/h (5 Bft) 92,68 %
09.03.2017 17:10 8,2 C 89 % 1017,7 hPa 0,0 l/m 12,5 km/h (3 Bft) W-SW 257 0 min 0,000 mm 0,0 UV-I 18 W/m 6,5 C 4,2 C 22,5 km/h (4 Bft) 90,00 %
09.03.2017 17:12 8,1 C 90 % 1017,6 hPa 0,0 l/m 18,2 km/h (3 Bft) SW 221 0 min 0,000 mm 0,0 UV-I 18 W/m 6,6 C 1,5 C 22,5 km/h (4 Bft) 97,56 %
09.03.2017 17:14 8,1 C 90 % 1017,6 hPa 0,0 l/m 17,6 km/h (3 Bft) SW 230 0 min 0,000 mm 0,0 UV-I 20 W/m 6,6 C 1,7 C 25,7 km/h (4 Bft) 96,23 %
09.03.2017 17:16 8,1 C 90 % 1017,6 hPa 0,0 l/m 14,6 km/h (3 Bft) SW 223 0 min 0,000 mm 0,0 UV-I 24 W/m 6,6 C 3,0 C 22,5 km/h (4 Bft) 87,23 %
09.03.2017 17:18 8,1 C 90 % 1017,6 hPa 0,0 l/m 16,3 km/h (3 Bft) W-SW 252 0 min 0,000 mm 0,0 UV-I 26 W/m 6,6 C 2,3 C 22,5 km/h (4 Bft) 97,62 %
09.03.2017 17:20 8,1 C 90 % 1017,6 hPa 0,0 l/m 15,4 km/h (3 Bft) W-SW 254 0 min 0,000 mm 0,0 UV-I 24 W/m 6,6 C 2,7 C 24,1 km/h (4 Bft) 96,00 %
09.03.2017 17:22 8,0 C 91 % 1017,7 hPa 0,0 l/m 12,5 km/h (3 Bft) W-SW 239 0 min 0,000 mm 0,0 UV-I 21 W/m 6,6 C 3,9 C 17,7 km/h (3 Bft) 95,45 %
09.03.2017 17:24 8,0 C 91 % 1017,8 hPa 0,0 l/m 11,9 km/h (2 Bft) SW 219 0 min 0,000 mm 0,0 UV-I 19 W/m 6,6 C 4,3 C 17,7 km/h (3 Bft) 98,00 %
09.03.2017 17:26 7,9 C 91 % 1017,7 hPa 0,2 l/m 13,3 km/h (3 Bft) SW 216 0 min 0,000 mm 0,0 UV-I 18 W/m 6,5 C 3,4 C 22,5 km/h (4 Bft) 96,00 %
09.03.2017 17:28 7,9 C 91 % 1017,8 hPa 0,0 l/m 16,7 km/h (3 Bft) SW 222 0 min 0,000 mm 0,0 UV-I 18 W/m 6,5 C 1,8 C 22,5 km/h (4 Bft) 94,74 %
09.03.2017 17:30 7,9 C 91 % 1017,8 hPa 0,0 l/m 13,6 km/h (3 Bft) SW 232 0 min 0,000 mm 0,0 UV-I 17 W/m 6,5 C 3,3 C 22,5 km/h (4 Bft) 92,00 %
09.03.2017 17:32 7,9 C 91 % 1017,8 hPa 0,0 l/m 13,0 km/h (3 Bft) SW 227 0 min 0,000 mm 0,0 UV-I 16 W/m 6,5 C 3,6 C 20,9 km/h (4 Bft) 96,00 %
09.03.2017 17:34 7,9 C 91 % 1017,8 hPa 0,0 l/m 14,9 km/h (3 Bft) SW 232 0 min 0,000 mm 0,0 UV-I 15 W/m 6,5 C 2,6 C 24,1 km/h (4 Bft) 96,00 %
09.03.2017 17:36 7,8 C 91 % 1017,8 hPa 0,0 l/m 14,1 km/h (3 Bft) SW 232 0 min 0,000 mm 0,0 UV-I 12 W/m 6,4 C 2,9 C 17,7 km/h (3 Bft) 89,47 %
09.03.2017 17:38 7,8 C 91 % 1017,7 hPa 0,0 l/m 15,0 km/h (3 Bft) SW 230 0 min 0,000 mm 0,0 UV-I 12 W/m 6,4 C 2,5 C 24,1 km/h (4 Bft) 95,45 %
09.03.2017 17:40 7,8 C 91 % 1017,7 hPa 0,0 l/m 13,1 km/h (3 Bft) W-SW 250 0 min 0,000 mm 0,0 UV-I 11 W/m 6,4 C 3,4 C 24,1 km/h (4 Bft) 91,07 %
09.03.2017 17:42 7,8 C 91 % 1017,7 hPa 0,0 l/m 14,0 km/h (3 Bft) SW 235 0 min 0,000 mm 0,0 UV-I 11 W/m 6,4 C 2,9 C 20,9 km/h (4 Bft) 95,45 %
09.03.2017 17:44 7,8 C 91 % 1017,7 hPa 0,0 l/m 18,3 km/h (3 Bft) SW 221 0 min 0,000 mm 0,0 UV-I 9 W/m 6,4 C 1,1 C 27,4 km/h (4 Bft) 90,24 %
09.03.2017 17:46 7,8 C 91 % 1017,7 hPa 0,0 l/m 16,7 km/h (3 Bft) SW 231 0 min 0,000 mm 0,0 UV-I 8 W/m 6,4 C 1,7 C 25,7 km/h (4 Bft) 88,68 %
09.03.2017 17:48 7,7 C 90 % 1017,7 hPa 0,2 l/m 15,0 km/h (3 Bft) W 266 0 min 0,000 mm 0,0 UV-I 7 W/m 6,2 C 2,3 C 22,5 km/h (4 Bft) 93,62 %
09.03.2017 17:50 7,7 C 91 % 1017,7 hPa 0,0 l/m 15,6 km/h (3 Bft) SW 222 0 min 0,000 mm 0,0 UV-I 5 W/m 6,3 C 2,1 C 22,5 km/h (4 Bft) 92,00 %
09.03.2017 17:52 7,7 C 90 % 1017,8 hPa 0,0 l/m 19,8 km/h (3 Bft) W-SW 238 0 min 0,000 mm 0,0 UV-I 5 W/m 6,2 C 0,4 C 29,0 km/h (5 Bft) 94,74 %
09.03.2017 17:54 7,7 C 90 % 1017,8 hPa 0,0 l/m 14,1 km/h (3 Bft) W-SW 239 0 min 0,000 mm 0,0 UV-I 5 W/m 6,2 C 2,8 C 20,9 km/h (4 Bft) 94,00 %
09.03.2017 17:56 7,7 C 90 % 1017,8 hPa 0,0 l/m 15,1 km/h (3 Bft) S-SW 207 0 min 0,000 mm 0,0 UV-I 5 W/m 6,2 C 2,3 C 24,1 km/h (4 Bft) 92,00 %
09.03.2017 17:58 7,6 C 90 % 1017,8 hPa 0,0 l/m 13,8 km/h (3 Bft) W-SW 244 0 min 0,000 mm 0,0 UV-I 5 W/m 6,1 C 2,8 C 20,9 km/h (4 Bft) 95,24 %
09.03.2017 18:00 7,6 C 90 % 1017,8 hPa 0,0 l/m 12,0 km/h (2 Bft) W-SW 241 0 min 0,000 mm 0,0 UV-I 5 W/m 6,1 C 3,8 C 20,9 km/h (4 Bft) 98,18 %
09.03.2017 18:02 7,6 C 90 % 1017,8 hPa 0,0 l/m 13,7 km/h (3 Bft) W-SW 242 0 min 0,025 mm 0,0 UV-I 2 W/m 6,1 C 2,9 C 19,3 km/h (3 Bft) 92,31 %
09.03.2017 18:04 7,6 C 90 % 1017,8 hPa 0,0 l/m 17,3 km/h (3 Bft) SW 218 0 min 0,000 mm 0,0 UV-I 0 W/m 6,1 C 1,2 C 24,1 km/h (4 Bft) 91,49 %
09.03.2017 18:06 7,5 C 90 % 1017,9 hPa 0,0 l/m 11,4 km/h (2 Bft) SW 229 0 min 0,000 mm 0,0 UV-I 0 W/m 6,0 C 4,0 C 16,1 km/h (3 Bft) 96,23 %
09.03.2017 18:08 7,5 C 90 % 1017,9 hPa 0,0 l/m 11,8 km/h (2 Bft) S-SW 200 0 min 0,000 mm 0,0 UV-I 0 W/m 6,0 C 3,7 C 17,7 km/h (3 Bft) 90,91 %
09.03.2017 18:10 7,4 C 90 % 1017,8 hPa 0,0 l/m 13,7 km/h (3 Bft) S-SW 205 0 min 0,000 mm 0,0 UV-I 0 W/m 5,9 C 2,6 C 19,3 km/h (3 Bft) 98,00 %
09.03.2017 18:12 7,4 C 90 % 1017,9 hPa 0,0 l/m 14,7 km/h (3 Bft) SW 221 0 min 0,000 mm 0,0 UV-I 0 W/m 5,9 C 2,1 C 24,1 km/h (4 Bft) 92,11 %
09.03.2017 18:14 7,4 C 90 % 1017,9 hPa 0,0 l/m 12,2 km/h (2 Bft) SW 217 0 min 0,000 mm 0,0 UV-I 0 W/m 5,9 C 3,4 C 17,7 km/h (3 Bft) 98,21 %
09.03.2017 18:16 7,4 C 90 % 1017,9 hPa 0,0 l/m 15,7 km/h (3 Bft) W-SW 258 0 min 0,000 mm 0,0 UV-I 0 W/m 5,9 C 1,7 C 22,5 km/h (4 Bft) 100,00 %
09.03.2017 18:18 7,4 C 90 % 1017,8 hPa 0,0 l/m 13,0 km/h (3 Bft) SW 222 0 min 0,000 mm 0,0 UV-I 0 W/m 5,9 C 3,0 C 19,3 km/h (3 Bft) 92,00 %
09.03.2017 18:20 7,4 C 90 % 1017,8 hPa 0,2 l/m 17,6 km/h (3 Bft) SW 223 0 min 0,000 mm 0,0 UV-I 0 W/m 5,9 C 0,8 C 22,5 km/h (4 Bft) 94,34 %
09.03.2017 18:22 7,4 C 90 % 1017,8 hPa 0,0 l/m 11,9 km/h (2 Bft) W-SW 238 0 min 0,000 mm 0,0 UV-I 0 W/m 5,9 C 3,6 C 19,3 km/h (3 Bft) 100,00 %
09.03.2017 18:24 7,3 C 90 % 1017,9 hPa 0,0 l/m 11,7 km/h (2 Bft) W-SW 237 0 min 0,000 mm 0,0 UV-I 0 W/m 5,8 C 3,6 C 17,7 km/h (3 Bft) 98,00 %
09.03.2017 18:26 7,3 C 90 % 1017,9 hPa 0,0 l/m 17,0 km/h (3 Bft) SW 232 0 min 0,000 mm 0,0 UV-I 0 W/m 5,8 C 1,0 C 22,5 km/h (4 Bft) 90,91 %
09.03.2017 18:28 7,3 C 90 % 1017,9 hPa 0,0 l/m 12,3 km/h (3 Bft) SW 227 0 min 0,000 mm 0,0 UV-I 0 W/m 5,8 C 3,2 C 20,9 km/h (4 Bft) 100,00 %
09.03.2017 18:30 7,3 C 91 % 1017,9 hPa 0,0 l/m 16,4 km/h (3 Bft) S-SW 213 0 min 0,000 mm 0,0 UV-I 0 W/m 5,9 C 1,2 C 24,1 km/h (4 Bft) 98,21 %
09.03.2017 18:32 7,3 C 90 % 1017,9 hPa 0,0 l/m 15,1 km/h (3 Bft) SW 234 0 min 0,000 mm 0,0 UV-I 0 W/m 5,8 C 1,8 C 20,9 km/h (4 Bft) 100,00 %
09.03.2017 18:34 7,3 C 91 % 1017,9 hPa 0,0 l/m 9,8 km/h (2 Bft) W-SW 241 0 min 0,000 mm 0,0 UV-I 0 W/m 5,9 C 4,7 C 16,1 km/h (3 Bft) 98,00 %
09.03.2017 18:36 7,3 C 91 % 1017,9 hPa 0,0 l/m 13,1 km/h (3 Bft) SW 220 0 min 0,000 mm 0,0 UV-I 0 W/m 5,9 C 2,8 C 22,5 km/h (4 Bft) 100,00 %
09.03.2017 18:38 7,3 C 91 % 1018,0 hPa 0,0 l/m 13,5 km/h (3 Bft) SW 232 0 min 0,000 mm 0,0 UV-I 0 W/m 5,9 C 2,6 C 20,9 km/h (4 Bft) 100,00 %
09.03.2017 18:40 7,3 C 91 % 1018,0 hPa 0,0 l/m 12,8 km/h (3 Bft) W-SW 246 0 min 0,000 mm 0,0 UV-I 0 W/m 5,9 C 3,0 C 20,9 km/h (4 Bft) 96,23 %
09.03.2017 18:42 7,3 C 91 % 1018,0 hPa 0,0 l/m 11,7 km/h (2 Bft) W-SW 238 0 min 0,000 mm 0,0 UV-I 0 W/m 5,9 C 3,6 C 16,1 km/h (3 Bft) 97,87 %
09.03.2017 18:44 7,2 C 91 % 1018,1 hPa 0,0 l/m 11,3 km/h (2 Bft) W-SW 250 0 min 0,000 mm 0,0 UV-I 0 W/m 5,8 C 3,7 C 17,7 km/h (3 Bft) 100,00 %
09.03.2017 18:46 7,2 C 91 % 1018,0 hPa 0,0 l/m 9,9 km/h (2 Bft) SW 233 0 min 0,000 mm 0,0 UV-I 0 W/m 5,8 C 4,6 C 16,1 km/h (3 Bft) 100,00 %
09.03.2017 18:48 7,2 C 91 % 1017,9 hPa 0,0 l/m 8,9 km/h (2 Bft) SW 221 0 min 0,000 mm 0,0 UV-I 0 W/m 5,8 C 5,2 C 14,5 km/h (3 Bft) 97,56 %
09.03.2017 18:50 7,2 C 91 % 1017,9 hPa 0,0 l/m 11,3 km/h (2 Bft) W-SW 250 0 min 0,000 mm 0,0 UV-I 0 W/m 5,8 C 3,7 C 17,7 km/h (3 Bft) 98,11 %
09.03.2017 18:52 7,2 C 91 % 1017,8 hPa 0,0 l/m 11,3 km/h (2 Bft) S-SW 205 0 min 0,000 mm 0,0 UV-I 0 W/m 5,8 C 3,7 C 19,3 km/h (3 Bft) 100,00 %
09.03.2017 18:54 7,2 C 91 % 1017,7 hPa 0,0 l/m 13,2 km/h (3 Bft) SW 227 0 min 0,000 mm 0,0 UV-I 0 W/m 5,8 C 2,6 C 19,3 km/h (3 Bft) 98,11 %
09.03.2017 18:56 7,2 C 91 % 1017,8 hPa 0,0 l/m 13,4 km/h (3 Bft) SW 227 0 min 0,000 mm 0,0 UV-I 0 W/m 5,8 C 2,5 C 19,3 km/h (3 Bft) 98,00 %
09.03.2017 18:58 7,2 C 91 % 1017,8 hPa 0,0 l/m 13,7 km/h (3 Bft) S-SW 213 0 min 0,000 mm 0,0 UV-I 0 W/m 5,8 C 2,4 C 22,5 km/h (4 Bft) 94,87 %
09.03.2017 19:00 7,2 C 91 % 1017,9 hPa 0,0 l/m 13,2 km/h (3 Bft) S-SW 206 0 min 0,000 mm 0,0 UV-I 0 W/m 5,8 C 2,6 C 19,3 km/h (3 Bft) 90,00 %
09.03.2017 19:02 7,3 C 91 % 1017,9 hPa 0,0 l/m 11,4 km/h (2 Bft) SW 226 0 min 0,026 mm 0,0 UV-I 0 W/m 5,9 C 3,8 C 20,9 km/h (4 Bft) 100,00 %
09.03.2017 19:04 7,3 C 91 % 1018,0 hPa 0,0 l/m 13,1 km/h (3 Bft) SW 221 0 min 0,000 mm 0,0 UV-I 0 W/m 5,9 C 2,8 C 19,3 km/h (3 Bft) 86,84 %
09.03.2017 19:06 7,3 C 91 % 1017,9 hPa 0,0 l/m 12,3 km/h (3 Bft) W-SW 247 0 min 0,000 mm 0,0 UV-I 0 W/m 5,9 C 3,2 C 20,9 km/h (4 Bft) 98,11 %
09.03.2017 19:08 7,3 C 91 % 1017,9 hPa 0,0 l/m 10,1 km/h (2 Bft) SW 226 0 min 0,000 mm 0,0 UV-I 0 W/m 5,9 C 4,5 C 16,1 km/h (3 Bft) 100,00 %
09.03.2017 19:10 7,2 C 91 % 1017,9 hPa 0,0 l/m 13,8 km/h (3 Bft) W-SW 252 0 min 0,000 mm 0,0 UV-I 0 W/m 5,8 C 2,3 C 19,3 km/h (3 Bft) 98,21 %
09.03.2017 19:12 7,2 C 91 % 1017,9 hPa 0,0 l/m 10,9 km/h (2 Bft) S-SW 204 0 min 0,000 mm 0,0 UV-I 0 W/m 5,8 C 3,9 C 22,5 km/h (4 Bft) 97,73 %
09.03.2017 19:14 7,2 C 91 % 1017,9 hPa 0,0 l/m 10,3 km/h (2 Bft) S-SW 212 0 min 0,000 mm 0,0 UV-I 0 W/m 5,8 C 4,3 C 17,7 km/h (3 Bft) 100,00 %
09.03.2017 19:16 7,2 C 91 % 1017,9 hPa 0,0 l/m 11,6 km/h (2 Bft) W-SW 257 0 min 0,000 mm 0,0 UV-I 0 W/m 5,8 C 3,5 C 17,7 km/h (3 Bft) 97,44 %
09.03.2017 19:18 7,2 C 91 % 1017,9 hPa 0,0 l/m 11,6 km/h (2 Bft) SW 231 0 min 0,000 mm 0,0 UV-I 0 W/m 5,8 C 3,5 C 19,3 km/h (3 Bft) 96,23 %
09.03.2017 19:20 7,2 C 91 % 1017,9 hPa 0,0 l/m 13,4 km/h (3 Bft) SW 221 0 min 0,000 mm 0,0 UV-I 0 W/m 5,8 C 2,5 C 20,9 km/h (4 Bft) 96,36 %
09.03.2017 19:22 7,2 C 91 % 1017,9 hPa 0,0 l/m 10,4 km/h (2 Bft) S 190 0 min 0,000 mm 0,0 UV-I 0 W/m 5,8 C 4,2 C 17,7 km/h (3 Bft) 95,56 %
09.03.2017 19:24 7,2 C 91 % 1017,9 hPa 0,0 l/m 13,4 km/h (3 Bft) SW 220 0 min 0,000 mm 0,0 UV-I 0 W/m 5,8 C 2,5 C 20,9 km/h (4 Bft) 100,00 %
09.03.2017 19:26 7,2 C 91 % 1017,8 hPa 0,0 l/m 12,1 km/h (2 Bft) W-SW 237 0 min 0,000 mm 0,0 UV-I 0 W/m 5,8 C 3,2 C 17,7 km/h (3 Bft) 98,11 %
09.03.2017 19:28 7,2 C 91 % 1017,8 hPa 0,0 l/m 13,1 km/h (3 Bft) SW 236 0 min 0,000 mm 0,0 UV-I 0 W/m 5,8 C 2,7 C 19,3 km/h (3 Bft) 95,74 %
09.03.2017 19:30 7,2 C 91 % 1017,7 hPa 0,0 l/m 11,6 km/h (2 Bft) W-SW 238 0 min 0,000 mm 0,0 UV-I 0 W/m 5,8 C 3,5 C 19,3 km/h (3 Bft) 97,56 %
09.03.2017 19:32 7,3 C 91 % 1017,7 hPa 0,0 l/m 8,6 km/h (2 Bft) S-SW 198 0 min 0,000 mm 0,0 UV-I 0 W/m 5,9 C 5,6 C 17,7 km/h (3 Bft) 97,87 %
09.03.2017 19:34 7,2 C 91 % 1017,8 hPa 0,0 l/m 13,7 km/h (3 Bft) W-SW 242 0 min 0,000 mm 0,0 UV-I 0 W/m 5,8 C 2,4 C 19,3 km/h (3 Bft) 95,12 %
09.03.2017 19:36 7,2 C 91 % 1017,8 hPa 0,0 l/m 14,1 km/h (3 Bft) SW 235 0 min 0,000 mm 0,0 UV-I 0 W/m 5,8 C 2,2 C 24,1 km/h (4 Bft) 98,11 %
09.03.2017 19:38 7,2 C 91 % 1017,7 hPa 0,0 l/m 16,6 km/h (3 Bft) S-SW 202 0 min 0,000 mm 0,0 UV-I 0 W/m 5,8 C 1,0 C 24,1 km/h (4 Bft) 95,45 %
09.03.2017 19:40 7,2 C 91 % 1017,8 hPa 0,0 l/m 17,1 km/h (3 Bft) S-SW 207 0 min 0,000 mm 0,0 UV-I 0 W/m 5,8 C 0,8 C 25,7 km/h (4 Bft) 94,64 %
09.03.2017 19:42 7,2 C 91 % 1017,7 hPa 0,0 l/m 14,9 km/h (3 Bft) W-SW 258 0 min 0,000 mm 0,0 UV-I 0 W/m 5,8 C 1,8 C 20,9 km/h (4 Bft) 94,74 %
09.03.2017 19:44 7,2 C 91 % 1017,7 hPa 0,0 l/m 14,6 km/h (3 Bft) W-SW 252 0 min 0,000 mm 0,0 UV-I 0 W/m 5,8 C 1,9 C 22,5 km/h (4 Bft) 96,00 %
09.03.2017 19:46 7,2 C 91 % 1017,7 hPa 0,0 l/m 14,2 km/h (3 Bft) SW 231 0 min 0,000 mm 0,0 UV-I 0 W/m 5,8 C 2,1 C 20,9 km/h (4 Bft) 96,23 %
09.03.2017 19:48 7,2 C 92 % 1017,7 hPa 0,0 l/m 17,5 km/h (3 Bft) W 263 0 min 0,000 mm 0,0 UV-I 0 W/m 6,0 C 0,6 C 25,7 km/h (4 Bft) 97,37 %
09.03.2017 19:50 7,2 C 91 % 1017,7 hPa 0,0 l/m 15,9 km/h (3 Bft) W-SW 250 0 min 0,000 mm 0,0 UV-I 0 W/m 5,8 C 1,3 C 22,5 km/h (4 Bft) 94,64 %
09.03.2017 19:52 7,2 C 91 % 1017,7 hPa 0,0 l/m 15,4 km/h (3 Bft) W-SW 250 0 min 0,000 mm 0,0 UV-I 0 W/m 5,8 C 1,6 C 24,1 km/h (4 Bft) 97,56 %
09.03.2017 19:54 7,2 C 91 % 1017,6 hPa 0,0 l/m 14,0 km/h (3 Bft) W-SW 243 0 min 0,000 mm 0,0 UV-I 0 W/m 5,8 C 2,2 C 19,3 km/h (3 Bft) 91,11 %
09.03.2017 19:56 7,2 C 91 % 1017,6 hPa 0,0 l/m 11,9 km/h (2 Bft) SW 234 0 min 0,000 mm 0,0 UV-I 0 W/m 5,8 C 3,3 C 16,1 km/h (3 Bft) 98,08 %
09.03.2017 19:58 7,2 C 92 % 1017,6 hPa 0,0 l/m 11,5 km/h (2 Bft) W-SW 257 0 min 0,000 mm 0,0 UV-I 0 W/m 6,0 C 3,6 C 17,7 km/h (3 Bft) 92,86 %
09.03.2017 20:00 7,2 C 92 % 1017,6 hPa 0,0 l/m 10,2 km/h (2 Bft) SW 232 0 min 0,000 mm 0,0 UV-I 0 W/m 6,0 C 4,4 C 17,7 km/h (3 Bft) 96,55 %
09.03.2017 20:02 7,2 C 92 % 1017,5 hPa 0,0 l/m 11,1 km/h (2 Bft) S-SW 213 0 min 0,025 mm 0,0 UV-I 0 W/m 6,0 C 3,8 C 16,1 km/h (3 Bft) 92,65 %
09.03.2017 20:04 7,1 C 92 % 1017,5 hPa 0,0 l/m 11,1 km/h (2 Bft) SW 220 0 min 0,000 mm 0,0 UV-I 0 W/m 5,9 C 3,7 C 17,7 km/h (3 Bft) 97,14 %
09.03.2017 20:06 7,1 C 92 % 1017,5 hPa 0,0 l/m 10,3 km/h (2 Bft) SW 233 0 min 0,000 mm 0,0 UV-I 0 W/m 5,9 C 4,2 C 14,5 km/h (3 Bft) 96,23 %
09.03.2017 20:08 7,1 C 92 % 1017,4 hPa 0,0 l/m 11,1 km/h (2 Bft) W-SW 247 0 min 0,000 mm 0,0 UV-I 0 W/m 5,9 C 3,7 C 20,9 km/h (4 Bft) 98,21 %
09.03.2017 20:10 7,2 C 92 % 1017,4 hPa 0,0 l/m 13,8 km/h (3 Bft) SW 222 0 min 0,000 mm 0,0 UV-I 0 W/m 6,0 C 2,3 C 20,9 km/h (4 Bft) 97,73 %
09.03.2017 20:12 7,1 C 92 % 1017,3 hPa 0,0 l/m 14,3 km/h (3 Bft) S-SW 205 0 min 0,000 mm 0,0 UV-I 0 W/m 5,9 C 2,0 C 22,5 km/h (4 Bft) 95,12 %
09.03.2017 20:14 7,2 C 92 % 1017,3 hPa 0,0 l/m 10,9 km/h (2 Bft) W-SW 238 0 min 0,000 mm 0,0 UV-I 0 W/m 6,0 C 3,9 C 16,1 km/h (3 Bft) 94,00 %
09.03.2017 20:16 7,2 C 91 % 1017,3 hPa 0,0 l/m 11,1 km/h (2 Bft) W 259 0 min 0,000 mm 0,0 UV-I 0 W/m 5,8 C 3,8 C 16,1 km/h (3 Bft) 97,56 %
09.03.2017 20:18 7,2 C 91 % 1017,3 hPa 0,0 l/m 11,8 km/h (2 Bft) SW 227 0 min 0,000 mm 0,0 UV-I 0 W/m 5,8 C 3,4 C 17,7 km/h (3 Bft) 96,43 %
09.03.2017 20:20 7,2 C 91 % 1017,3 hPa 0,0 l/m 9,4 km/h (2 Bft) SW 224 0 min 0,000 mm 0,0 UV-I 0 W/m 5,8 C 4,9 C 16,1 km/h (3 Bft) 100,00 %
09.03.2017 20:22 7,2 C 91 % 1017,2 hPa 0,0 l/m 11,4 km/h (2 Bft) S-SW 207 0 min 0,000 mm 0,0 UV-I 0 W/m 5,8 C 3,6 C 19,3 km/h (3 Bft) 93,62 %
09.03.2017 20:24 7,2 C 91 % 1017,3 hPa 0,0 l/m 9,6 km/h (2 Bft) SW 225 0 min 0,000 mm 0,0 UV-I 0 W/m 5,8 C 4,8 C 17,7 km/h (3 Bft) 100,00 %
09.03.2017 20:26 7,2 C 91 % 1017,3 hPa 0,0 l/m 9,4 km/h (2 Bft) SW 228 0 min 0,000 mm 0,0 UV-I 0 W/m 5,8 C 4,9 C 12,9 km/h (3 Bft) 96,97 %
09.03.2017 20:28 7,2 C 91 % 1017,2 hPa 0,0 l/m 13,4 km/h (3 Bft) S-SW 206 0 min 0,000 mm 0,0 UV-I 0 W/m 5,8 C 2,5 C 22,5 km/h (4 Bft) 98,28 %
09.03.2017 20:30 7,2 C 91 % 1017,2 hPa 0,0 l/m 13,5 km/h (3 Bft) SW 230 0 min 0,000 mm 0,0 UV-I 0 W/m 5,8 C 2,5 C 20,9 km/h (4 Bft) 98,00 %
09.03.2017 20:32 7,2 C 92 % 1017,3 hPa 0,0 l/m 14,8 km/h (3 Bft) SW 231 0 min 0,000 mm 0,0 UV-I 0 W/m 6,0 C 1,8 C 22,5 km/h (4 Bft) 100,00 %
09.03.2017 20:34 7,2 C 92 % 1017,2 hPa 0,0 l/m 15,2 km/h (3 Bft) SW 235 0 min 0,000 mm 0,0 UV-I 0 W/m 6,0 C 1,6 C 24,1 km/h (4 Bft) 98,11 %
09.03.2017 20:36 7,2 C 92 % 1017,2 hPa 0,0 l/m 15,6 km/h (3 Bft) W-SW 238 0 min 0,000 mm 0,0 UV-I 0 W/m 6,0 C 1,5 C 24,1 km/h (4 Bft) 100,00 %
09.03.2017 20:38 7,2 C 92 % 1017,2 hPa 0,0 l/m 13,3 km/h (3 Bft) S-SW 213 0 min 0,000 mm 0,0 UV-I 0 W/m 6,0 C 2,6 C 19,3 km/h (3 Bft) 96,43 %
09.03.2017 20:40 7,2 C 92 % 1017,2 hPa 0,0 l/m 14,0 km/h (3 Bft) S-SW 207 0 min 0,000 mm 0,0 UV-I 0 W/m 6,0 C 2,2 C 27,4 km/h (4 Bft) 100,00 %
09.03.2017 20:42 7,2 C 92 % 1017,1 hPa 0,0 l/m 16,8 km/h (3 Bft) S 178 0 min 0,000 mm 0,0 UV-I 0 W/m 6,0 C 0,9 C 30,6 km/h (5 Bft) 97,73 %
09.03.2017 20:44 7,2 C 92 % 1017,1 hPa 0,0 l/m 13,7 km/h (3 Bft) SW 227 0 min 0,000 mm 0,0 UV-I 0 W/m 6,0 C 2,4 C 20,9 km/h (4 Bft) 96,43 %
09.03.2017 20:46 7,2 C 92 % 1017,1 hPa 0,0 l/m 16,4 km/h (3 Bft) W-SW 243 0 min 0,000 mm 0,0 UV-I 0 W/m 6,0 C 1,1 C 30,6 km/h (5 Bft) 100,00 %
09.03.2017 20:48 7,2 C 92 % 1017,1 hPa 0,0 l/m 15,3 km/h (3 Bft) S-SW 210 0 min 0,000 mm 0,0 UV-I 0 W/m 6,0 C 1,6 C 22,5 km/h (4 Bft) 97,96 %
09.03.2017 20:50 7,2 C 92 % 1017,0 hPa 0,0 l/m 11,5 km/h (2 Bft) S-SW 201 0 min 0,000 mm 0,0 UV-I 0 W/m 6,0 C 3,6 C 17,7 km/h (3 Bft) 97,56 %
09.03.2017 20:52 7,3 C 92 % 1016,9 hPa 0,0 l/m 12,1 km/h (2 Bft) W-SW 238 0 min 0,000 mm 0,0 UV-I 0 W/m 6,1 C 3,3 C 16,1 km/h (3 Bft) 100,00 %
09.03.2017 20:54 7,3 C 92 % 1017,0 hPa 0,0 l/m 14,1 km/h (3 Bft) S-SW 209 0 min 0,000 mm 0,0 UV-I 0 W/m 6,1 C 2,3 C 22,5 km/h (4 Bft) 96,23 %
09.03.2017 20:56 7,3 C 92 % 1017,0 hPa 0,0 l/m 17,2 km/h (3 Bft) W-SW 252 0 min 0,000 mm 0,0 UV-I 0 W/m 6,1 C 0,9 C 25,7 km/h (4 Bft) 97,56 %
09.03.2017 20:58 7,3 C 92 % 1016,9 hPa 0,0 l/m 13,8 km/h (3 Bft) W-SW 244 0 min 0,000 mm 0,0 UV-I 0 W/m 6,1 C 2,4 C 25,7 km/h (4 Bft) 98,08 %
09.03.2017 21:00 7,3 C 92 % 1017,0 hPa 0,0 l/m 14,3 km/h (3 Bft) SW 226 0 min 0,000 mm 0,0 UV-I 0 W/m 6,1 C 2,2 C 29,0 km/h (5 Bft) 96,00 %
09.03.2017 21:02 7,3 C 92 % 1017,0 hPa 0,0 l/m 14,7 km/h (3 Bft) W-SW 241 0 min 0,000 mm 0,0 UV-I 0 W/m 6,1 C 2,0 C 22,5 km/h (4 Bft) 95,83 %
09.03.2017 21:04 7,3 C 92 % 1016,9 hPa 0,0 l/m 16,9 km/h (3 Bft) W-SW 242 0 min 0,000 mm 0,0 UV-I 0 W/m 6,1 C 1,0 C 24,1 km/h (4 Bft) 96,55 %
09.03.2017 21:06 7,3 C 92 % 1017,0 hPa 0,0 l/m 15,5 km/h (3 Bft) S-SW 202 0 min 0,000 mm 0,0 UV-I 0 W/m 6,1 C 1,6 C 22,5 km/h (4 Bft) 98,11 %
09.03.2017 21:08 7,3 C 92 % 1016,9 hPa 0,2 l/m 16,1 km/h (3 Bft) SW 233 0 min 0,000 mm 0,0 UV-I 0 W/m 6,1 C 1,4 C 22,5 km/h (4 Bft) 96,15 %
09.03.2017 21:10 7,3 C 92 % 1016,9 hPa 0,0 l/m 11,3 km/h (2 Bft) SW 221 0 min 0,000 mm 0,0 UV-I 0 W/m 6,1 C 3,8 C 16,1 km/h (3 Bft) 97,73 %
09.03.2017 21:12 7,3 C 92 % 1016,9 hPa 0,0 l/m 16,0 km/h (3 Bft) SW 232 0 min 0,000 mm 0,0 UV-I 0 W/m 6,1 C 1,4 C 22,5 km/h (4 Bft) 94,00 %
09.03.2017 21:14 7,3 C 92 % 1016,8 hPa 0,2 l/m 13,4 km/h (3 Bft) W-SW 254 0 min 0,000 mm 0,0 UV-I 0 W/m 6,1 C 2,7 C 19,3 km/h (3 Bft) 94,87 %
09.03.2017 21:16 7,3 C 92 % 1016,8 hPa 0,0 l/m 10,1 km/h (2 Bft) SW 214 0 min 0,000 mm 0,0 UV-I 0 W/m 6,1 C 4,5 C 16,1 km/h (3 Bft) 98,00 %
09.03.2017 21:18 7,2 C 92 % 1016,9 hPa 0,2 l/m 13,9 km/h (3 Bft) SW 235 0 min 0,000 mm 0,0 UV-I 0 W/m 6,0 C 2,3 C 19,3 km/h (3 Bft) 95,45 %
09.03.2017 21:20 7,2 C 93 % 1016,8 hPa 0,0 l/m 12,8 km/h (3 Bft) SW 215 0 min 0,000 mm 0,0 UV-I 0 W/m 6,1 C 2,8 C 19,3 km/h (3 Bft) 98,00 %
09.03.2017 21:22 7,2 C 93 % 1016,8 hPa 0,0 l/m 12,1 km/h (2 Bft) SW 215 0 min 0,000 mm 0,0 UV-I 0 W/m 6,1 C 3,2 C 19,3 km/h (3 Bft) 96,00 %
09.03.2017 21:24 7,2 C 93 % 1016,8 hPa 0,0 l/m 12,6 km/h (3 Bft) SW 232 0 min 0,000 mm 0,0 UV-I 0 W/m 6,1 C 3,0 C 20,9 km/h (4 Bft) 97,56 %
09.03.2017 21:26 7,1 C 93 % 1016,9 hPa 0,0 l/m 14,2 km/h (3 Bft) S-SW 207 0 min 0,000 mm 0,0 UV-I 0 W/m 6,0 C 2,0 C 19,3 km/h (3 Bft) 96,23 %
09.03.2017 21:28 7,1 C 93 % 1016,9 hPa 0,2 l/m 16,9 km/h (3 Bft) SW 234 0 min 0,000 mm 0,0 UV-I 0 W/m 6,0 C 0,8 C 25,7 km/h (4 Bft) 95,74 %
09.03.2017 21:30 7,1 C 93 % 1016,8 hPa 0,0 l/m 15,9 km/h (3 Bft) W-SW 250 0 min 0,000 mm 0,0 UV-I 0 W/m 6,0 C 1,2 C 22,5 km/h (4 Bft) 97,87 %
09.03.2017 21:32 7,1 C 93 % 1016,7 hPa 0,2 l/m 13,0 km/h (3 Bft) W-SW 246 0 min 0,000 mm 0,0 UV-I 0 W/m 6,0 C 2,6 C 19,3 km/h (3 Bft) 92,11 %
09.03.2017 21:34 7,1 C 94 % 1016,7 hPa 0,0 l/m 13,2 km/h (3 Bft) W 262 0 min 0,000 mm 0,0 UV-I 0 W/m 6,2 C 2,5 C 17,7 km/h (3 Bft) 94,34 %
09.03.2017 21:36 7,1 C 94 % 1016,7 hPa 0,0 l/m 14,0 km/h (3 Bft) SW 222 0 min 0,000 mm 0,0 UV-I 0 W/m 6,2 C 2,1 C 20,9 km/h (4 Bft) 95,12 %
09.03.2017 21:38 7,1 C 94 % 1016,6 hPa 0,2 l/m 14,0 km/h (3 Bft) S-SW 212 0 min 0,000 mm 0,0 UV-I 0 W/m 6,2 C 2,1 C 24,1 km/h (4 Bft) 96,43 %
09.03.2017 21:40 7,1 C 94 % 1016,5 hPa 0,0 l/m 14,8 km/h (3 Bft) S-SW 198 0 min 0,000 mm 0,0 UV-I 0 W/m 6,2 C 1,7 C 24,1 km/h (4 Bft) 95,12 %
09.03.2017 21:43 7,1 C 94 % 1016,4 hPa 0,2 l/m 12,1 km/h (2 Bft) SW 231 0 min 0,000 mm 0,0 UV-I 0 W/m 6,2 C 3,1 C 19,3 km/h (3 Bft) 97,40 %
09.03.2017 21:44 7,1 C 94 % 1016,4 hPa 0,0 l/m 11,4 km/h (2 Bft) SW 223 0 min 0,000 mm 0,0 UV-I 0 W/m 6,2 C 3,5 C 16,1 km/h (3 Bft) 96,06 %
09.03.2017 21:46 7,1 C 94 % 1016,4 hPa 0,0 l/m 9,8 km/h (2 Bft) S-SW 209 0 min 0,000 mm 0,0 UV-I 0 W/m 6,2 C 4,5 C 16,1 km/h (3 Bft) 96,55 %
09.03.2017 21:48 7,2 C 94 % 1016,3 hPa 0,0 l/m 5,7 km/h (1 Bft) SW 236 0 min 0,000 mm 0,0 UV-I 0 W/m 6,3 C 7,2 C 8,0 km/h (2 Bft) 94,64 %
09.03.2017 21:50 7,2 C 94 % 1016,3 hPa 0,0 l/m 7,1 km/h (2 Bft) S-SW 203 0 min 0,000 mm 0,0 UV-I 0 W/m 6,3 C 6,6 C 12,9 km/h (3 Bft) 93,18 %
09.03.2017 21:52 7,1 C 94 % 1016,2 hPa 0,0 l/m 7,9 km/h (2 Bft) S-SW 207 0 min 0,000 mm 0,0 UV-I 0 W/m 6,2 C 5,9 C 11,3 km/h (2 Bft) 92,86 %
09.03.2017 21:54 7,2 C 94 % 1016,2 hPa 0,0 l/m 9,0 km/h (2 Bft) W-SW 240 0 min 0,000 mm 0,0 UV-I 0 W/m 6,3 C 5,2 C 11,3 km/h (2 Bft) 95,45 %
09.03.2017 21:56 7,2 C 94 % 1016,0 hPa 0,0 l/m 8,4 km/h (2 Bft) S-SW 200 0 min 0,000 mm 0,0 UV-I 0 W/m 6,3 C 5,6 C 14,5 km/h (3 Bft) 94,00 %
09.03.2017 21:58 7,1 C 94 % 1015,9 hPa 0,0 l/m 7,6 km/h (2 Bft) SW 215 0 min 0,000 mm 0,0 UV-I 0 W/m 6,2 C 6,1 C 12,9 km/h (3 Bft) 93,62 %
09.03.2017 22:00 7,1 C 94 % 1015,8 hPa 0,0 l/m 8,6 km/h (2 Bft) SW 221 0 min 0,000 mm 0,0 UV-I 0 W/m 6,2 C 5,4 C 11,3 km/h (2 Bft) 92,73 %
09.03.2017 22:02 7,1 C 94 % 1015,7 hPa 0,0 l/m 9,4 km/h (2 Bft) SW 228 0 min 0,000 mm 0,0 UV-I 0 W/m 6,2 C 4,8 C 12,9 km/h (3 Bft) 92,68 %
09.03.2017 22:04 7,1 C 94 % 1015,7 hPa 0,0 l/m 9,3 km/h (2 Bft) S-SW 200 0 min 0,000 mm 0,0 UV-I 0 W/m 6,2 C 4,9 C 12,9 km/h (3 Bft) 94,34 %
09.03.2017 22:06 7,1 C 94 % 1015,7 hPa 0,0 l/m 10,4 km/h (2 Bft) S-SW 211 0 min 0,000 mm 0,0 UV-I 0 W/m 6,2 C 4,1 C 12,9 km/h (3 Bft) 95,12 %
09.03.2017 22:08 7,1 C 94 % 1015,7 hPa 0,0 l/m 9,8 km/h (2 Bft) S-SW 211 0 min 0,000 mm 0,0 UV-I 0 W/m 6,2 C 4,5 C 14,5 km/h (3 Bft) 93,18 %
09.03.2017 22:10 7,1 C 94 % 1015,5 hPa 0,0 l/m 8,4 km/h (2 Bft) S-SW 205 0 min 0,000 mm 0,0 UV-I 0 W/m 6,2 C 5,5 C 12,9 km/h (3 Bft) 98,11 %
09.03.2017 22:12 7,1 C 94 % 1015,5 hPa 0,0 l/m 10,7 km/h (2 Bft) S-SW 204 0 min 0,000 mm 0,0 UV-I 0 W/m 6,2 C 3,9 C 17,7 km/h (3 Bft) 94,74 %
09.03.2017 22:14 7,1 C 94 % 1015,4 hPa 0,0 l/m 10,9 km/h (2 Bft) S-SW 209 0 min 0,000 mm 0,0 UV-I 0 W/m 6,2 C 3,8 C 16,1 km/h (3 Bft) 98,21 %
09.03.2017 22:16 7,2 C 94 % 1015,5 hPa 0,0 l/m 13,0 km/h (3 Bft) SW 232 0 min 0,000 mm 0,0 UV-I 0 W/m 6,3 C 2,7 C 19,3 km/h (3 Bft) 97,56 %
09.03.2017 22:18 7,2 C 94 % 1015,4 hPa 0,0 l/m 11,4 km/h (2 Bft) S-SW 192 0 min 0,000 mm 0,0 UV-I 0 W/m 6,3 C 3,6 C 17,7 km/h (3 Bft) 96,23 %
09.03.2017 22:20 7,2 C 94 % 1015,4 hPa 0,0 l/m 11,5 km/h (2 Bft) S-SW 207 0 min 0,000 mm 0,0 UV-I 0 W/m 6,3 C 3,6 C 19,3 km/h (3 Bft) 95,12 %
09.03.2017 22:22 7,3 C 94 % 1015,4 hPa 0,2 l/m 12,1 km/h (2 Bft) SW 215 0 min 0,000 mm 0,0 UV-I 0 W/m 6,4 C 3,3 C 20,9 km/h (4 Bft) 96,43 %
09.03.2017 22:24 7,3 C 94 % 1015,3 hPa 0,0 l/m 13,2 km/h (3 Bft) S-SW 209 0 min 0,000 mm 0,0 UV-I 0 W/m 6,4 C 2,8 C 19,3 km/h (3 Bft) 92,11 %
09.03.2017 22:26 7,3 C 94 % 1015,2 hPa 0,0 l/m 12,4 km/h (3 Bft) SW 227 0 min 0,000 mm 0,0 UV-I 0 W/m 6,4 C 3,2 C 19,3 km/h (3 Bft) 100,00 %
09.03.2017 22:28 7,4 C 94 % 1015,2 hPa 0,0 l/m 12,5 km/h (3 Bft) S-SW 204 0 min 0,000 mm 0,0 UV-I 0 W/m 6,5 C 3,2 C 17,7 km/h (3 Bft) 97,22 %
09.03.2017 22:30 7,4 C 94 % 1015,3 hPa 0,0 l/m 14,4 km/h (3 Bft) S-SW 207 0 min 0,000 mm 0,0 UV-I 0 W/m 6,5 C 2,3 C 22,5 km/h (4 Bft) 98,18 %
09.03.2017 22:32 7,4 C 94 % 1015,3 hPa 0,2 l/m 14,7 km/h (3 Bft) SW 219 0 min 0,000 mm 0,0 UV-I 0 W/m 6,5 C 2,1 C 24,1 km/h (4 Bft) 94,87 %
09.03.2017 22:34 7,6 C 94 % 1015,3 hPa 0,4 l/m 15,8 km/h (3 Bft) S-SW 202 0 min 0,000 mm 0,0 UV-I 0 W/m 6,7 C 1,9 C 29,0 km/h (5 Bft) 96,43 %
09.03.2017 22:36 7,6 C 94 % 1015,2 hPa 0,2 l/m 15,6 km/h (3 Bft) SW 219 0 min 0,000 mm 0,0 UV-I 0 W/m 6,7 C 2,0 C 25,7 km/h (4 Bft) 97,56 %
09.03.2017 22:38 7,6 C 94 % 1015,2 hPa 0,0 l/m 13,9 km/h (3 Bft) W-SW 244 0 min 0,000 mm 0,0 UV-I 0 W/m 6,7 C 2,8 C 19,3 km/h (3 Bft) 94,34 %
09.03.2017 22:40 7,6 C 94 % 1015,2 hPa 0,0 l/m 14,8 km/h (3 Bft) W-SW 242 0 min 0,000 mm 0,0 UV-I 0 W/m 6,7 C 2,3 C 22,5 km/h (4 Bft) 100,00 %
09.03.2017 22:42 7,6 C 94 % 1015,2 hPa 0,0 l/m 13,3 km/h (3 Bft) W-SW 241 0 min 0,000 mm 0,0 UV-I 0 W/m 6,7 C 3,1 C 22,5 km/h (4 Bft) 97,87 %
09.03.2017 22:44 7,6 C 94 % 1015,3 hPa 0,2 l/m 11,9 km/h (2 Bft) W-SW 248 0 min 0,000 mm 0,0 UV-I 0 W/m 6,7 C 3,8 C 16,1 km/h (3 Bft) 100,00 %
09.03.2017 22:46 7,6 C 94 % 1015,4 hPa 0,2 l/m 16,1 km/h (3 Bft) W-SW 256 0 min 0,000 mm 0,0 UV-I 0 W/m 6,7 C 1,7 C 24,1 km/h (4 Bft) 97,37 %
09.03.2017 22:48 7,7 C 94 % 1015,6 hPa 0,4 l/m 22,1 km/h (4 Bft) W 269 0 min 0,000 mm 0,0 UV-I 0 W/m 6,8 C -0,4 C 35,4 km/h (5 Bft) 96,23 %
09.03.2017 22:50 7,6 C 94 % 1015,5 hPa 0,2 l/m 13,6 km/h (3 Bft) W 259 0 min 0,000 mm 0,0 UV-I 0 W/m 6,7 C 2,9 C 22,5 km/h (4 Bft) 98,11 %
09.03.2017 22:52 7,6 C 94 % 1015,4 hPa 0,4 l/m 16,5 km/h (3 Bft) W-NW 285 0 min 0,000 mm 0,0 UV-I 0 W/m 6,7 C 1,6 C 24,1 km/h (4 Bft) 100,00 %
09.03.2017 22:54 7,6 C 94 % 1015,7 hPa 0,4 l/m 12,8 km/h (3 Bft) W-SW 254 0 min 0,000 mm 0,0 UV-I 0 W/m 6,7 C 3,3 C 17,7 km/h (3 Bft) 97,73 %
09.03.2017 22:56 7,6 C 94 % 1015,7 hPa 0,4 l/m 12,2 km/h (2 Bft) W-NW 293 0 min 0,000 mm 0,0 UV-I 0 W/m 6,7 C 3,6 C 17,7 km/h (3 Bft) 97,37 %
09.03.2017 22:58 7,6 C 95 % 1015,8 hPa 0,4 l/m 20,4 km/h (4 Bft) W-SW 252 0 min 0,000 mm 0,0 UV-I 0 W/m 6,9 C 0,0 C 29,0 km/h (5 Bft) 98,33 %
09.03.2017 23:00 7,6 C 95 % 1015,8 hPa 0,4 l/m 20,5 km/h (4 Bft) W-SW 256 0 min 0,000 mm 0,0 UV-I 0 W/m 6,9 C 0,0 C 33,8 km/h (5 Bft) 96,88 %
09.03.2017 23:02 7,7 C 95 % 1015,8 hPa 0,2 l/m 23,7 km/h (4 Bft) SW 233 0 min 0,000 mm 0,0 UV-I 0 W/m 7,0 C -0,9 C 43,5 km/h (6 Bft) 98,31 %
09.03.2017 23:04 7,7 C 95 % 1015,4 hPa 0,0 l/m 25,1 km/h (4 Bft) W-SW 254 0 min 0,000 mm 0,0 UV-I 0 W/m 7,0 C -1,3 C 35,4 km/h (5 Bft) 97,56 %
09.03.2017 23:06 7,8 C 95 % 1015,4 hPa 0,2 l/m 29,9 km/h (5 Bft) SW 225 0 min 0,000 mm 0,0 UV-I 0 W/m 7,0 C -2,4 C 43,5 km/h (6 Bft) 100,00 %
09.03.2017 23:08 7,8 C 95 % 1015,4 hPa 0,0 l/m 22,9 km/h (4 Bft) W-SW 253 0 min 0,000 mm 0,0 UV-I 0 W/m 7,0 C -0,5 C 33,8 km/h (5 Bft) 98,18 %
09.03.2017 23:10 7,8 C 94 % 1015,2 hPa 0,2 l/m 27,7 km/h (4 Bft) W 277 0 min 0,000 mm 0,0 UV-I 0 W/m 6,9 C -1,9 C 43,5 km/h (6 Bft) 100,00 %
09.03.2017 23:12 7,8 C 94 % 1015,0 hPa 0,0 l/m 22,7 km/h (4 Bft) W-NW 293 0 min 0,000 mm 0,0 UV-I 0 W/m 6,9 C -0,5 C 35,4 km/h (5 Bft) 100,00 %
09.03.2017 23:14 7,8 C 94 % 1015,4 hPa 0,2 l/m 19,9 km/h (4 Bft) W 262 0 min 0,000 mm 0,0 UV-I 0 W/m 6,9 C 0,5 C 30,6 km/h (5 Bft) 100,00 %
09.03.2017 23:16 7,8 C 93 % 1015,6 hPa 0,0 l/m 25,3 km/h (4 Bft) W 268 0 min 0,000 mm 0,0 UV-I 0 W/m 6,7 C -1,2 C 43,5 km/h (6 Bft) 100,00 %
09.03.2017 23:18 7,9 C 93 % 1015,6 hPa 0,0 l/m 18,7 km/h (3 Bft) W 261 0 min 0,000 mm 0,0 UV-I 0 W/m 6,8 C 1,1 C 29,0 km/h (5 Bft) 97,73 %
09.03.2017 23:20 7,9 C 93 % 1015,6 hPa 0,0 l/m 20,4 km/h (4 Bft) W-SW 239 0 min 0,000 mm 0,0 UV-I 0 W/m 6,8 C 0,4 C 33,8 km/h (5 Bft) 97,73 %
09.03.2017 23:22 7,9 C 92 % 1015,5 hPa 0,0 l/m 20,4 km/h (4 Bft) S-SW 213 0 min 0,000 mm 0,0 UV-I 0 W/m 6,7 C 0,4 C 27,4 km/h (4 Bft) 100,00 %
09.03.2017 23:24 8,0 C 92 % 1015,5 hPa 0,0 l/m 21,5 km/h (4 Bft) W-SW 251 0 min 0,000 mm 0,0 UV-I 0 W/m 6,8 C 0,2 C 35,4 km/h (5 Bft) 97,73 %
09.03.2017 23:26 8,0 C 92 % 1015,6 hPa 0,0 l/m 19,5 km/h (3 Bft) W 269 0 min 0,000 mm 0,0 UV-I 0 W/m 6,8 C 0,9 C 27,4 km/h (4 Bft) 100,00 %
09.03.2017 23:28 8,0 C 91 % 1015,7 hPa 0,0 l/m 19,7 km/h (3 Bft) W-SW 249 0 min 0,000 mm 0,0 UV-I 0 W/m 6,6 C 0,8 C 33,8 km/h (5 Bft) 97,73 %
09.03.2017 23:30 8,1 C 91 % 1015,8 hPa 0,0 l/m 20,0 km/h (4 Bft) W 278 0 min 0,000 mm 0,0 UV-I 0 W/m 6,7 C 0,8 C 30,6 km/h (5 Bft) 100,00 %
09.03.2017 23:32 8,1 C 91 % 1015,8 hPa 0,0 l/m 20,6 km/h (4 Bft) W-SW 250 0 min 0,000 mm 0,0 UV-I 0 W/m 6,7 C 0,6 C 35,4 km/h (5 Bft) 100,00 %
09.03.2017 23:34 8,1 C 91 % 1015,9 hPa 0,0 l/m 15,4 km/h (3 Bft) W-SW 253 0 min 0,000 mm 0,0 UV-I 0 W/m 6,7 C 2,7 C 27,4 km/h (4 Bft) 97,37 %
09.03.2017 23:36 8,1 C 91 % 1015,9 hPa 0,0 l/m 18,6 km/h (3 Bft) W-SW 246 0 min 0,000 mm 0,0 UV-I 0 W/m 6,7 C 1,3 C 25,7 km/h (4 Bft) 100,00 %
09.03.2017 23:38 8,1 C 91 % 1015,9 hPa 0,0 l/m 14,9 km/h (3 Bft) W-NW 282 0 min 0,000 mm 0,0 UV-I 0 W/m 6,7 C 2,9 C 20,9 km/h (4 Bft) 100,00 %
09.03.2017 23:40 8,0 C 92 % 1015,8 hPa 0,0 l/m 12,3 km/h (3 Bft) W-SW 254 0 min 0,000 mm 0,0 UV-I 0 W/m 6,8 C 4,0 C 20,9 km/h (4 Bft) 98,11 %
09.03.2017 23:42 8,0 C 92 % 1015,9 hPa 0,0 l/m 15,5 km/h (3 Bft) W 263 0 min 0,000 mm 0,0 UV-I 0 W/m 6,8 C 2,5 C 20,9 km/h (4 Bft) 97,87 %
09.03.2017 23:44 8,0 C 92 % 1016,0 hPa 0,0 l/m 10,8 km/h (2 Bft) W-SW 254 0 min 0,000 mm 0,0 UV-I 0 W/m 6,8 C 4,9 C 16,1 km/h (3 Bft) 100,00 %
09.03.2017 23:46 8,0 C 92 % 1016,1 hPa 0,0 l/m 14,6 km/h (3 Bft) W 267 0 min 0,000 mm 0,0 UV-I 0 W/m 6,8 C 2,9 C 24,1 km/h (4 Bft) 100,00 %
09.03.2017 23:48 8,0 C 92 % 1016,1 hPa 0,0 l/m 15,4 km/h (3 Bft) W-SW 255 0 min 0,000 mm 0,0 UV-I 0 W/m 6,8 C 2,5 C 24,1 km/h (4 Bft) 100,00 %
09.03.2017 23:50 8,0 C 92 % 1016,1 hPa 0,0 l/m 11,8 km/h (2 Bft) W 260 0 min 0,000 mm 0,0 UV-I 0 W/m 6,8 C 4,3 C 19,3 km/h (3 Bft) 98,36 %
09.03.2017 23:52 8,0 C 92 % 1016,1 hPa 0,0 l/m 14,0 km/h (3 Bft) W 260 0 min 0,000 mm 0,0 UV-I 0 W/m 6,8 C 3,2 C 22,5 km/h (4 Bft) 96,00 %
09.03.2017 23:54 8,0 C 92 % 1016,1 hPa 0,0 l/m 12,3 km/h (3 Bft) W-SW 257 0 min 0,000 mm 0,0 UV-I 0 W/m 6,8 C 4,0 C 19,3 km/h (3 Bft) 95,56 %
09.03.2017 23:56 8,1 C 92 % 1016,1 hPa 0,0 l/m 12,9 km/h (3 Bft) W-NW 295 0 min 0,000 mm 0,0 UV-I 0 W/m 6,9 C 3,8 C 20,9 km/h (4 Bft) 97,73 %
09.03.2017 23:58 8,1 C 92 % 1016,1 hPa 0,0 l/m 9,9 km/h (2 Bft) W 259 0 min 0,000 mm 0,0 UV-I 0 W/m 6,9 C 5,6 C 14,5 km/h (3 Bft) 96,43 %
_ Min-Zeit 01:44 16:20 23:12 - 02:18 - - - - - - 00:00 23:06 02:20 08:00
Minimum _ 4,4 C 85 % 1015,0 hPa - 0,0 km/h (0 Bft) - - - - - - 3,4 C -2,4 C 0,0 km/h (0 Bft) 85,37 %
_ Max-Zeit 13:20 09:56 09:42 22:34 23:06 - - 09:56 13:02 12:08 12:08 12:46 13:10 23:02 00:02
Maximum _ 10,5 C 98 % 1019,3 hPa 0,4 l/m 29,9 km/h
SW (5 Bft)
- - 2 min 0,127 mm 1,5 UV-I 421 W/m 9,0 C 10,4 C 43,5 km/h
W-SW (6 Bft)
100,00 %
Durchschnitt _ 7,5 C 93 % 1017,9 hPa #15,4 l/m 9,3 km/h (2 Bft) W-SW - #26 min. #0,762 mm 0,8 UV-I 117 W/m 6,4 C 4,9 C 14,8 km/h (3 Bft) 96,36 %